[[{"header":{"parameterUnit":"m.s-1","parameterCategory":1,"la1":30.6,"la2":29.2853,"lo1":-89.7004,"lo2":-87.6739,"dy":0.0162,"dx":0.0183,"nx":112,"ny":82,"refTime":"2023-06-16T06:00:00:Z","depth":0,"parameterNumber":2,"parameterNumberName":"U-component_of_WINDS"},"data":[0.0,0.0,0.0,0.0,0.0,0.0,0.0,0.0,0.0,0.0,0.0,0.0,0.0,0.0,0.0,0.0,0.0,0.0,0.0,0.0,0.0,0.0,0.0,0.0,0.0,0.0,0.0,0.0,0.0,0.0,0.0,0.0,0.0,0.0,0.0,0.0,0.0,0.0,0.0,0.0,0.0,0.0,0.0,0.0,0.0,0.0,0.0,0.0,0.0,0.0,0.0,0.0,0.0,0.0,0.0,0.0,0.0,0.0,0.0,0.0,0.0,0.0,0.0,0.0,0.0,0.0,0.0,0.0,0.0,0.0,0.0,0.0,0.0,0.0,0.0,0.0,0.0,0.0,0.0,0.0,0.0,0.0,0.0,0.0,0.0,0.0,0.0,0.0,0.0,0.0,-5.7948,-5.8085,-5.85,-5.8803,-5.8991,-5.9045,-5.9099,-5.9099,0.0,0.0,0.0,0.0,0.0,0.0,0.0,0.0,0.0,0.0,0.0,0.0,0.0,0.0,0.0,0.0,0.0,0.0,0.0,0.0,0.0,0.0,0.0,0.0,0.0,0.0,0.0,0.0,0.0,0.0,0.0,0.0,0.0,0.0,0.0,0.0,0.0,0.0,0.0,0.0,0.0,0.0,0.0,0.0,0.0,0.0,0.0,0.0,0.0,0.0,0.0,0.0,0.0,0.0,0.0,0.0,0.0,0.0,0.0,0.0,0.0,0.0,0.0,0.0,0.0,0.0,0.0,0.0,0.0,0.0,0.0,0.0,0.0,0.0,0.0,0.0,0.0,0.0,0.0,0.0,0.0,0.0,0.0,0.0,0.0,0.0,0.0,0.0,0.0,0.0,0.0,0.0,0.0,0.0,0.0,0.0,0.0,0.0,0.0,0.0,0.0,0.0,0.0,0.0,-5.8059,-5.7892,-5.8335,-5.8748,-5.8748,-5.8936,-5.9099,-5.9099,0.0,0.0,0.0,0.0,0.0,0.0,0.0,0.0,0.0,0.0,0.0,0.0,0.0,0.0,0.0,0.0,0.0,0.0,0.0,0.0,0.0,0.0,0.0,0.0,0.0,0.0,0.0,0.0,0.0,0.0,0.0,0.0,0.0,0.0,0.0,0.0,0.0,0.0,0.0,0.0,0.0,0.0,0.0,0.0,0.0,0.0,0.0,0.0,0.0,0.0,0.0,0.0,0.0,0.0,0.0,0.0,0.0,0.0,0.0,0.0,0.0,0.0,0.0,0.0,0.0,0.0,0.0,0.0,0.0,0.0,0.0,0.0,0.0,0.0,0.0,0.0,0.0,0.0,0.0,0.0,0.0,0.0,0.0,0.0,0.0,0.0,0.0,0.0,0.0,0.0,0.0,0.0,0.0,0.0,0.0,0.0,0.0,0.0,0.0,0.0,0.0,0.0,0.0,-5.8059,-5.7948,-5.7836,-5.8059,-5.828,-5.8445,-5.8719,-5.8882,-5.8882,-5.8991,0.0,0.0,0.0,0.0,0.0,0.0,0.0,0.0,0.0,0.0,0.0,0.0,0.0,0.0,0.0,0.0,0.0,0.0,0.0,0.0,0.0,0.0,0.0,0.0,0.0,0.0,0.0,0.0,0.0,0.0,0.0,0.0,0.0,0.0,0.0,0.0,0.0,0.0,0.0,0.0,0.0,0.0,0.0,0.0,0.0,0.0,0.0,0.0,0.0,0.0,0.0,0.0,0.0,0.0,0.0,0.0,0.0,0.0,0.0,0.0,0.0,0.0,0.0,0.0,0.0,0.0,0.0,0.0,0.0,0.0,0.0,0.0,0.0,0.0,0.0,0.0,0.0,0.0,0.0,0.0,0.0,0.0,0.0,0.0,0.0,0.0,0.0,0.0,0.0,0.0,0.0,0.0,0.0,0.0,0.0,0.0,0.0,0.0,0.0,0.0,0.0,0.0,-5.7781,-5.7669,-5.7669,-5.7725,-5.7892,-5.8114,-5.8445,-5.8753,-5.8902,-5.9175,0.0,0.0,0.0,0.0,0.0,0.0,0.0,0.0,0.0,0.0,0.0,0.0,0.0,0.0,0.0,0.0,0.0,0.0,0.0,0.0,0.0,0.0,0.0,0.0,0.0,0.0,0.0,0.0,0.0,0.0,0.0,0.0,0.0,0.0,0.0,0.0,0.0,0.0,0.0,0.0,0.0,0.0,0.0,0.0,0.0,0.0,0.0,0.0,0.0,0.0,0.0,0.0,0.0,0.0,0.0,0.0,0.0,0.0,0.0,0.0,0.0,0.0,0.0,0.0,0.0,0.0,0.0,0.0,0.0,0.0,0.0,0.0,0.0,0.0,0.0,0.0,0.0,0.0,0.0,0.0,0.0,0.0,0.0,0.0,0.0,0.0,0.0,0.0,0.0,0.0,0.0,0.0,0.0,0.0,0.0,0.0,0.0,0.0,0.0,0.0,0.0,0.0,-5.7696,-5.736,-5.736,-5.7613,-5.7781,-5.7836,-5.8335,-5.8931,-5.9611,-5.9861,0.0,0.0,0.0,0.0,0.0,0.0,0.0,0.0,0.0,0.0,0.0,0.0,0.0,0.0,0.0,0.0,0.0,0.0,0.0,0.0,0.0,0.0,0.0,0.0,0.0,0.0,0.0,0.0,0.0,0.0,0.0,0.0,0.0,0.0,0.0,0.0,0.0,0.0,0.0,0.0,0.0,0.0,0.0,0.0,0.0,0.0,0.0,0.0,0.0,0.0,0.0,0.0,0.0,0.0,0.0,0.0,0.0,0.0,0.0,0.0,0.0,0.0,0.0,0.0,0.0,0.0,0.0,0.0,0.0,0.0,0.0,0.0,0.0,0.0,0.0,0.0,0.0,0.0,0.0,0.0,0.0,0.0,0.0,0.0,0.0,0.0,0.0,0.0,0.0,0.0,0.0,0.0,0.0,0.0,0.0,0.0,0.0,0.0,0.0,0.0,0.0,0.0,-5.7863,-5.7703,-5.7884,-5.8056,-5.8287,-5.8695,-5.9094,-5.9551,-5.9957,0.0,0.0,0.0,0.0,0.0,0.0,0.0,0.0,0.0,0.0,0.0,0.0,0.0,0.0,0.0,0.0,0.0,0.0,0.0,0.0,0.0,0.0,0.0,0.0,0.0,0.0,0.0,0.0,0.0,0.0,0.0,0.0,0.0,0.0,0.0,0.0,0.0,0.0,0.0,0.0,0.0,0.0,0.0,0.0,0.0,0.0,0.0,0.0,0.0,0.0,0.0,0.0,0.0,0.0,0.0,0.0,0.0,0.0,0.0,0.0,0.0,0.0,0.0,0.0,0.0,0.0,0.0,0.0,0.0,0.0,0.0,0.0,0.0,0.0,0.0,0.0,0.0,0.0,0.0,0.0,0.0,0.0,0.0,0.0,0.0,0.0,0.0,0.0,0.0,0.0,0.0,0.0,0.0,0.0,0.0,0.0,0.0,0.0,0.0,0.0,0.0,0.0,-5.887,-5.8508,-5.8344,-5.8581,-5.861,-5.8813,-5.9248,-5.9538,-5.9972,-6.0465,0.0,0.0,0.0,0.0,0.0,0.0,0.0,0.0,0.0,0.0,0.0,0.0,0.0,0.0,0.0,0.0,0.0,0.0,0.0,0.0,0.0,0.0,0.0,0.0,0.0,0.0,0.0,0.0,0.0,0.0,0.0,0.0,0.0,0.0,0.0,0.0,0.0,0.0,0.0,0.0,0.0,0.0,0.0,0.0,0.0,0.0,0.0,0.0,0.0,0.0,0.0,0.0,0.0,0.0,0.0,0.0,0.0,0.0,0.0,0.0,0.0,0.0,0.0,0.0,0.0,0.0,0.0,0.0,0.0,0.0,0.0,0.0,0.0,0.0,0.0,0.0,0.0,0.0,0.0,0.0,0.0,0.0,0.0,0.0,0.0,0.0,0.0,0.0,0.0,0.0,0.0,0.0,0.0,0.0,0.0,0.0,0.0,0.0,0.0,0.0,0.0,0.0,-6.0111,-5.9683,-5.9306,-5.9306,-5.9306,-5.9306,-5.9335,-5.9567,-6.0177,0.0,0.0,0.0,0.0,0.0,0.0,0.0,0.0,0.0,0.0,0.0,0.0,0.0,0.0,0.0,0.0,0.0,0.0,0.0,0.0,0.0,0.0,0.0,0.0,0.0,0.0,0.0,0.0,0.0,0.0,0.0,0.0,0.0,0.0,0.0,0.0,0.0,0.0,0.0,0.0,0.0,0.0,0.0,0.0,0.0,0.0,0.0,0.0,0.0,0.0,0.0,0.0,0.0,0.0,0.0,0.0,0.0,0.0,0.0,0.0,0.0,0.0,0.0,0.0,0.0,0.0,0.0,0.0,0.0,0.0,0.0,0.0,0.0,0.0,0.0,0.0,0.0,0.0,0.0,0.0,0.0,0.0,0.0,0.0,0.0,0.0,0.0,0.0,0.0,0.0,0.0,0.0,0.0,0.0,0.0,0.0,0.0,0.0,0.0,0.0,0.0,0.0,0.0,-6.017,-5.9683,-5.9451,-5.9887,-5.9916,-6.0119,-6.0584,-6.0672,-6.1056,-6.1821,0.0,0.0,0.0,0.0,0.0,0.0,0.0,0.0,0.0,0.0,0.0,0.0,0.0,0.0,0.0,0.0,0.0,0.0,0.0,0.0,0.0,0.0,0.0,0.0,0.0,0.0,0.0,0.0,0.0,0.0,0.0,0.0,0.0,0.0,0.0,0.0,0.0,0.0,0.0,0.0,0.0,0.0,0.0,0.0,0.0,0.0,0.0,0.0,0.0,0.0,0.0,0.0,0.0,0.0,0.0,0.0,0.0,0.0,0.0,0.0,0.0,0.0,0.0,0.0,0.0,0.0,0.0,0.0,0.0,0.0,0.0,0.0,0.0,0.0,0.0,0.0,0.0,0.0,0.0,0.0,0.0,0.0,0.0,0.0,0.0,0.0,0.0,0.0,0.0,0.0,0.0,0.0,0.0,0.0,0.0,0.0,0.0,0.0,0.0,0.0,0.0,0.0,-6.0907,-6.0443,-6.0,-5.9778,-6.0285,-6.0549,-6.0381,-6.0863,-6.1433,-6.185,0.0,0.0,0.0,0.0,0.0,0.0,0.0,0.0,0.0,0.0,0.0,0.0,0.0,0.0,0.0,0.0,0.0,0.0,0.0,0.0,0.0,0.0,0.0,0.0,0.0,0.0,0.0,0.0,0.0,0.0,0.0,0.0,0.0,0.0,0.0,0.0,0.0,0.0,0.0,0.0,0.0,0.0,0.0,0.0,0.0,0.0,0.0,0.0,0.0,0.0,0.0,0.0,0.0,0.0,0.0,0.0,0.0,0.0,0.0,0.0,0.0,0.0,0.0,0.0,0.0,0.0,0.0,0.0,0.0,0.0,0.0,0.0,0.0,0.0,0.0,0.0,0.0,0.0,0.0,0.0,0.0,0.0,0.0,0.0,0.0,0.0,0.0,0.0,0.0,0.0,0.0,0.0,0.0,0.0,0.0,0.0,0.0,0.0,0.0,0.0,0.0,0.0,-6.2028,-6.1583,-6.0681,-5.9245,-6.0226,-6.0409,-5.9058,-6.0226,-6.1104,-6.1405,0.0,0.0,0.0,0.0,0.0,0.0,0.0,0.0,0.0,0.0,0.0,0.0,0.0,0.0,0.0,0.0,0.0,0.0,0.0,0.0,0.0,0.0,0.0,0.0,0.0,0.0,0.0,0.0,0.0,0.0,0.0,0.0,0.0,0.0,0.0,0.0,0.0,0.0,0.0,0.0,0.0,0.0,0.0,0.0,0.0,0.0,0.0,0.0,0.0,0.0,0.0,0.0,0.0,0.0,0.0,0.0,0.0,0.0,0.0,0.0,-5.5957,-5.6316,0.0,0.0,0.0,0.0,0.0,0.0,0.0,0.0,0.0,0.0,0.0,0.0,0.0,0.0,0.0,0.0,0.0,0.0,0.0,0.0,0.0,0.0,0.0,0.0,0.0,0.0,0.0,0.0,0.0,0.0,0.0,0.0,0.0,0.0,0.0,0.0,0.0,0.0,0.0,0.0,-6.2087,-6.1583,-6.0681,-5.9245,-5.9369,-5.8996,-5.7551,-5.8718,-5.9678,-6.0018,-6.1077,0.0,0.0,0.0,0.0,0.0,0.0,0.0,0.0,0.0,0.0,0.0,0.0,0.0,0.0,0.0,0.0,0.0,0.0,0.0,0.0,0.0,0.0,0.0,0.0,0.0,0.0,0.0,0.0,0.0,0.0,0.0,0.0,0.0,0.0,0.0,0.0,0.0,0.0,0.0,0.0,0.0,0.0,0.0,0.0,0.0,0.0,0.0,0.0,0.0,0.0,0.0,0.0,0.0,0.0,0.0,0.0,0.0,0.0,0.0,-5.6765,-5.6974,0.0,0.0,0.0,0.0,0.0,0.0,0.0,0.0,0.0,0.0,0.0,0.0,0.0,0.0,0.0,0.0,0.0,0.0,0.0,0.0,0.0,0.0,0.0,0.0,0.0,0.0,0.0,0.0,0.0,0.0,0.0,0.0,0.0,0.0,0.0,0.0,0.0,0.0,0.0,0.0,-6.1197,-6.1135,-6.0409,-5.834,-5.8718,-5.878,-5.8088,-5.8655,-5.9431,-6.032,-6.1166,0.0,0.0,0.0,0.0,0.0,0.0,0.0,0.0,0.0,0.0,0.0,0.0,0.0,0.0,0.0,0.0,0.0,0.0,0.0,0.0,0.0,0.0,0.0,0.0,0.0,0.0,0.0,0.0,0.0,0.0,0.0,0.0,0.0,0.0,0.0,0.0,0.0,0.0,0.0,0.0,0.0,0.0,0.0,0.0,0.0,0.0,0.0,0.0,0.0,0.0,0.0,0.0,0.0,-5.5029,-5.5658,-5.6248,-5.6406,-5.7094,-5.8112,-5.7633,-5.7752,-5.8291,-5.8291,0.0,0.0,0.0,0.0,0.0,0.0,0.0,0.0,0.0,0.0,0.0,0.0,0.0,0.0,0.0,0.0,0.0,0.0,0.0,0.0,0.0,0.0,0.0,0.0,-6.3079,-6.3079,-6.3079,0.0,0.0,0.0,0.0,0.0,0.0,0.0,0.0,0.0,0.0,0.0,-6.0416,-6.0624,-5.983,-5.7295,-5.8024,-5.8655,-5.8404,-5.8592,-5.9245,-6.0409,-6.0894,-6.1106,0.0,0.0,0.0,0.0,0.0,0.0,0.0,0.0,0.0,0.0,0.0,0.0,0.0,0.0,0.0,0.0,0.0,0.0,0.0,0.0,0.0,0.0,0.0,0.0,0.0,0.0,0.0,0.0,0.0,0.0,0.0,0.0,-4.1547,-4.2418,0.0,0.0,0.0,0.0,0.0,0.0,0.0,0.0,0.0,0.0,0.0,0.0,0.0,-5.3286,-5.4072,-5.4162,-5.4491,-5.5059,-5.5718,-5.6077,-5.6248,-5.7363,-5.7962,-5.8141,-5.862,0.0,-5.8979,-5.8979,0.0,0.0,0.0,0.0,0.0,0.0,0.0,0.0,0.0,0.0,0.0,0.0,0.0,0.0,0.0,0.0,0.0,0.0,0.0,0.0,0.0,0.0,-6.3079,-6.3079,-6.3079,-6.3079,0.0,-6.3079,-6.3079,-6.3079,-6.2847,0.0,0.0,0.0,0.0,0.0,0.0,0.0,-6.1465,-6.023,-5.878,-5.7167,-5.7167,-5.678,-5.5657,-5.6612,-5.7359,-5.7551,-5.8718,-5.9002,-5.8068,-6.0384,0.0,0.0,0.0,0.0,0.0,0.0,0.0,0.0,0.0,0.0,0.0,0.0,0.0,0.0,0.0,0.0,0.0,0.0,0.0,0.0,0.0,0.0,0.0,0.0,0.0,0.0,0.0,0.0,0.0,-4.0905,-4.2457,-4.4184,-4.4468,-4.4922,0.0,0.0,0.0,0.0,0.0,0.0,0.0,0.0,0.0,-5.3018,-5.3496,-5.4072,-5.476,-5.476,-5.5089,-5.5748,-5.6047,-5.6555,-5.7304,-5.7872,-5.8321,-5.868,-5.8979,-5.9308,-5.9638,-5.9249,-5.9308,-5.9668,0.0,0.0,0.0,0.0,-6.2331,-6.269,-6.2989,-6.3079,-6.3079,-6.3079,0.0,0.0,0.0,0.0,0.0,0.0,0.0,0.0,0.0,0.0,-6.3079,-6.3079,-6.3079,-6.3079,-6.3079,-6.3079,-6.3021,0.0,-6.2556,-6.2439,-6.2789,0.0,0.0,0.0,0.0,-6.1465,-6.0595,-6.0381,-5.9768,-5.834,-5.7487,-5.7423,-5.8431,-5.7551,-5.7679,-5.9245,-5.9953,-6.0075,-5.9617,-6.0169,-6.0262,0.0,0.0,0.0,0.0,0.0,0.0,0.0,0.0,0.0,0.0,0.0,0.0,0.0,0.0,0.0,0.0,0.0,0.0,0.0,0.0,0.0,0.0,0.0,0.0,0.0,0.0,0.0,0.0,-4.1924,-4.3342,-4.5512,-4.5309,-4.5579,0.0,0.0,0.0,0.0,0.0,0.0,-5.1759,-5.2288,-5.3145,-5.4381,-5.4461,-5.47,-5.5179,-5.5359,-5.5688,-5.6218,-5.6526,-5.7184,-5.8141,-5.8291,-5.865,-5.9129,-5.9279,-5.9638,-6.0057,-5.9548,-5.9757,-6.0356,-6.0535,-6.1224,-6.2121,-6.2271,-6.266,-6.3079,-6.3079,-6.3079,-6.3079,-6.3079,-6.3079,-6.3079,-6.3079,0.0,0.0,0.0,0.0,-6.3079,-6.3079,-6.3079,-6.3079,-6.3079,-6.3079,-6.3079,-6.3079,-6.3079,-6.3021,0.0,-6.2351,-6.2234,-6.2556,0.0,0.0,-6.2292,-6.191,-6.1226,-6.0169,-6.0381,-6.0287,-5.9245,-5.8151,-5.8277,-5.9953,-5.8214,-5.7742,-5.9521,-5.9953,-5.983,-5.9121,-5.9341,-5.9127,-5.8439,0.0,0.0,0.0,0.0,0.0,0.0,0.0,0.0,0.0,0.0,0.0,0.0,0.0,0.0,0.0,0.0,0.0,0.0,0.0,0.0,0.0,0.0,0.0,0.0,0.0,0.0,0.0,0.0,0.0,-4.6312,-4.6443,0.0,0.0,0.0,0.0,-4.8137,-4.9741,-5.1197,-5.2478,-5.4146,-5.5039,-5.5149,-5.5149,-5.5149,-5.5179,-5.5807,-5.6188,-5.6248,-5.7423,-5.8052,-5.8141,-5.877,-5.9069,-5.9129,-5.9757,-6.0057,-6.0086,-6.0057,-6.0446,-6.1134,-6.1762,-6.2032,-6.2181,-6.278,-6.3049,-6.3079,-6.3079,-6.3079,-6.3079,-6.3079,-6.3079,-6.3079,-6.3079,-6.3079,0.0,0.0,-6.3079,-6.3079,-6.3079,-6.3079,-6.3079,-6.3079,-6.3079,-6.3079,-6.3079,-6.3079,-6.3079,0.0,-6.2526,-6.2234,-6.2556,0.0,-6.1613,-6.1673,-6.1613,-6.1494,-6.1193,-6.0014,-5.9183,-5.9121,-5.9058,-5.8529,-5.7295,-5.7102,-5.6547,-5.5393,-5.6547,-5.6025,-5.3452,-5.7038,-5.7897,-5.526,-5.639,0.0,0.0,0.0,0.0,0.0,0.0,0.0,0.0,0.0,0.0,0.0,0.0,0.0,0.0,0.0,0.0,0.0,0.0,0.0,0.0,0.0,0.0,0.0,0.0,0.0,0.0,0.0,0.0,-4.6839,-4.6708,0.0,-4.7492,-4.7754,-4.8615,-5.0352,-5.1008,-5.2223,-5.4184,-5.4827,-5.5179,-5.5179,-5.5179,-5.5388,-5.5807,-5.6098,-5.6585,-5.7423,-5.7902,-5.8351,-5.877,-5.9009,-5.9338,-5.9757,-5.9997,-6.0565,-6.1373,-6.1373,-6.1523,-6.1762,-6.2002,-6.2361,-6.275,-6.2989,-6.3079,-6.3079,-6.3079,-6.3079,-6.3079,-6.3079,-6.3079,-6.3079,-6.3079,-6.3079,-6.3079,-6.3079,-6.3079,-6.3079,-6.3079,-6.3079,-6.3079,-6.3079,-6.3079,-6.3079,-6.3079,-6.2905,-6.2789,-6.2789,-6.241,-6.2116,-6.2234,-6.1761,-6.1404,-6.1554,-6.1434,-6.1313,-6.1193,-6.0742,-6.0075,-5.9183,-5.9121,-5.8905,-5.8404,-5.834,-5.8529,-5.8933,-5.8592,-5.7897,-5.6936,-5.6612,-5.5959,-5.4994,-5.4619,-5.435,0.0,0.0,0.0,0.0,0.0,0.0,0.0,0.0,0.0,0.0,0.0,0.0,0.0,0.0,0.0,0.0,0.0,0.0,0.0,0.0,0.0,0.0,0.0,0.0,0.0,-4.4045,-4.5375,-4.7069,-4.6839,-4.6917,-4.8068,-4.8172,-4.916,-5.1511,-5.1674,-5.2726,-5.5078,-5.5179,-5.5179,-5.5179,-5.5418,-5.5718,-5.6218,-5.6615,-5.7274,-5.8112,-5.8351,-5.868,-5.9129,-5.9338,-5.9668,-6.0116,-6.0565,-6.1283,-6.2121,-6.2331,-6.2421,-6.2421,-6.2421,-6.269,-6.3079,-6.3079,-6.3079,-6.3079,-6.3079,-6.3079,-6.3079,-6.3079,-6.3079,-6.3079,-6.3079,-6.3079,-6.3079,-6.3079,-6.3079,-6.3079,-6.3079,-6.3079,-6.3079,-6.3079,-6.3079,-6.3079,-6.2963,-6.2731,-6.2556,-6.2439,-6.2175,-6.191,-6.191,-6.1523,-6.1253,-6.1464,-6.1284,-6.1193,-6.1193,-6.1193,-6.0863,-5.9891,-5.983,-5.9645,-5.9121,-5.9121,-5.9121,-5.9121,-5.8655,-5.7961,-5.7065,-5.5723,-5.502,-5.502,-5.4106,-5.3384,-5.2929,0.0,0.0,0.0,0.0,0.0,0.0,0.0,0.0,0.0,0.0,0.0,0.0,0.0,0.0,0.0,0.0,0.0,0.0,0.0,0.0,0.0,0.0,0.0,-4.5451,-4.5059,-4.5346,-4.7043,-4.6839,-4.6944,-4.8068,-4.8172,-4.916,-5.1511,-5.1674,-5.2726,-5.5078,-5.5179,-5.5209,-5.5209,-5.5837,-5.6248,-5.6278,-5.7483,-5.8141,-5.8171,-5.88,-5.9129,-5.9159,-5.9787,-6.0116,-6.0206,-6.1523,-6.2121,-6.2181,-6.281,-6.3079,-6.3079,-6.3079,-6.3079,-6.3079,-6.3079,-6.3079,-6.3079,-6.3079,-6.3079,-6.3079,-6.3079,-6.3079,-6.3079,-6.3079,-6.3079,-6.3079,-6.3079,-6.3079,-6.3079,-6.3079,-6.3079,-6.3079,-6.3079,-6.3079,-6.3021,-6.2673,-6.2615,-6.2498,-6.2175,-6.1791,-6.1613,-6.1613,-6.1404,-6.1193,-6.1193,-6.1193,0.0,-6.1193,-6.1193,-6.1193,-6.1133,-6.1193,-6.0621,-5.9245,-5.9121,-5.8024,-5.5326,-5.6352,-5.5894,-5.311,-5.4283,-5.502,-5.4953,-5.4927,-5.4283,-5.2929,0.0,0.0,0.0,0.0,0.0,0.0,0.0,0.0,0.0,0.0,0.0,0.0,0.0,0.0,0.0,0.0,0.0,0.0,0.0,0.0,0.0,-4.4505,-4.4448,-4.3725,-4.4616,-4.5715,-4.6604,-4.6944,-4.7388,-4.812,-4.8172,-4.916,-5.1511,-5.1674,-5.2726,-5.5078,-5.5179,-5.5418,-5.5897,-5.6128,-5.6615,-5.7573,-5.7932,-5.8351,-5.883,-5.9009,-5.9338,-5.9817,-5.9997,-6.0625,-6.1553,-6.1942,-6.2361,-6.281,-6.2989,-6.3079,-6.3079,-6.3079,-6.3079,-6.3079,-6.3079,-6.3079,-6.3079,-6.3079,-6.3079,-6.3079,-6.3079,-6.3079,-6.3079,-6.3079,-6.3079,-6.3079,-6.3079,-6.3079,-6.3079,-6.3079,-6.3079,-6.3079,-6.3079,-6.3079,-6.3021,-6.2673,-6.2439,-6.2116,-6.1791,-6.1523,-6.1344,-6.1554,-6.1404,-6.1193,-6.1193,-6.1193,0.0,-6.1193,-6.1193,-6.0802,-5.9768,-6.0621,-6.0621,-5.9245,-6.0014,-6.0287,-5.9521,-5.8871,-5.777,-5.5959,-5.5326,-5.4485,-5.3521,-5.3452,-5.3316,0.0,0.0,0.0,0.0,0.0,0.0,0.0,0.0,0.0,0.0,0.0,0.0,0.0,0.0,0.0,0.0,0.0,0.0,0.0,0.0,0.0,0.0,-4.4668,-4.445,-4.3742,-4.4779,-4.5846,-4.6421,-4.697,-4.7571,-4.812,-4.8172,-4.916,-5.1511,-5.1674,-5.2726,-5.5078,-5.5448,-5.5777,-5.6218,-5.6705,-5.7363,-5.8112,-5.8411,-5.871,-5.9099,-5.9368,-5.9727,-6.0116,-6.0655,-6.1343,-6.2121,-6.2391,-6.272,-6.3079,-6.3079,-6.3079,0.0,0.0,0.0,0.0,0.0,-6.3079,-6.3079,-6.3079,-6.3079,-6.3079,-6.3079,-6.3079,-6.3079,-6.3079,-6.3079,-6.3079,-6.3079,-6.3079,-6.3079,-6.3079,-6.3079,-6.3079,-6.3079,-6.3021,-6.2789,-6.2498,-6.2116,-6.1791,-6.1523,-6.1313,0.0,-6.1404,-6.1284,-6.1193,-6.1193,-6.1193,-6.1193,-6.1193,-6.1193,-6.0863,-6.0104,-6.0742,-6.0863,-6.0043,-6.0742,0.0,0.0,0.0,-5.7359,-5.5366,-5.5127,0.0,0.0,0.0,-5.3521,-5.2929,0.0,0.0,0.0,-5.2779,-5.2754,0.0,0.0,0.0,0.0,0.0,0.0,0.0,0.0,0.0,0.0,0.0,0.0,0.0,0.0,0.0,0.0,-4.4668,-4.4668,-4.4668,-4.5297,-4.5924,-4.6421,-4.7048,-4.7623,-4.8146,-4.8172,-4.916,-5.1511,-5.1759,-5.2841,-5.5197,0.0,0.0,0.0,0.0,-5.8171,-5.8231,-5.8949,-5.9308,-5.9219,-5.9967,-6.0326,-6.0356,-6.1553,-6.2121,-6.2241,-6.281,-6.3079,-6.3079,-6.3079,-6.3079,-6.3079,-6.3079,-6.3079,-6.3079,-6.3079,-6.3079,-6.3079,-6.3079,0.0,0.0,-6.3079,-6.3079,-6.3079,-6.3079,-6.3079,-6.3079,-6.3079,-6.3079,-6.3079,-6.3079,-6.3079,-6.3079,-6.3079,-6.2847,-6.2498,-6.2175,-6.185,-6.1494,-6.1253,-6.1193,-6.1193,-6.1193,-6.1193,-6.1193,-6.1193,-6.1193,-6.1193,-6.1193,-6.1193,-6.1193,-6.1193,0.0,0.0,-6.1193,-6.1193,-6.0681,-5.9431,-5.8024,-5.6064,-5.3427,-5.4418,-5.435,-5.2929,-5.4106,-5.4174,-5.2929,-5.2929,-5.2929,-5.2929,-5.2929,-5.2929,0.0,0.0,0.0,0.0,0.0,0.0,0.0,0.0,0.0,0.0,0.0,0.0,0.0,0.0,0.0,-4.4668,-4.4668,-4.4668,-4.4668,-4.5637,-4.6342,-4.6473,-4.7388,-4.8068,-4.8172,-4.8172,-4.916,-5.1511,-5.2207,-5.3525,-5.5854,-5.6585,-5.7184,-5.7723,-5.7992,-5.8381,-5.8919,-6.0116,-6.0446,-5.9907,0.0,0.0,-6.1702,-6.1972,-6.2391,-6.2899,-6.3019,-6.3079,-6.3079,-6.3079,-6.3079,-6.3079,-6.3079,-6.3079,-6.3079,-6.3079,-6.3079,-6.3079,-6.3079,-6.3079,-6.3079,-6.3079,-6.3079,-6.3079,-6.3079,-6.3079,0.0,-6.3079,-6.3079,-6.3079,-6.3079,-6.3079,-6.3079,-6.3079,-6.2847,-6.2498,-6.2175,-6.185,-6.1494,-6.1253,-6.1193,-6.1193,-6.1193,-6.1193,-6.1193,-6.1193,-6.1193,-6.1193,-6.1193,-6.1193,-6.1193,-6.1193,-6.1193,-6.1193,-6.1193,-6.1193,-6.1073,-6.0802,-5.9431,-5.7961,-5.626,-5.5459,-5.435,-5.2929,-5.3179,-5.3179,-5.2929,-5.2929,-5.2929,-5.2929,-5.2929,-5.2929,0.0,0.0,0.0,0.0,0.0,0.0,0.0,0.0,0.0,0.0,0.0,-4.4064,-4.4613,0.0,-4.4668,-4.4668,-4.4668,-4.4826,-4.514,-4.5924,-4.6473,-4.6473,-4.7492,-4.8172,-4.8172,-4.8172,-4.9293,-5.2014,-5.2488,-5.3841,-5.6512,-5.7244,-5.7752,-5.8112,-5.877,-5.9428,-6.0116,-6.1104,-6.1433,-6.1104,-6.2121,-6.2421,-6.2121,-6.245,-6.278,-6.3079,-6.3079,-6.3079,-6.3079,-6.3079,-6.3079,-6.3079,-6.3079,-6.3079,-6.3079,-6.3079,-6.3079,-6.3079,-6.3079,-6.3079,-6.3079,-6.3079,-6.3079,-6.3079,-6.3079,-6.3079,-6.3139,-6.3438,-6.3528,-6.3617,-6.3947,-6.4066,-6.3978,-6.386,-6.3565,-6.3238,-6.2938,-6.2608,-6.2305,-6.2212,-6.2151,-6.2151,-6.2151,-6.2151,-6.1919,-6.1309,-6.1193,-6.1193,-6.1193,-6.1193,-6.1193,-6.1193,-6.1193,-6.1193,-6.1193,-6.1193,-6.0863,-6.0226,-5.8843,-5.7423,-5.609,-5.4686,-5.3657,-5.2929,-5.2929,-5.2929,-5.2929,-5.2929,-5.2929,-5.2929,-5.2929,-5.2929,0.0,0.0,0.0,0.0,0.0,0.0,0.0,-4.0384,-4.1672,-4.3543,-4.3955,-4.4094,-4.4613,-4.4668,-4.4668,-4.4668,-4.4826,-4.5007,-4.5558,-4.6212,-4.6656,-4.6656,-4.7545,-4.8172,-4.8172,-4.8303,-4.9591,-5.2463,-5.2938,-5.43,-5.7139,-5.7932,-5.8441,-5.868,-5.9727,-6.0685,-6.1493,-6.2151,-6.2421,-6.2301,-6.2959,-6.2899,-6.2301,-6.2839,-6.3079,-6.3079,-6.3079,-6.3139,-6.3258,-6.3258,-6.3318,-6.3468,-6.3468,-6.3468,-6.3438,-6.3318,-6.3348,-6.3468,-6.3468,-6.3468,-6.3468,-6.3468,-6.3468,-6.3468,-6.3468,-6.3468,-6.3588,-6.4216,-6.4395,-6.4545,-6.5233,-6.5353,-6.5233,-6.4962,-6.451,-6.4085,-6.384,-6.3444,-6.308,-6.308,-6.308,-6.308,-6.308,-6.308,-6.2732,-6.1716,-6.1571,-6.1571,-6.1571,-6.1571,-6.1571,-6.1571,-6.1571,-6.1571,-6.1571,-6.1571,-6.0966,-5.952,-5.8309,-5.6904,-5.5218,-5.3954,-5.3179,-5.2929,-5.2929,-5.2929,-5.2929,-5.2929,-5.2929,-5.2929,-5.2929,-5.2929,-3.5356,-3.5418,-3.5665,-3.6824,-3.7188,-3.7947,0.0,-4.1191,-4.1931,-4.3543,-4.4119,-4.4367,-4.4668,-4.4668,-4.4668,-4.4668,-4.5111,-4.5558,-4.5555,-4.6552,-4.7174,-4.7174,-4.7806,-4.8172,-4.8172,-4.8669,-5.0014,-5.2491,-5.367,-5.5362,-5.7832,-5.865,-5.9548,-6.0745,-6.0924,-6.1613,-6.2839,-6.3468,-6.3498,-6.2989,-6.3588,-6.3558,-6.2959,-6.3049,-6.3079,-6.3079,-6.3079,-6.3378,-6.3887,-6.3887,-6.4246,-6.4814,-6.4814,-6.4814,-6.4725,-6.4126,-6.4276,-6.4814,-6.4814,-6.4814,-6.4814,-6.4814,-6.4814,-6.4814,-6.4814,-6.4814,-6.4934,-6.5592,-6.5772,-6.5951,-6.661,-6.6544,-6.633,-6.6268,-6.5329,-6.4422,-6.4422,-6.3735,-6.308,-6.308,-6.308,-6.308,-6.308,-6.308,-6.3051,-6.2906,-6.2877,-6.2877,-6.2877,-6.2877,-6.2877,-6.2877,-6.2877,-6.2877,-6.2877,-6.2877,-6.2289,-6.0814,-6.0089,-5.8539,-5.5861,-5.5121,-5.4174,-5.2929,-5.2929,-5.2929,-5.2929,-5.2929,-5.2929,-5.2929,-5.2929,-5.2929,-3.5418,-3.5951,-3.6664,-3.7188,-3.8424,-3.9838,-4.1076,-4.1987,-4.2911,-4.3929,-4.4203,-4.4367,-4.4668,-4.4668,-4.4798,-4.5192,-4.5454,-4.5816,-4.6525,-4.6965,-4.7466,-4.778,-4.8355,-4.8695,-4.8695,-4.893,-5.0094,-5.2441,-5.3804,-5.5395,-5.7504,-5.9284,-6.0535,-6.1104,-6.1852,-6.269,-6.3588,-6.3857,-6.3857,-6.3617,-6.3887,-6.3677,-6.3079,-6.3079,-6.3258,-6.3617,-6.3617,-6.3977,-6.4605,-6.4605,-6.4755,-6.5024,-6.5024,-6.5263,-6.5533,-6.4844,-6.4784,-6.5024,-6.5024,-6.5024,-6.5024,-6.5024,-6.5293,-6.5592,-6.5592,-6.5862,-6.6311,-6.6969,-6.7148,-6.7147,-6.726,-6.7195,-6.6918,-6.6066,-6.5459,-6.5003,-6.4843,-6.4513,-6.4183,-6.4183,-6.4183,-6.4183,-6.4183,-6.4183,-6.4183,-6.4183,-6.3574,-6.308,-6.308,-6.308,-6.308,-6.308,-6.308,-6.308,-6.308,-6.308,-6.2832,-6.2211,-6.0374,-5.8844,-5.7585,-5.5777,-5.4308,-5.3381,-5.3381,-5.3231,-5.2929,-5.2929,-5.2929,-5.2929,-5.2929,-5.2929,-3.5418,-3.6359,-3.7347,-3.773,-3.951,-4.1272,-4.1874,-4.2824,-4.3683,-4.4203,-4.4367,-4.4528,-4.4903,-4.4929,-4.5166,-4.5767,-4.6003,-4.6338,-4.7148,-4.7466,-4.7728,-4.8146,-4.8721,-4.9139,-4.9296,-4.9453,-5.0412,-5.2442,-5.3902,-5.5623,-5.7624,-5.9865,-6.1373,-6.1882,-6.2839,-6.3647,-6.4276,-6.4096,-6.4006,-6.4006,-6.3827,-6.3498,-6.3079,-6.3258,-6.3677,-6.4276,-6.4276,-6.4665,-6.5293,-6.5293,-6.5413,-6.5562,-6.5562,-6.5862,-6.6221,-6.5742,-6.5562,-6.5562,-6.5562,-6.5562,-6.5592,-6.5772,-6.6161,-6.658,-6.6789,-6.7178,-6.7657,-6.8136,-6.8193,-6.8038,-6.7816,-6.7597,-6.7225,-6.6246,-6.5792,-6.5548,-6.5321,-6.5112,-6.4996,-6.4996,-6.4996,-6.4996,-6.4996,-6.4996,-6.4996,-6.4996,-6.4212,-6.3603,-6.3603,-6.3603,-6.3603,-6.3603,-6.3603,-6.3603,-6.3603,-6.3603,-6.3289,-6.2473,-6.0308,-5.8738,-5.7928,-5.5784,-5.4361,-5.3959,-5.3934,-5.3758,-5.3381,-5.3381,-5.3306,-5.313,-5.313,-5.3055,-3.5418,-3.6359,-3.761,-3.8803,-4.0152,-4.1501,-4.2992,-4.3653,-4.3955,-4.4258,-4.4531,-4.485,-4.5425,-4.5555,-4.5794,-4.6342,-4.6917,-4.7226,-4.7278,-4.7806,-4.8172,-4.8172,-4.8721,-4.9296,-4.9819,-5.0394,-5.1258,-5.2496,-5.4318,-5.6475,-5.9016,-6.0425,-6.1972,-6.3857,-6.3947,-6.4306,-6.4934,-6.4336,-6.4006,-6.3977,-6.3378,-6.3109,-6.3109,-6.3707,-6.4336,-6.4994,-6.4994,-6.5383,-6.5981,-6.5981,-6.634,-6.6939,-6.6939,-6.6939,-6.6969,-6.6939,-6.6939,-6.6939,-6.6939,-6.6939,-6.7029,-6.7687,-6.7897,-6.8046,-6.8704,-6.8914,-6.8944,-6.8974,-6.8754,-6.847,-6.847,-6.7959,-6.7412,-6.7318,-6.6591,-6.5896,-6.5896,-6.5431,-6.4996,-6.4996,-6.4996,-6.4996,-6.4996,-6.4996,-6.4996,-6.4996,-6.4967,-6.4938,-6.4938,-6.4938,-6.4938,-6.4938,-6.4938,-6.4938,-6.4938,-6.4938,-6.3692,-6.0838,-6.009,-5.8498,-5.5627,-5.4909,-5.4561,-5.4536,-5.4536,-5.4536,-5.4511,-5.4511,-5.4235,-5.3683,-5.3683,-5.3406,-3.642,-3.761,-3.8862,-4.0152,-4.1558,-4.2824,-4.3598,-4.3929,-4.4387,-4.5025,-4.5213,-4.5506,-4.6081,-4.6186,-4.6369,-4.6944,-4.7205,-4.7466,-4.7832,-4.8068,-4.8329,-4.8721,-4.927,-4.9845,-5.042,-5.0681,-5.1101,-5.1874,-5.4094,-5.5983,-5.7274,-6.0146,-6.2271,-6.3348,-6.3767,-6.4126,-6.4336,-6.3707,-6.3378,-6.3378,-6.3588,-6.3917,-6.4366,-6.4575,-6.5054,-6.5682,-6.5682,-6.6041,-6.667,-6.667,-6.6789,-6.6999,-6.6999,-6.7268,-6.7627,-6.7627,-6.7926,-6.8256,-6.7807,-6.7627,-6.7747,-6.8435,-6.8645,-6.8704,-6.8944,-6.9004,-6.894,-6.8721,-6.8593,-6.8284,-6.7423,-6.6985,-6.661,-6.5979,-6.5525,-6.5315,-6.5315,-6.5141,-6.4996,-6.4996,-6.4996,-6.4996,-6.4996,-6.4996,-6.4996,-6.4996,-6.4996,-6.4996,-6.4996,-6.4996,-6.4996,-6.4996,-6.4996,-6.4996,-6.4996,-6.4996,-6.4167,-6.2175,-6.0973,-5.9429,-5.7449,-5.6319,-5.5491,-5.5114,-5.5114,-5.4938,-5.4561,-5.4561,-5.4461,-5.4285,-5.4285,-5.4185,-3.6676,-3.8287,-3.9923,-4.0752,-4.2463,-4.4128,-4.4433,-4.4712,-4.5093,-4.579,-4.5924,-4.6107,-4.6682,-4.6787,-4.697,-4.7545,-4.7623,-4.778,-4.8146,-4.8381,-4.8643,-4.9035,-4.974,-5.0368,-5.076,-5.1152,-5.1465,-5.1596,-5.4183,-5.6145,-5.7049,-6.0501,-6.275,-6.3378,-6.3797,-6.3887,-6.3677,-6.3258,-6.3199,-6.3408,-6.4066,-6.4725,-6.5383,-6.5383,-6.5742,-6.637,-6.637,-6.6729,-6.7358,-6.7358,-6.7478,-6.7717,-6.7717,-6.7956,-6.8345,-6.8345,-6.8615,-6.8944,-6.8495,-6.8345,-6.8465,-6.9123,-6.9363,-6.9363,-6.9363,-6.9363,-6.918,-6.8355,-6.8046,-6.7707,-6.6486,-6.6055,-6.5839,-6.5147,-6.4996,-6.4996,-6.4996,-6.4996,-6.4996,-6.4996,-6.4996,-6.4996,-6.4996,-6.4996,-6.4996,-6.4996,-6.4996,-6.4996,-6.4996,-6.4996,-6.4996,-6.4996,-6.4996,-6.4996,-6.4996,-6.4996,-6.4361,-6.2906,-6.1436,-5.9931,-5.8489,-5.6968,-5.6043,-5.5691,-5.5691,-5.5516,-5.5139,-5.5139,-5.5039,-5.4863,-5.4863,-5.4762,-3.6331,-3.8463,-4.0747,-4.0869,-4.302,-4.5221,-4.5508,-4.585,-4.6134,-4.6469,-4.6525,-4.6708,-4.7283,-4.733,-4.7545,-4.8094,-4.8224,-4.8224,-4.8224,-4.8747,-4.9139,-4.9165,-5.0132,-5.0812,-5.0864,-5.1858,-5.2339,-5.1852,0.0,-5.6992,-5.8325,-6.138,-6.3318,-6.3917,-6.3947,-6.3677,-6.3079,-6.3109,-6.3468,-6.4096,-6.4755,-6.5413,-6.6071,-6.6071,-6.64,-6.6999,-6.7029,-6.7388,-6.7956,-6.8016,-6.8405,-6.9004,-6.9004,-6.9034,-6.9064,-6.9064,-6.9064,-6.9093,-6.9093,-6.9064,-6.9153,-6.9812,-7.0021,-6.9991,-6.9991,-6.9961,-6.9598,-6.7935,-6.7293,-6.6799,-6.5772,-6.528,-6.5025,-6.4996,-6.4996,-6.4996,-6.4996,-6.4996,-6.4996,-6.4996,-6.4996,-6.4996,-6.4996,-6.4996,-6.4996,-6.4996,-6.4996,-6.4996,-6.4996,-6.4996,-6.4996,-6.4996,-6.4996,-6.4996,-6.4996,-6.4996,-6.4361,-6.2773,-6.1369,-5.9931,-5.8347,-5.6968,-5.6219,-5.6219,-5.6219,-5.6219,-5.6219,-5.6219,-5.5942,-5.544,-5.544,-5.5139,-3.8989,-4.0105,-4.1173,-4.3138,-4.4535,-4.5508,-4.5565,-4.6021,-4.6547,-4.6965,-4.7127,-4.7283,-4.7858,-4.7963,-4.8015,-4.8146,-4.8564,-4.8852,-4.8852,-4.9348,-4.9845,-5.0315,-5.0603,-5.1126,-5.1962,-5.2328,-5.3034,-5.4253,-5.5994,-5.7803,-5.9618,-6.1377,-6.263,-6.3288,-6.3318,-6.3228,-6.3079,-6.3528,-6.4336,-6.5503,-6.5682,-6.6101,-6.6759,-6.6759,-6.6819,-6.7029,-6.7508,-6.7807,-6.8016,-6.8525,-6.8854,-6.9004,-6.9004,-6.9303,-6.9722,-6.9692,-6.9991,-7.041,-7.041,-7.0111,-6.9842,-7.047,-7.035,-6.9991,-6.9991,-6.9441,-6.8708,-6.7969,-6.7559,-6.709,-6.6061,-6.5757,-6.5577,-6.5112,-6.4996,-6.4996,-6.4996,-6.4996,-6.4996,-6.4996,-6.4996,-6.4996,-6.4996,-6.4996,-6.4996,-6.4996,-6.4996,-6.4996,-6.4996,-6.4996,-6.4996,-6.4996,-6.4996,-6.4996,-6.4996,-6.4996,-6.3879,-6.1301,-6.0825,-5.9445,-5.6895,-5.6412,-5.6219,-5.6219,-5.6219,-5.6219,-5.6219,-5.6219,-5.6143,-5.6018,-5.6018,-5.5917,-3.9623,-4.0757,-4.1847,-4.3928,-4.538,-4.6283,-4.6283,-4.6803,-4.731,-4.7649,-4.7702,-4.7806,-4.812,-4.8172,-4.8277,-4.8538,-4.8852,-4.9165,-4.9401,-4.9923,-5.042,-5.076,-5.123,-5.1779,-5.2433,-5.2955,-5.4156,-5.6376,-5.7205,-5.8377,-6.0149,-6.1669,-6.269,-6.3079,-6.3079,-6.3199,-6.3468,-6.4425,-6.5263,-6.6011,-6.6311,-6.664,-6.6999,-6.7298,-6.7418,-6.7448,0.0,-6.8585,-6.8884,-6.9273,-6.9602,-6.9842,-6.9842,-7.0051,-7.038,-7.035,-7.059,-7.0889,-7.0889,-7.0679,-7.044,-7.0799,-7.0679,-7.032,-7.0051,-6.9436,-6.8694,-6.8077,-6.7695,-6.7217,-6.6513,-6.636,-6.6186,-6.5548,-6.5606,-6.5751,-6.546,-6.5402,-6.5315,-6.5025,-6.4996,-6.4996,-6.4996,-6.4996,-6.4996,-6.4996,-6.4996,-6.4996,-6.4996,-6.4996,-6.4996,-6.4996,-6.4996,-6.4996,-6.4996,-6.4425,-6.3328,-6.1706,-6.0345,-5.8912,-5.7256,-5.6558,-5.6219,-5.6219,-5.6219,-5.6219,-5.6219,-5.6219,-5.6219,-5.6219,-5.6219,-5.6219,-3.9686,-4.1248,-4.2769,-4.4251,-4.5924,-4.7205,-4.7205,-4.7703,-4.8172,-4.8172,-4.8172,-4.8198,-4.8277,-4.8303,-4.8486,-4.9087,-4.9244,-4.9479,-4.9949,-5.0524,-5.0917,-5.1021,-5.1884,-5.2563,-5.272,-5.3803,-5.5521,-5.8155,-5.8461,-5.9191,-6.053,-6.22,-6.3109,-6.3199,-6.3199,-6.3558,-6.4246,-6.5413,-6.6041,-6.6131,-6.6729,-6.7029,-6.7148,-6.7717,-6.8016,-6.8136,-6.8824,0.0,-6.9991,-7.0081,-7.041,-7.0889,-7.0889,-7.0889,-7.0889,-7.0889,-7.0889,-7.0889,-7.0889,-7.0889,-7.0889,-7.0889,-7.0889,-7.0799,-7.0166,-6.9729,-6.9287,-6.8366,-6.7865,-6.7502,-6.721,-6.7144,-6.6999,-6.6447,-6.6738,-6.697,-6.6331,-6.6128,-6.5896,-6.5344,-6.517,-6.5112,-6.5112,-6.5025,-6.4996,-6.4996,-6.4996,-6.4996,-6.4996,-6.4996,-6.4996,-6.4996,-6.4996,-6.4996,-6.4996,-6.3684,-6.2707,-6.2508,-5.9904,-5.8276,-5.8134,-5.6895,-5.6219,-5.6219,-5.6219,-5.6219,-5.6219,-5.6219,-5.6219,-5.6219,-5.6219,-5.6219,-4.2778,-4.3683,-4.4251,-4.5611,-4.6576,-4.7205,-4.7205,-4.7703,-4.8172,-4.8172,-4.8172,-4.8329,-4.8826,-4.893,-4.9113,-4.9662,-5.0159,-5.0524,-5.0629,-5.1126,-5.1648,-5.2145,-5.238,-5.2877,-5.3818,-5.5066,-5.674,-5.8806,-5.9969,-6.1171,-6.2523,-6.2961,-6.3318,-6.3827,-6.3827,-6.4425,-6.5652,-6.5892,-6.6281,-6.6819,-6.6939,-6.7268,-6.7807,-6.7926,-6.8286,-6.8854,-6.9512,0.0,-7.0021,-7.053,-7.0799,-7.0889,-7.0889,-7.0889,-7.0889,-7.0889,-7.0889,-7.0889,-7.0889,-7.0889,-7.0889,-7.0889,-7.0889,-7.0824,-7.0444,-7.0088,-6.9729,-6.9177,-6.8815,-6.8547,-6.8479,-6.8479,-6.845,-6.8334,-6.8421,-6.8305,-6.7667,-6.7115,-6.668,-6.6564,-6.6128,-6.5751,-6.5751,-6.5344,-6.4996,-6.4996,-6.4996,-6.4996,-6.4996,-6.4996,-6.4996,-6.4996,-6.4996,-6.4996,-6.4996,-6.3684,-6.2309,-6.1029,-5.9375,-5.7876,-5.6631,-5.634,-5.6219,-5.6219,-5.6219,-5.6219,-5.6219,-5.6219,-5.6219,-5.6219,-5.6219,-5.6219,-4.3731,-4.4312,-4.462,-4.5999,-4.6661,-4.713,-4.753,-4.8025,-4.8544,-4.9008,-4.9061,-4.9165,-4.9453,-4.9505,-4.9688,-5.0263,-5.0603,-5.0995,-5.1596,-5.191,-5.2276,-5.2903,-5.3217,-5.3906,-5.5119,-5.6084,-5.763,-5.999,-6.0716,-6.1703,-6.3021,-6.3378,-6.3677,-6.3977,-6.4695,-6.5353,-6.6011,-6.634,-6.667,-6.6999,-6.6999,-6.7328,-6.7986,-6.8345,-6.8884,-6.9542,-7.0171,0.0,-7.05,-7.0769,-7.0889,-7.0889,-7.0889,-7.0889,-7.0889,-7.0889,-7.0889,-7.0889,-7.0889,-7.0889,-7.0889,-7.0889,-7.0889,-7.0854,-7.0528,-7.02,-6.9862,-6.9814,-6.9593,-6.9408,-6.9728,-6.9815,-6.9728,-6.9408,-6.9321,-6.9147,-6.8509,-6.8131,-6.7696,-6.6999,-6.6622,-6.6331,-6.5983,-6.5693,-6.5373,-6.5025,-6.4996,-6.4996,-6.4996,-6.4996,-6.4996,-6.4996,-6.4996,-6.4996,-6.4996,-6.3684,-6.2175,-6.0688,-5.9236,-5.7733,-5.6292,-5.6219,-5.6219,-5.6219,-5.6219,-5.6219,-5.6219,-5.6219,-5.6219,-5.6219,-5.6219,-5.6219,-4.4519,-4.4938,-4.527,-4.6359,-4.6955,-4.7443,-4.8119,-4.8524,-4.9014,-4.9732,-4.9897,-4.9923,-5.0054,-5.008,-5.0315,-5.1047,-5.1152,-5.1518,-5.2537,-5.2694,-5.2903,-5.3504,-5.4183,-5.5096,-5.6269,-5.7368,-5.8843,-6.0957,-6.1462,-6.2145,-6.32,-6.3737,-6.4126,-6.4425,-6.5443,-6.6071,-6.6221,-6.6729,-6.6999,-6.6999,-6.7148,-6.7537,-6.8226,-6.8884,-6.9572,-7.0201,-7.0679,0.0,0.0,-7.0889,-7.0889,-7.0889,-7.0889,-7.0889,-7.0889,-7.0889,-7.0889,-7.0889,-7.0889,-7.0889,-7.0889,-7.0889,-7.0854,-7.0694,-7.0397,-7.0068,-6.9817,-7.0127,-6.9962,-6.996,-7.0715,-7.0918,-7.0831,-7.0482,-7.0279,-7.0018,-6.9379,-6.9118,-6.8683,-6.7522,-6.7173,-6.6941,-6.6447,-6.6128,-6.5751,-6.5257,-6.5083,-6.4996,-6.4996,-6.4996,-6.4996,-6.4996,-6.4996,-6.4996,-6.4996,-6.3328,-6.184,-6.0688,-5.8912,-5.7374,-5.6292,-5.6219,-5.6219,-5.6219,-5.6219,-5.6219,-5.6219,-5.6219,-5.6219,-5.6219,-5.6219,-5.6219,-4.6327,-4.709,-4.7374,-4.7693,-4.819,-4.8733,-4.8846,-4.909,-4.9421,-4.9837,-4.9897,-5.0054,-5.0603,-5.0707,-5.1073,-5.2171,-5.2328,-5.2563,-5.3217,-5.3321,-5.3504,-5.4053,-5.5275,-5.6259,-5.6956,-5.9251,-6.0837,-6.1077,-6.2736,-6.38,-6.3917,-6.3977,-6.4545,-6.5772,-6.5951,-6.6281,-6.6879,-6.6969,-6.6999,-6.6999,-6.7597,-6.8256,-6.8944,-6.9602,-7.0231,-7.0829,-7.0889,-7.0889,0.0,-7.0889,-7.0889,-7.0889,-7.0889,-7.0889,-7.0889,-7.0889,-7.0889,-7.0889,-7.0889,-7.0889,-7.0889,-7.0889,-7.0724,-7.0397,-7.0068,-6.967,-6.9416,-6.9719,-6.9854,-7.0047,-7.1266,-7.1586,-7.1702,-7.2224,-7.1905,-7.1324,-7.0686,-7.0076,-6.9466,-6.8799,-6.8189,-6.7783,-6.7725,-6.6709,-6.5896,-6.5867,-6.5344,-6.4996,-6.4996,-6.4996,-6.4996,-6.4996,-6.4996,-6.4996,-6.4996,-6.2403,-6.0756,-6.062,-5.7947,-5.634,-5.6219,-5.6219,-5.6219,-5.6219,-5.6219,-5.6219,-5.6219,-5.6219,-5.6219,-5.6219,-5.6219,-5.6219,-4.7407,-4.7643,-4.7817,-4.7857,-4.8306,-4.8778,-4.9296,-4.9683,-5.0156,-5.0777,-5.0917,-5.11,-5.1701,-5.1805,-5.2093,-5.2903,-5.3034,-5.3538,-5.4901,-5.5109,-5.5616,-5.7013,-5.7638,-5.8376,-5.9436,-6.0474,-6.1611,-6.2736,-6.3921,-6.4784,-6.5203,-6.5203,-6.5443,-6.5981,-6.64,-6.6729,-6.6999,-6.6999,-6.7178,-6.7597,-6.7837,-6.8555,-6.9602,-6.9842,-7.029,-7.0889,-7.0889,-7.0889,0.0,-7.0889,-7.0889,-7.0889,-7.0889,-7.0889,-7.0889,-7.0889,-7.0889,-7.0889,-7.0889,-7.0889,-7.0854,-7.0629,-7.0397,-7.0068,-6.9936,-6.9604,-6.9436,-7.0116,-7.0337,-7.0628,-7.1905,-7.2224,-7.2311,-7.2544,-7.2137,-7.1498,-7.086,-7.0221,-6.9583,-6.8944,-6.8625,-6.8334,-6.7957,-6.7115,-6.636,-6.5983,-6.5402,-6.4996,-6.4996,-6.4996,-6.4996,-6.4996,-6.4232,-6.3684,-6.3684,-6.1773,-6.0208,-5.9306,-5.8134,-5.7112,-5.6219,-5.6219,-5.6219,-5.6219,-5.6219,-5.6219,-5.6219,-5.6219,-5.6219,-5.6219,-5.6219,-5.6219,-4.8259,-4.8284,-4.8334,-4.8485,-4.8874,-4.9288,-4.9922,-5.0338,-5.0753,-5.1455,-5.1727,-5.1988,-5.2406,-5.2642,-5.2955,-5.353,-5.3997,-5.4735,-5.6296,-5.6795,-5.7563,-5.8946,-5.9436,-6.0137,-6.1278,-6.1903,-6.2912,-6.4486,-6.5054,-6.5592,-6.6251,-6.6311,-6.6311,-6.6311,-6.6759,-6.6999,-6.6999,-6.7178,-6.7508,-6.7956,-6.8375,-6.9064,-6.9961,-7.0141,-7.047,-7.0889,-7.0889,-7.0889,0.0,-7.0889,-7.0889,-7.0889,-7.0889,-7.0889,-7.0889,-7.0889,-7.0889,-7.0889,-7.0889,-7.0889,-7.0824,-7.0528,-7.02,-6.9869,-6.9737,-6.947,-6.936,-7.0435,-7.0976,-7.1498,-7.2369,-7.2602,-7.2573,-7.2398,-7.1992,-7.144,-7.0628,-7.0105,-6.9583,-6.8944,-6.8828,-6.8683,-6.8247,-6.7463,-6.6738,-6.6273,-6.5519,-6.4996,-6.4996,-6.4996,-6.4996,-6.4996,-6.3263,-6.2309,-6.2773,-6.1029,-5.9515,-5.8489,-5.8018,-5.7256,-5.6219,-5.6219,-5.6219,-5.6219,-5.6219,-5.6219,-5.6219,-5.6219,-5.6219,-5.6219,-5.6219,-5.6219,-4.9052,-4.9292,-4.9419,-4.9952,-5.0334,-5.0588,-5.0588,-5.0842,-5.1183,-5.1534,-5.2067,-5.2485,-5.2485,-5.2981,-5.3556,-5.4105,-5.5301,-5.6359,-5.6984,-5.825,-5.9064,-5.9127,-6.0262,-6.1309,-6.1919,-6.3771,-6.5203,-6.5951,-6.6011,0.0,-6.6939,-6.6969,-6.6969,-6.6969,-6.6999,-6.6999,-6.6999,-6.7627,-6.7956,-6.8048,-6.9333,-6.9961,-6.9931,-7.059,-7.0889,-7.0889,-7.0889,-7.0889,0.0,-7.0889,-7.0889,-7.0889,-7.0889,-7.0889,-7.0889,-7.0889,-7.0889,-7.0889,-7.0889,-7.0889,-7.0824,-7.0528,-7.02,-6.9803,-6.9404,-6.9068,-6.9089,-7.0366,-7.1615,-7.2602,-7.2602,-7.2602,-7.2456,-7.1818,-7.1673,-7.1324,-7.0047,-6.9786,-6.9583,-6.8944,-6.8828,-6.8828,-6.8828,-6.7754,-6.6883,-6.6883,-6.5809,-6.4996,-6.4996,-6.4996,-6.4996,-6.4996,-6.2403,-6.1233,-6.2707,-6.0112,-5.8418,-5.8418,-5.704,-5.6219,-5.6219,-5.6219,-5.6219,-5.6219,-5.6219,-5.6219,-5.6219,-5.6219,-5.6219,-5.6219,-5.6219,-5.6219,-4.9736,-5.0041,-5.0257,-5.0372,-5.0677,-5.0931,-5.0931,-5.1557,-5.2097,-5.2223,-5.2694,-5.3538,-5.4788,-5.5156,-5.577,-5.7295,-5.791,-5.8591,-5.9683,-6.0202,-6.0837,-6.1703,-6.2559,-6.3328,-6.401,-6.5053,-6.5772,-6.5981,-6.643,-6.6759,-6.6969,-6.6999,-6.6999,-6.6999,-6.6999,-6.7208,-6.7657,-6.7867,-6.8435,-6.9363,-6.9782,-7.0201,-7.059,-7.0799,-7.0889,-7.0889,-7.0889,0.0,0.0,-7.0889,-7.0889,-7.0889,-7.0889,-7.0889,-7.0889,-7.0889,-7.0889,-7.0889,-7.0889,-7.0789,-7.0528,-7.02,-6.9077,-6.7781,-6.7039,-6.7004,-6.7254,-6.7396,-6.7818,-6.828,-6.8623,-6.9236,-6.9692,-6.9494,-6.993,-7.0279,-6.9873,-6.9437,-6.906,-6.8857,-6.8828,-6.8828,-6.8828,-6.7754,-6.6883,-6.6883,-6.5809,-6.4996,-6.4996,-6.4102,-6.3459,-6.3459,-6.0866,-5.9723,-6.1165,-5.863,-5.6895,-5.6895,-5.6485,-5.6219,-5.6219,-5.6219,-5.6219,-5.6219,-5.6219,-5.6219,-5.6219,-5.6219,-5.6219,-5.6219,-5.6219,-5.6219,-5.0295,-5.0423,-5.0588,-5.0778,-5.1149,-5.1431,-5.1431,-5.2152,-5.2952,-5.3472,-5.4012,-5.4965,-5.6656,-5.7154,-5.7681,-5.8884,-5.9498,-6.0141,-6.0957,-6.1524,-6.2234,-6.332,-6.4216,-6.4934,-6.5353,-6.5981,-6.637,-6.637,-6.6759,-6.7089,-6.7358,-6.7358,-6.7478,-6.7747,-6.7508,-6.7687,-6.8345,-6.8615,-6.9153,-6.9991,-7.0231,-7.053,-7.0889,-7.0889,-7.0889,-7.0889,-7.0889,0.0,0.0,-7.0889,-7.0889,-7.0889,-7.0889,-7.0889,-7.0889,-7.0889,-7.0889,-7.0824,-7.0272,-6.97,-6.9097,-6.8133,-6.6708,-6.5112,-6.3981,-6.4425,-6.5301,-6.5109,-6.5434,-6.5869,-6.6176,-6.7331,-6.8353,-6.81,-6.8949,-6.9699,-6.9466,-6.9118,-6.8828,-6.8828,-6.8828,-6.8741,-6.8509,-6.758,-6.6796,-6.6564,-6.5153,-6.4167,-6.4167,-6.2868,-6.1975,-6.1975,-5.9862,-5.8771,-5.9654,-5.759,-5.6219,-5.6219,-5.6219,-5.6219,-5.6219,-5.6219,-5.6219,-5.6219,-5.6219,-5.6219,-5.6219,-5.6219,-5.6219,-5.6219,-5.6219,-5.6219,0.0,-5.0729,-5.0792,-5.1109,-5.1675,-5.209,-5.2218,-5.2943,0.0,-5.523,-5.5978,-5.6828,-5.816,-5.8856,-5.9251,-5.9375,-6.0445,-6.1226,-6.1284,-6.244,-6.3438,-6.4066,-6.5263,-6.6011,-6.6071,-6.667,-6.7059,-6.7059,-6.7119,-6.7388,-6.8016,-6.8046,-6.8375,-6.9064,-6.8435,-6.8435,-6.9064,-6.9662,-6.9991,-7.0051,-7.062,-7.0889,-7.0889,-7.0889,-7.0889,0.0,0.0,0.0,0.0,-7.0889,-7.0889,-7.0889,-7.0889,-7.0889,-7.0889,-7.0699,-7.0699,-7.0474,-6.8969,-6.7796,-6.6739,-6.4819,-6.3285,-6.1976,-6.0401,-6.1521,-6.3296,-6.3323,-6.3993,-6.4834,-6.5108,-6.6612,-6.79,-6.741,-6.8548,-6.9554,-6.8944,-6.8828,-6.8828,-6.8828,-6.8799,-6.8567,-6.7986,-6.7289,-6.6622,-6.5882,-6.4082,-6.2773,-6.2641,-6.1369,-6.0414,-6.0414,-5.9096,-5.8205,-5.8205,-5.6968,-5.6219,-5.6219,-5.6219,-5.6219,-5.6219,-5.6219,-5.6219,-5.6219,-5.6219,-5.6219,-5.6219,-5.6219,-5.6219,-5.6219,-5.6219,-5.6219,-5.119,0.0,-5.2085,-5.2175,-5.2618,-5.3357,0.0,-5.5041,-5.5916,-5.7265,-5.7986,-5.884,-6.0183,-6.054,-6.0957,-6.1998,-6.2438,-6.2792,-6.3267,-6.4039,-6.4814,-6.5473,-6.5832,-6.6191,-6.67,-6.7358,-6.7747,-6.7747,-6.8226,-6.8585,-6.8764,-6.8764,-6.9064,-6.9722,-6.9602,-6.9602,-6.9752,-6.9901,-7.0231,-7.0679,-7.0829,-7.0889,-7.0889,-7.0889,-7.0889,-7.0889,0.0,0.0,-7.0889,-7.0889,-7.0889,-7.0889,-7.0889,-7.0889,-7.0699,-6.9089,-6.8488,-6.8231,-6.6307,-6.5142,-6.411,-6.1934,-6.0702,-5.9823,-5.8207,-5.9226,-6.106,-6.1436,-6.0579,-6.0208,-6.2928,-6.4082,-6.4736,-6.5726,-6.7507,-6.9002,-6.8857,-6.8828,-6.8828,-6.8828,-6.845,-6.8073,-6.7899,-6.6912,-6.5708,-6.4453,-6.3461,-6.2375,-6.1233,-5.9862,-5.8912,-5.8912,-5.759,-5.6703,-5.6703,-5.6412,-5.6219,-5.6219,-5.6219,-5.6219,-5.6219,-5.6219,-5.6219,-5.6219,-5.6219,-5.6219,-5.6219,-5.6219,-5.6219,-5.6219,-5.6219,-5.6219,-5.1804,-5.2233,-5.2684,-5.2839,-5.3836,-5.4847,-5.5555,-5.662,-5.7938,-5.9261,-5.979,-6.0445,-6.1762,-6.2028,-6.2263,-6.3021,-6.3318,-6.3737,-6.4366,-6.5054,-6.5592,-6.5981,-6.655,-6.7059,-6.7418,-6.8046,-6.8435,-6.8435,-6.8794,-6.9123,-6.9423,-6.9453,-6.9752,-7.038,-7.041,-7.041,-7.041,-7.041,-7.056,-7.0889,-7.0889,-7.0889,-7.0889,-7.0889,-7.0889,-7.0889,0.0,0.0,-7.0889,-7.059,-7.047,-7.0376,-6.937,-6.9057,-6.8802,-6.7007,-6.6395,-6.6069,-6.4096,-6.2334,-6.0633,-5.917,-5.8551,-5.8199,-5.7547,-5.8019,-5.8756,-5.8734,-5.8169,-5.7923,-5.9851,-6.1612,-6.3085,-6.3929,-6.6032,-6.7928,-6.7928,-6.7928,-6.7928,-6.7928,-6.7104,-6.6356,-6.607,-6.4879,-6.3549,-6.2462,-6.1425,-6.0455,-5.9723,-5.8276,-5.7374,-5.7374,-5.6703,-5.6219,-5.6219,-5.6219,-5.6219,-5.6219,-5.6219,-5.6219,-5.6219,-5.6219,-5.6219,-5.6219,-5.6219,-5.6219,-5.6219,-5.6219,-5.6219,-5.6219,-5.6219,-5.6219,-5.2236,-5.2616,-5.2996,-5.3335,-5.4649,-5.5959,-5.6532,-5.7862,-5.9436,-6.1077,-6.1405,-6.1762,-6.2875,-6.3169,-6.3228,-6.3228,-6.3827,-6.4515,-6.5084,-6.5742,-6.6191,-6.6281,-6.7298,0.0,-6.8106,-6.8734,-6.9153,-6.9153,-6.9243,-6.9542,-7.0081,-7.0111,-7.035,-7.0889,-7.0889,-7.0889,-7.0889,-7.0889,-7.0889,-7.0889,-7.0889,-7.0889,-7.0889,-7.0889,-7.0859,-7.0769,0.0,0.0,-7.056,-7.0051,-6.9684,-6.9337,-6.7552,-6.6635,-6.6277,-6.4759,-6.4255,-6.3982,-6.1955,-5.962,-5.7613,-5.717,-5.7097,-5.7248,-5.775,-5.7549,-5.7072,-5.6595,-5.6671,-5.6971,-5.7387,-5.9712,-6.1966,-6.2248,-6.4299,-6.626,-6.626,-6.626,-6.626,-6.626,-6.5114,-6.4075,-6.3544,-6.233,-6.1189,-6.0357,-5.9166,-5.8347,-5.8063,-5.6968,-5.6219,-5.6219,-5.6219,-5.6219,-5.6219,-5.6219,-5.6219,-5.6219,-5.6219,-5.6219,-5.6219,-5.6219,-5.6219,-5.6219,-5.6219,-5.6219,-5.6219,-5.6219,-5.6219,-5.6219,-5.6219,-5.6219,-5.2488,-5.2979,-5.3436,-5.3616,-5.3967,-5.5062,-5.7985,-5.8606,-5.9408,-6.2204,-6.2759,-6.2847,-6.3079,-6.3498,-6.3857,-6.3857,-6.4904,-6.5742,-6.5832,-6.643,-6.7059,-6.7597,0.0,-6.8196,-6.8794,-6.9453,-6.9842,-6.9842,-7.032,-7.0649,-7.0769,-7.0769,-7.0799,-7.0889,-7.0889,-7.0889,-7.0889,-7.0889,-7.0889,-7.0889,-7.0889,-7.0889,-7.0889,-7.0889,-7.062,-7.0111,0.0,-6.9812,-6.9273,-6.9183,-6.8393,-6.7269,-6.6956,-6.6107,-6.4815,-6.2784,-6.2067,-6.1708,-5.9031,-5.7866,-5.7565,-5.7096,-5.7374,-5.7775,-5.7876,-5.7851,-5.775,-5.765,-5.7022,-5.6877,-5.9368,-5.9934,-6.0172,-6.1442,-6.245,-6.3154,-6.3154,-6.3154,-6.3154,-6.3154,-6.2603,-6.204,-6.1931,-6.1288,-6.0315,-5.8912,-5.856,-5.7947,-5.6703,-5.634,-5.6219,-5.6219,-5.6219,-5.6219,-5.6219,-5.6219,-5.6219,-5.6219,-5.6219,-5.6219,-5.6219,-5.6219,-5.6219,-5.6219,-5.6219,-5.6219,-5.6219,-5.6219,-5.6219,-5.6219,-5.6219,-5.6219,-5.2732,-5.2934,-5.3222,-5.3487,-5.4371,-5.5499,-5.7075,-5.7815,-5.8884,-6.1198,-6.1703,-6.2057,0.0,0.0,-6.4246,-6.4964,-6.5592,-6.6251,-6.6969,-6.7328,-6.7777,-6.8435,0.0,-6.9183,-6.9512,-7.0111,-7.047,-7.047,-7.0739,-7.0889,-7.0889,-7.0889,-7.0889,-7.0889,-7.0889,-7.0889,-7.0889,-7.0889,-7.0889,-7.0889,-7.056,-7.041,-7.038,-7.0051,-6.9722,-6.9453,0.0,-6.9273,-6.8911,-6.7796,-6.695,-6.6085,-6.4197,-6.305,-6.2234,-6.0301,-5.9475,-5.9147,-5.7934,-5.741,-5.7345,-5.775,-5.8127,-5.8403,-5.8679,-5.8554,-5.8353,-5.8353,-5.7524,-5.694,-5.8316,-5.8791,-5.9024,-5.9704,-6.1286,-6.2671,-6.2671,-6.2671,-6.2671,-6.2671,-6.1147,-5.9844,-5.9844,-5.8929,-5.8018,-5.7328,-5.7256,-5.6968,-5.6292,-5.6219,-5.6219,-5.6219,-5.6219,-5.6219,-5.6219,-5.6219,-5.6219,-5.6219,-5.6219,-5.6219,-5.6219,-5.6219,-5.6219,-5.6219,-5.6219,-5.6219,-5.6219,-5.6219,-5.6219,-5.6194,-5.5917,-5.5622,-5.2929,-5.2929,-5.2998,-5.3273,-5.435,-5.5406,-5.5906,-5.6726,-5.7906,-5.9735,-6.0071,-6.0851,0.0,-6.4099,0.0,-6.6041,-6.637,-6.6819,-6.7837,-6.8106,-6.8465,-6.9153,-6.9662,-7.0051,-7.0201,-7.062,-7.0889,-7.0889,0.0,0.0,-7.0889,-7.0889,-7.0889,-7.0889,-7.0889,-7.0889,-7.0889,-7.0889,-7.0829,-7.0679,-7.0201,-6.9901,-6.9722,-6.9243,-6.8914,-6.8764,-6.8764,-6.8675,-6.834,-6.6481,-6.5477,-6.49,-6.1804,-6.0345,-5.982,-5.84,-5.7744,-5.7491,-5.756,-5.752,-5.7575,-5.8453,-5.8805,-5.8981,-5.9382,-5.9207,-5.8905,-5.8905,-5.8404,-5.7769,-5.7172,-5.7768,-5.8575,-5.8444,-6.0387,-6.2309,-6.2309,-6.2309,-6.2309,-6.2309,-6.0181,-5.8418,-5.8418,-5.7184,-5.6219,-5.6219,-5.6219,-5.6219,-5.6219,-5.6219,-5.6219,-5.6219,-5.6219,-5.6219,-5.6219,-5.6219,-5.6219,-5.6219,-5.6219,-5.6219,-5.6219,-5.6219,-5.6219,-5.6219,-5.6219,-5.6219,-5.6219,-5.6068,-5.6018,-5.6018,-5.544,-5.4974,-5.2929,-5.2929,-5.2929,-5.2929,-5.3067,-5.3632,-5.5538,-5.5775,-5.6209,-5.8466,-5.8898,-5.9667,-6.1958,-6.4325,-6.6101,-6.6819,-6.7418,-6.7867,-6.7956,0.0,-6.9183,-6.9842,-6.9961,-7.0201,-7.0769,0.0,0.0,0.0,0.0,0.0,-7.0889,-7.0889,-7.0889,-7.0889,-7.0889,-7.0889,-7.0889,-7.0889,-7.062,-7.0051,-6.9991,-6.9662,-6.9064,-6.9034,-6.8645,-6.8046,-6.8046,-6.7687,-6.7057,-6.5567,-6.4232,-6.283,-6.1233,-5.9542,-5.807,-5.7927,-5.7759,-5.7588,-5.7613,-5.8025,-5.8604,-5.8704,-5.9056,-5.9433,-5.9483,-5.9458,-5.9433,-5.9433,-6.0022,-6.0098,-5.7645,-5.805,-5.9,-5.8549,-5.9584,-6.0756,-6.0756,-6.0756,-6.0756,-6.0756,-5.9445,-5.8418,-5.8418,-5.7184,-5.6219,-5.6219,-5.6219,-5.6219,-5.6219,-5.6219,-5.6219,-5.6219,-5.6219,-5.6219,-5.6219,-5.6219,-5.6219,-5.6219,-5.6219,-5.6219,-5.6219,-5.6219,-5.6219,-5.6219,-5.6219,-5.6219,-5.6219,-5.5691,-5.544,-5.544,-5.4888,-5.4398,-5.2929,-5.2929,-5.2929,-5.2929,-5.3181,-5.3514,-5.3954,-5.4202,-5.5138,-5.8048,-5.8336,-5.9166,-6.2647,-6.5447,-6.7298,-6.7567,-6.8166,-6.8764,-6.9153,-6.9453,-6.9842,-7.047,-7.056,-7.0649,0.0,0.0,0.0,0.0,0.0,0.0,-7.0889,-7.0889,-7.0889,-7.0889,-7.0889,-7.0889,-7.0889,-7.0889,-7.059,-6.9961,-6.9572,-6.9243,-6.8974,-6.8136,-6.7597,-6.7358,-6.6428,-6.5903,-6.5543,-6.3206,-6.188,-6.1233,-5.9611,-5.847,-5.7856,-5.7354,-5.7375,-5.7615,-5.7747,-5.8152,-5.878,-5.9106,-5.9332,-5.9483,-5.9483,-5.9483,-5.9714,-6.066,-6.116,-6.1092,-5.9385,-5.983,-6.0515,-5.9927,-6.0893,-6.1975,-6.1975,-6.1975,-6.1706,-6.0756,-5.9375,-5.8063,-5.7184,-5.6558,-5.6219,-5.6219,-5.6219,-5.6219,-5.6219,-5.6219,-5.6219,-5.6219,-5.6219,-5.6219,-5.6219,-5.6219,-5.6219,-5.6219,-5.6219,-5.6219,-5.6219,-5.6219,-5.6219,-5.6219,-5.5867,-5.5691,-5.5691,-5.5139,-5.4888,-5.4863,-5.4285,-5.3753,-5.2929,-5.2929,-5.298,-5.313,-5.3432,-5.3658,-5.3482,-5.3708,-5.4683,-5.7047,-5.8268,-5.9736,-6.2268,-6.5611,-6.7892,0.0,-6.8572,-6.9482,0.0,0.0,0.0,0.0,0.0,0.0,0.0,0.0,0.0,0.0,0.0,0.0,0.0,-7.0889,-7.0889,-7.0889,-7.0889,-7.0889,-7.0889,-7.0889,-7.0679,-7.026,-6.8916,-6.8593,-6.8974,-6.7341,-6.6648,-6.6556,-6.4967,-6.421,-6.4016,-6.1639,-6.0276,-5.9611,-5.8258,-5.7641,-5.7498,-5.7019,-5.7083,-5.7468,-5.7574,-5.8102,-5.878,-5.9131,-5.9717,-6.0227,-6.0227,-6.0584,-6.1165,-6.2264,-6.2931,-6.3058,-6.2068,-6.215,-6.2412,-6.174,-6.261,-6.3459,-6.3459,-6.3131,-6.2508,-6.1504,-5.9723,-5.8089,-5.704,-5.6485,-5.6219,-5.6219,-5.6219,-5.6219,-5.6219,-5.6219,-5.6219,-5.6219,-5.6219,-5.6219,-5.6219,-5.6219,-5.6143,-5.5968,-5.5942,-5.6018,-5.6194,-5.6043,-5.5942,-5.5942,-5.5415,-5.5139,-5.5139,-5.4561,-5.4285,-5.4285,-5.3708,-5.3039,-5.2929,-5.2929,-5.3055,-5.3582,-5.3708,-5.3858,-5.4436,-5.4587,-5.4737,-5.529,-5.8716,-6.1315,-6.0472,-6.451,-6.7727,-6.6876,-6.8584,-6.9991,0.0,0.0,0.0,0.0,0.0,0.0,0.0,0.0,0.0,0.0,0.0,0.0,0.0,-7.0889,-7.0889,-7.0889,-7.0889,-7.0889,-7.0889,-7.0889,-7.0889,-7.0824,-6.8063,-6.7542,-6.8911,-6.6803,-6.5873,-6.5715,-6.3715,-6.2773,-6.2641,-6.1165,-5.9542,-5.7856,-5.7523,-5.7163,-5.6801,-5.6801,-5.6864,-5.7022,-5.7022,-5.7775,-5.8704,-5.8704,-6.0073,-6.1816,-6.1741,-6.2931,-6.422,-6.422,-6.5324,-6.6342,-6.5696,-6.5106,-6.4516,-6.3965,-6.443,-6.4996,-6.4996,-6.3814,-6.2773,-6.2773,-6.0387,-5.8418,-5.8347,-5.7184,-5.6219,-5.6219,-5.6219,-5.6219,-5.6219,-5.6219,-5.6219,-5.6219,-5.6219,-5.6219,-5.6194,-5.6194,-5.5968,-5.5415,-5.539,-5.5616,-5.6168,-5.5666,-5.539,-5.539,-5.4838,-5.4561,-5.4561,-5.3984,-5.3683,-5.3683,-5.3181,-5.2515,-5.2929,-5.3206,-5.3507,-5.3658,-5.431,-5.4938,-5.5114,-5.5139,-5.5458,-5.659,-5.9701,-6.2,-6.1279,-6.4781,-6.7692,-6.7472,-6.9234,-7.062,0.0,0.0,0.0,0.0,0.0,0.0,0.0,0.0,0.0,0.0,0.0,0.0,0.0,-7.0889,-7.0889,-7.0889,-7.0889,-7.0403,-6.9353,-6.8913,-6.8215,-6.7179,-6.5944,-6.6107,-6.7354,-6.4855,-6.3715,-6.3621,-6.1991,-6.1233,-6.1097,-5.9402,-5.8258,-5.7523,-5.7163,-5.6946,-5.6801,-5.651,-5.6644,-5.7022,-5.7022,-5.7524,-5.8152,-5.8152,-5.956,-6.1018,-5.997,-6.1752,-6.422,-6.422,-6.5324,-6.6734,-6.7559,-6.7343,-6.6662,-6.5503,-6.5109,-6.4996,-6.4996,-6.3814,-6.2508,-6.1436,-5.9723,-5.8063,-5.704,-5.6485,-5.6219,-5.6219,-5.6219,-5.6219,-5.6219,-5.6219,-5.6219,-5.6219,-5.6219,-5.6068,-5.5666,-5.5641,-5.539,-5.4838,-5.4813,-5.4888,-5.5039,-5.4888,-5.4813,-5.4813,-5.426,-5.3959,-5.3959,-5.3406,-5.3155,-5.3155,-5.3005,-5.2515,-5.3181,-5.3457,0.0,-5.426,-5.4888,-5.5491,-5.5942,-5.6043,-5.6289,-5.7273,-5.9916,-6.1825,-6.1229,-6.4263,-6.6707,-6.6417,-6.8421,-7.0009,-7.0009,0.0,0.0,0.0,0.0,0.0,0.0,0.0,0.0,0.0,0.0,0.0,0.0,-7.0009,-6.9715,-6.9153,-6.8919,-6.8372,-6.7466,-6.6835,-6.6115,-6.5231,-6.4066,-6.3895,-6.4678,-6.3073,-6.2335,-6.224,-6.0549,-5.9707,-5.9402,-5.8186,-5.7523,-5.7091,-5.6729,-5.6583,-5.651,-5.6292,-5.642,-5.6696,-5.6696,-5.7072,-5.7624,-5.8269,-5.983,-6.1543,-6.1416,-6.3379,-6.5726,-6.5977,-6.6721,-6.765,-6.8528,-6.8363,-6.7609,-6.6564,-6.5838,-6.5158,-6.4289,-6.3,-6.1504,-6.0,-5.856,-5.7256,-5.634,-5.6219,-5.6219,-5.6219,-5.6219,-5.6219,-5.6219,-5.6219,-5.6219,-5.6219,-5.6219,-5.5993,-5.544,-5.539,-5.5064,-5.426,-5.421,-5.4135,-5.3934,-5.411,-5.421,-5.421,-5.3683,-5.3381,-5.3381,-5.308,-5.2929,-5.2929,-5.2929,-5.2515,0.0,0.0,0.0,-5.5139,-5.5465,-5.5792,-5.6796,-5.7123,-5.7247,-5.7714,-5.9539,-6.0935,-6.0609,-6.3217,-6.5111,-6.4337,-6.6566,-6.8451,-6.8451,0.0,0.0,0.0,0.0,0.0,0.0,0.0,0.0,0.0,0.0,0.0,0.0,-6.8451,-6.781,-6.6342,-6.5877,-6.5499,-6.5305,-6.4688,-6.4311,0.0,-6.226,-6.1295,-6.1295,-6.1295,-6.1295,-6.1129,-5.9202,-5.8141,-5.7784,-5.7451,-5.7091,-5.6729,-5.6365,-5.6219,-5.6219,-5.6219,-5.6219,-5.6219,-5.634,-5.674,-5.739,-5.8843,-6.0785,-6.2832,-6.4638,-6.6361,-6.7928,-6.8335,-6.8577,-6.8741,-6.8828,-6.8392,-6.7783,-6.7144,-6.6447,-6.5362,-6.3461,-6.1868,-6.0345,-5.8912,-5.7374,-5.634,-5.6219,-5.6219,-5.6219,-5.6219,-5.6219,-5.6219,-5.6219,-5.6219,-5.6219,-5.6219,-5.6219,-5.5968,-5.5365,-5.5315,-5.4838,-5.3708,-5.3632,-5.3406,-5.2955,-5.3381,-5.3632,-5.3632,-5.3181,-5.2929,-5.2929,-5.2929,-5.2929,-5.2929,-5.2929,-5.2491,0.0,-5.4687,0.0,0.0,-5.6043,-5.6746,-5.6972,-5.7725,-5.8454,-5.8746,-5.9524,-6.0335,-6.0862,-6.2871,-6.4399,-6.4274,0.0,0.0,0.0,0.0,0.0,0.0,0.0,0.0,0.0,0.0,0.0,0.0,0.0,0.0,-6.6914,-6.6914,-6.6578,-6.5821,-6.5652,-6.4819,-6.3191,-6.2561,-6.1705,0.0,-5.9581,-5.9175,-5.9175,-5.9175,-5.9008,-5.8653,-5.7908,-5.7379,-5.7019,-5.6946,-5.6729,-5.6292,-5.6219,-5.6219,-5.6219,-5.6219,-5.6219,-5.634,-5.7518,-5.8025,-5.8317,-5.9841,-6.1767,-6.3316,-6.2508,-6.4567,-6.7004,-6.6339,-6.7111,-6.8189,-6.8712,-6.8712,-6.845,-6.7812,-6.6767,-6.5766,-6.5333,-6.3668,-6.1908,-6.0414,-5.8982,-5.759,-5.6412,-5.6219,-5.6219,-5.6219,-5.6219,-5.6219,-5.6219,-5.6219,-5.6219,-5.6219,-5.6219,-5.5817,-5.4838,-5.4737,-5.4285,-5.3155,-5.308,-5.3055,-5.2929,-5.303,-5.308,-5.308,-5.298,-5.2929,-5.2929,-5.2929,-5.2929,-5.2929,-5.2929,-5.2529,0.0,0.0,0.0,-5.6043,0.0,-5.7173,-5.7725,-5.8303,-5.8933,-5.9715,-6.0096,-6.0528,-6.1379,-6.2408,0.0,0.0,0.0,0.0,0.0,0.0,0.0,0.0,0.0,0.0,0.0,0.0,0.0,0.0,0.0,-6.6076,-6.5396,-6.5324,-6.4764,-6.3476,-6.3177,-6.2388,-6.1069,-6.0385,-5.9599,-5.8655,-5.8369,-5.8141,-5.7953,-5.8141,-5.7999,-5.7667,-5.7451,-5.7163,-5.6801,-5.6801,-5.6583,-5.6219,-5.6219,-5.6219,-5.6292,-5.6968,-5.7231,-5.7446,-5.8982,-5.9445,-5.9723,-6.1138,-6.2398,-6.3335,-6.3549,-6.4889,-6.6433,-6.6213,-6.6749,-6.7551,-6.8189,-6.8363,-6.8363,-6.8334,-6.758,-6.657,-6.5564,-6.4462,-6.3066,-6.0833,-5.9563,-5.8407,-5.6816,-5.6394,-5.6219,-5.6219,-5.6219,-5.6219,-5.6219,-5.6219,-5.6219,-5.6219,-5.6219,-5.5767,-5.4662,-5.4561,-5.411,-5.3005,-5.2929,-5.2929,-5.2929,-5.2929,-5.2929,-5.2929,-5.2929,-5.2929,-5.2929,-5.2929,-5.2929,-5.2929,-5.2929,-5.2598,0.0,0.0,0.0,0.0,0.0,0.0,-5.8504,-5.878,-5.921,-6.0329,-6.066,-6.0965,0.0,0.0,0.0,0.0,0.0,0.0,0.0,0.0,0.0,0.0,0.0,0.0,0.0,0.0,0.0,0.0,0.0,0.0,-6.3865,-6.3684,-6.2805,-6.098,-6.0378,-5.9803,-5.9157,-5.8687,-5.8212,-5.7784,-5.7784,-5.7641,-5.7307,-5.7569,-5.7569,-5.7307,-5.7235,-5.7019,-5.6729,-5.6729,-5.651,-5.6219,-5.6219,-5.6219,-5.634,-5.7876,-5.8418,-5.863,-6.0414,-6.0961,-6.1233,-6.2707,-6.3197,-6.3479,-6.5189,-6.5751,-6.5896,-6.6535,-6.6709,-6.6883,-6.7522,-6.7696,-6.787,-6.8509,-6.7959,-6.695,-6.555,-6.4945,-6.3875,-6.1103,-5.9745,-5.8533,-5.7118,-5.652,-5.6219,-5.6219,-5.6219,-5.6219,-5.6219,-5.6219,-5.6219,-5.6219,-5.6219,-5.5767,-5.4662,-5.4561,-5.411,-5.3005,-5.2929,-5.2929,-5.2929,-5.2929,-5.2929,-5.2929,-5.2929,-5.2929,-5.2929,-5.2929,-5.2929,-5.2929,-5.2929,-5.2717,0.0,0.0,0.0,0.0,0.0,0.0,0.0,0.0,-5.9562,0.0,0.0,0.0,0.0,0.0,0.0,0.0,0.0,0.0,0.0,0.0,0.0,0.0,0.0,0.0,0.0,0.0,0.0,0.0,0.0,0.0,-6.2321,-6.1774,-6.1175,-6.0352,-5.9777,-5.9059,-5.8128,-5.8025,-5.7784,-5.7451,-5.7451,-5.7235,-5.6874,-5.6946,-5.6946,-5.6874,-5.651,-5.6365,-5.6292,-5.6292,-5.6292,-5.6219,-5.6219,-5.6219,-5.634,-5.7876,-5.8418,-5.8771,-6.1544,-6.2508,-6.2773,-6.4232,-6.4711,-6.474,-6.5019,-6.5112,-6.5257,-6.5867,-6.607,-6.6215,-6.6854,-6.6999,-6.7173,-6.7841,-6.6528,-6.555,-6.7142,-6.5962,-6.4081,-6.2454,-5.9528,-5.7093,-5.6394,-5.6269,-5.6219,-5.6219,-5.6219,-5.6219,-5.6219,-5.6219,-5.6219,-5.6219,-5.6219,-5.5767,-5.4662,-5.4561,-5.411,-5.3005,-5.2929,-5.2929,-5.2929,-5.2929,-5.2929,-5.2929,-5.2929,-5.2929,-5.2929,-5.2929,-5.2929,-5.2929,-5.2929,-5.2717,-5.652,0.0,0.0,0.0,0.0,0.0,0.0,0.0,0.0,0.0,0.0,0.0,0.0,0.0,0.0,0.0,0.0,0.0,0.0,0.0,0.0,0.0,0.0,0.0,0.0,0.0,0.0,0.0,0.0,-6.1842,-6.1502,-6.1241,-6.0692,-5.9777,-5.9273,-5.8713,-5.7927,-5.7713,-5.7451,-5.7091,-5.6874,-5.6656,-5.6438,-5.6438,-5.6438,-5.6438,-5.6292,-5.6219,-5.6219,-5.6219,-5.6219,-5.6219,-5.6219,-5.6219,-5.634,-5.7876,-5.8912,-5.9931,-6.2042,-6.3328,-6.4167,-6.4775,-6.4996,-6.4996,-6.4996,-6.4996,-6.5054,-6.5315,-6.5141,-6.5025,-6.5664,-6.5548,-6.546,-6.6099,-6.4907,-6.3969,-6.4851,-6.4211,-6.2863,-6.1033,-5.874,-5.6872,-5.6319,-5.6219,-5.6219,-5.6219,-5.6219,-5.6219,-5.6219,-5.6219,-5.6219,-5.6219,-5.6219,-5.5767,-5.4662,-5.4561,-5.411,-5.3005,-5.2929,-5.2929,-5.2929,-5.2929,-5.2929,-5.2929,-5.2929,-5.2929,-5.2929,-5.2929,-5.2929,-5.2929,-5.2929,-5.2836,0.0,0.0,0.0,0.0,0.0,0.0,0.0,0.0,0.0,0.0,0.0,0.0,0.0,0.0,0.0,0.0,0.0,0.0,0.0,0.0,0.0,0.0,0.0,0.0,0.0,0.0,0.0,0.0,0.0,-6.1738,-6.1136,-6.0906,-6.0284,-5.9241,-5.8724,-5.8223,-5.7641,-5.7307,-5.6946,-5.6656,-5.6365,-5.6219,-5.6219,-5.6219,-5.6219,-5.6219,-5.6219,-5.6219,-5.6194,-5.6068,-5.6018,-5.5993,-5.5842,-5.5792,-5.5984,-5.7833,-5.92,-6.043,-6.2258,-6.3615,-6.4502,-6.4502,-6.4502,-6.4502,-6.4502,-6.4502,-6.4502,-6.4502,-6.4154,-6.3893,-6.4386,-6.3873,-6.3417,-6.4051,-6.2792,-6.1481,-6.1884,-6.1862,-6.1114,-5.9143,-5.7808,-5.6872,-5.6319,-5.6219,-5.6219,-5.6219,-5.6219,-5.6219,-5.6219,-5.6219,-5.6219,-5.6219,-5.6093,-5.5616,-5.4637,-5.4436,-5.3934,-5.298,-5.2929,-5.2929,-5.2929,-5.2929,-5.2929,-5.2929,-5.2929,-5.2929,-5.2929,-5.2929,-5.2929,-5.2929,-5.2929,-5.2929,-5.6872,0.0,0.0,0.0,0.0,0.0,0.0,0.0,0.0,0.0,0.0,0.0,0.0,0.0,0.0,0.0,0.0,0.0,0.0,0.0,0.0,0.0,0.0,0.0,0.0,0.0,0.0,0.0,0.0,-6.1738,-6.1136,-6.022,-5.9476,-5.8854,-5.7976,-5.7261,-5.6874,-5.6438,-5.6292,-5.6219,-5.6219,-5.6219,-5.6219,-5.6219,-5.6219,-5.6219,-5.6219,-5.6219,-5.6168,-5.5641,-5.544,-5.539,-5.4863,-5.4637,-5.4991,-5.7769,-5.8844,-5.9308,-6.2108,-6.3134,-6.3196,-6.3196,-6.3196,-6.3196,-6.3196,-6.3196,-6.3196,-6.3196,-6.3167,-6.3138,-6.3167,-6.2142,-6.1365,-6.2013,-5.9545,-5.7588,-5.9218,-5.9541,-5.9091,-5.7466,-5.7022,-5.6872,-5.6319,-5.6219,-5.6219,-5.6219,-5.6219,-5.6219,-5.6219,-5.6219,-5.6219,-5.6219,-5.5742,-5.5189,-5.4612,-5.4059,-5.3507,-5.2955,-5.2929,-5.2929,-5.2929,-5.2929,-5.2929,-5.2929,-5.2929,-5.2929,-5.2929,-5.2929,-5.2929,-5.2929,-5.2929,-5.2929,-5.6872,0.0,0.0,0.0,0.0,0.0,0.0,0.0,0.0,0.0,0.0,0.0,0.0,0.0,0.0,0.0,0.0,0.0,0.0,0.0,0.0,0.0,0.0,0.0,0.0,0.0,0.0,0.0,0.0,0.0,-6.022,-5.9476,-5.8761,-5.7904,-5.7338,-5.6801,-5.6438,-5.6292,-5.6219,-5.6219,-5.6219,-5.6219,-5.6219,-5.6219,-5.6018,-5.5691,-5.5691,-5.5691,-5.5641,-5.5089,-5.4863,-5.4838,-5.4708,-5.5172,-5.6029,-5.7009,-5.8535,-6.0274,-6.1359,-6.2303,-6.308,-6.308,-6.308,-6.308,-6.308,-6.308,-6.308,-6.308,-6.2203,-6.136,-6.2257,-6.0454,-5.8263,-5.7632,-5.6558,-5.5679,-5.5695,-5.6065,-5.6234,-5.6063,-5.5968,-5.6018,-5.6194,-5.6219,-5.6219,-5.6219,-5.6219,-5.6219,-5.6219,-5.6219,-5.6068,-5.5717,-5.5491,-5.5013,-5.4084,-5.3808,-5.3482,-5.2955,-5.2929,-5.2929,-5.2929,-5.2929,-5.2929,-5.2929,-5.2929,-5.2929,-5.2929,-5.2929,-5.2929,-5.2929,-5.2929,-5.2929,-5.6394,-5.7022,0.0,0.0,0.0,0.0,0.0,0.0,0.0,0.0,0.0,0.0,0.0,0.0,0.0,0.0,0.0,0.0,0.0,0.0,0.0,0.0,0.0,0.0,0.0,0.0,0.0,0.0,0.0,0.0,-5.923,-5.8697,-5.8016,-5.7044,-5.6729,-5.651,-5.6219,-5.6219,-5.6219,-5.6219,-5.6219,-5.6219,-5.6194,-5.6018,-5.5742,-5.5365,-5.4988,-5.4938,-5.5064,-5.4511,-5.4285,-5.426,-5.4084,-5.4865,-5.6118,-5.6566,-5.827,-6.0329,-6.0863,-6.1643,-6.2441,-6.2441,-6.2441,-6.2441,-6.2441,-6.2441,-6.2441,-6.2441,-6.148,-6.0579,-6.1012,-5.8681,-5.5959,-5.4619,-5.4283,-5.4141,-5.3564,-5.3884,-5.4436,-5.4988,-5.5114,-5.5239,-5.5591,-5.5666,-5.5666,-5.5666,-5.5666,-5.5666,-5.5666,-5.5666,-5.5516,-5.5139,-5.4938,-5.4511,-5.3758,-5.3532,-5.3306,-5.2955,-5.2929,-5.2929,-5.2929,-5.2929,-5.2929,-5.2929,-5.2929,-5.2929,-5.2929,-5.2929,-5.2929,-5.2929,-5.2929,-5.2929,0.0,0.0,0.0,-5.7675,0.0,0.0,0.0,0.0,0.0,0.0,0.0,0.0,0.0,0.0,0.0,0.0,0.0,0.0,0.0,0.0,0.0,0.0,0.0,0.0,0.0,0.0,0.0,0.0,0.0,-5.923,-5.8199,-5.7808,-5.7213,-5.6219,-5.6219,-5.6219,-5.6219,-5.6219,-5.6219,-5.6219,-5.6219,-5.6219,-5.6194,-5.5641,-5.539,-5.529,-5.4185,-5.4009,-5.4461,-5.3909,-5.3683,-5.3632,-5.313,-5.3768,-5.5194,-5.652,-5.7961,-5.9369,-6.0742,-6.1193,-6.1193,-6.1193,-6.1193,-6.1193,-6.1193,-6.1193,-6.1193,-6.1193,-6.1193,-6.0802,-5.9369,-5.7,-5.4619,-5.3247,-5.2929,-5.2929,-5.2929,-5.3331,-5.3858,-5.4436,-5.4536,-5.4536,-5.4561,-5.4561,-5.4561,-5.4561,-5.4561,-5.4561,-5.4561,-5.4561,-5.4561,-5.4607,-5.4034,-5.3708,-5.3683,-5.3206,-5.2929,-5.2861,-5.2929,-5.2929,-5.2929,-5.2929,-5.2929,-5.2929,-5.2929,-5.2929,-5.2929,-5.2929,-5.2929,-5.2929,-5.2929,-5.2929,-5.4913,0.0,0.0,0.0,0.0,0.0,0.0,0.0,0.0,0.0,0.0,0.0,0.0,0.0,0.0,0.0,0.0,0.0,0.0,0.0,0.0,0.0,0.0,0.0,0.0,0.0,0.0,0.0,-5.8984,-5.8353,-5.7833,-5.7086,-5.6516,-5.6219,-5.6219,-5.6219,-5.6219,-5.6219,-5.6219,-5.6219,-5.6219,-5.6219,-5.6194,-5.5641,-5.5164,-5.4762,-5.4009,-5.3582,-5.3356,-5.3206,-5.313,-5.313,-5.298,-5.435,-5.6455,-5.6844,-5.8529,-6.0681,-6.1073,-6.1193,-6.1193,-6.1193,-6.1193,-6.1193,-6.1193,-6.1193,-6.1193,-6.1193,-6.047,-5.9121,-5.6742,-5.5591,-5.4619,-5.3247,-5.2929,-5.2929,-5.2929,-5.303,-5.3306,-5.3833,-5.3934,-5.4084,-5.4486,-5.4561,-5.4561,-5.4561,-5.4561,-5.4561,-5.4561,-5.4561,-5.4411,-5.3984,-5.3808,-5.3418,-5.2809,-5.2867,-5.2792,-5.2585,-5.2792,-5.2929,-5.2929,-5.2929,-5.2929,-5.2929,-5.2929,-5.2929,-5.2929,-5.2929,-5.2929,-5.2929,-5.2929,-5.2929,-5.4411,-5.5189,-5.6068,-5.5516,0.0,0.0,-5.7399,-5.7976,0.0,0.0,0.0,0.0,0.0,0.0,0.0,0.0,0.0,0.0,0.0,0.0,0.0,0.0,0.0,0.0,0.0,0.0,0.0,-5.859,-5.7955,-5.7477,-5.7063,-5.6541,-5.6219,-5.6219,-5.6219,-5.6219,-5.6219,-5.6219,-5.6219,-5.6219,-5.6219,-5.6093,-5.5842,-5.529,-5.4737,-5.4185,-5.3607,-5.3206,-5.2929,-5.2929,-5.2929,-5.2929,-5.2929,-5.4593,-5.6973,-5.6973,-5.878,-6.1193,-6.1193,-6.1193,-6.1193,-6.1193,-6.1193,-6.1193,-6.1193,-6.1193,-6.1193,-6.1193,-5.9768,-5.777,-5.5591,-5.4552,-5.3903,-5.3136,-5.2929,-5.2929,-5.2929,-5.2929,-5.3005,-5.3331,-5.3381,-5.3482,-5.3833,-5.3884,-5.3884,-5.3884,-5.3743,-5.3673,-5.3673,-5.3533,-5.3338,-5.2919,-5.2894,-5.27,-5.2193,-5.2308,-5.2377,-5.2169,-5.2515,-5.2723,-5.2723,-5.2861,-5.2929,-5.2929,-5.2929,-5.2929,-5.2929,-5.2929,-5.2929,-5.2929,-5.2929,-5.2929,-5.4084,-5.4938,-5.5993,-5.544,-5.5717,0.0,-5.6821,-5.7399,0.0,0.0,0.0,0.0,0.0,0.0,0.0,0.0,0.0,0.0,0.0,0.0,0.0,0.0,0.0,0.0,0.0,-5.8481,-5.7929,-5.7537,-5.7007,-5.6583,-5.6219,-5.6219,-5.6219,-5.6219,-5.6219,-5.6219,-5.6219,-5.6219,-5.6219,-5.6219,-5.6143,-5.5867,-5.5365,-5.4762,-5.4185,-5.3683,-5.3155,-5.2929,-5.2929,-5.2929,-5.2929,-5.2929,-5.2929,-5.4459,-5.678,-5.6973,-5.8655,-6.1013,-6.1133,-6.1193,-6.1193,-6.1193,-6.1193,-6.1193,-6.1193,-6.1073,-6.0923,-6.0802,-5.878,-5.652,-5.5326,-5.3971,-5.2929,-5.2929,-5.2929,-5.2929,-5.2929,-5.2929,-5.2929,-5.2929,-5.2929,-5.2929,-5.2929,-5.2861,-5.2861,-5.2861,-5.2585,-5.2308,-5.2308,-5.203,-5.182,-5.182,-5.182,-5.182,-5.1751,-5.1751,-5.182,-5.1751,-5.2169,-5.2377,-5.2377,-5.2723,-5.2929,-5.2929,-5.2929,-5.2929,-5.2929,-5.2929,-5.2929,-5.2929,-5.2929,-5.2929,-5.4587,-5.4963,-5.5415,-5.4863,-5.5139,0.0,-5.6244,-5.6796,-5.7374,0.0,0.0,0.0,0.0,0.0,0.0,0.0,0.0,0.0,0.0,0.0,0.0,0.0,0.0,0.0,0.0,-5.7836,-5.7435,-5.6541,-5.6342,-5.6292,-5.6219,-5.6219,-5.6219,-5.6219,-5.6219,-5.6219,-5.6219,-5.6219,-5.6219,-5.6194,-5.5767,-5.5491,-5.5365,-5.4336,-5.3808,-5.3683,-5.3155,-5.2929,-5.2929,-5.2929,-5.2929,-5.2929,-5.2929,-5.3903,-5.5525,-5.6585,-5.8088,-5.9707,-6.0802,-6.1193,-6.1193,-6.1193,-6.1193,-6.1193,-6.1193,-6.0409,-5.9245,-5.8151,-5.6677,-5.5326,-5.5061,-5.3971,-5.2929,-5.2929,-5.2929,-5.2929,-5.2929,-5.2929,-5.2929,-5.2929,-5.2929,-5.2929,-5.2929,-5.2654,-5.2515,-5.2515,-5.2169,-5.196,-5.196,-5.182,-5.182,-5.182,-5.182,-5.1681,-5.1352,-5.1586,-5.1656,-5.1376,-5.2005,-5.2377,-5.2377,-5.2723,-5.2929,-5.2929,-5.2929,-5.2929,-5.2929,-5.2929,-5.2929,-5.2929,-5.2929,-5.2929,-5.5114,-5.539,-5.5666,-5.5114,-5.5189,0.0,0.0,-5.6018,-5.6445,0.0,0.0,0.0,0.0,0.0,0.0,0.0,0.0,0.0,0.0,0.0,0.0,0.0,0.0,0.0,0.0,-5.6914,-5.6715,-5.6244,-5.6219,-5.6219,-5.6219,-5.6219,-5.6219,-5.6219,-5.6219,-5.6219,-5.6219,-5.6219,-5.6068,-5.5792,-5.5516,-5.5089,-5.4536,-5.3959,-5.3557,-5.3306,-5.303,-5.2929,-5.2929,-5.2929,-5.2929,-5.2929,-5.2929,-5.3768,-5.5127,-5.652,-5.787,-5.9307,-6.0681,-6.1193,-6.1073,-6.0348,-6.0165,-6.0014,-5.9307,-5.8592,-5.777,-5.6417,-5.5525,-5.482,-5.4148,-5.3452,-5.2929,-5.2929,-5.2929,-5.2929,-5.2929,-5.2929,-5.2861,-5.2723,-5.2654,-5.2654,-5.2654,-5.2377,-5.2099,-5.2099,-5.1726,-5.1516,-5.1516,-5.133,-5.126,-5.126,-5.126,-5.119,-5.0954,-5.1119,-5.119,-5.0954,-5.1516,-5.1796,-5.1796,-5.2144,-5.2446,-5.2654,-5.2792,-5.2929,-5.2929,-5.2929,-5.2929,-5.2929,-5.2929,-5.2929,-5.5666,-5.5867,-5.6068,-5.5516,-5.5465,-5.5516,0.0,0.0,0.0,0.0,0.0,0.0,0.0,0.0,0.0,0.0,0.0,0.0,0.0,0.0,0.0,0.0,0.0,0.0,0.0,-5.6219,-5.6219,-5.6219,-5.6219,-5.6219,-5.6219,-5.6219,-5.6219,-5.6219,-5.6219,-5.6168,-5.6068,-5.6068,-5.5767,-5.5239,-5.5114,-5.4587,-5.3708,-5.3607,-5.3331,-5.2929,-5.2929,-5.2929,-5.2929,-5.2929,-5.2929,-5.2929,-5.2929,-5.3563,-5.482,-5.639,-5.7742,-5.8905,-6.0287,-6.0802,-6.056,-5.9183,-5.8718,-5.8467,-5.7038,-5.6585,-5.6325,-5.4994,-5.4619,-5.435,-5.3179,-5.2929,-5.2929,-5.2929,-5.2929,-5.2861,-5.2792,-5.2792,-5.2723,-5.2377,-5.2213,-5.2213,-5.2308,-5.1935,-5.1656,-5.1656,-5.1376,-5.1095,-5.1095,-5.0908,-5.0696,-5.0696,-5.0696,-5.0696,-5.0696,-5.0696,-5.0696,-5.0696,-5.1025,-5.1211,-5.1211,-5.1656,-5.2099,-5.2515,-5.2792,-5.2929,-5.2929,-5.2929,-5.2929,-5.2929,-5.2929,-5.2929,-5.6143,-5.6168,-5.6068,-5.5516,-5.5767,-5.5993,-5.5491,0.0,-5.6143,-5.6269,0.0,-5.6244,-5.6369,0.0,0.0,0.0,0.0,0.0,0.0,0.0,0.0,0.0,0.0,0.0,0.0,0.0,-5.6219,-5.6219,-5.6219,-5.6219,-5.6219,-5.6219,-5.6219,-5.6219,-5.6219,-5.5968,-5.5491,-5.5491,-5.5214,-5.4662,-5.4135,-5.3833,-5.3683,-5.3231,-5.298,-5.2929,-5.2929,-5.2929,-5.2929,-5.2929,-5.2929,-5.2929,-5.2929,-5.2998,-5.3452,-5.609,-5.7102,-5.7423,-5.8843,-5.9307,-5.9121,-5.7679,-5.7231,-5.6973,-5.5657,-5.526,-5.4927,-5.3521,-5.311,-5.3136,-5.2929,-5.2929,-5.2929,-5.2929,-5.2929,-5.2792,-5.2515,-5.2446,-5.2377,-5.196,-5.1586,-5.1446,-5.182,-5.1516,-5.1282,-5.1282,-5.0954,-5.0767,-5.0767,-5.0696,-5.0696,-5.0696,-5.0696,-5.0696,-5.0696,-5.0696,-5.0696,-5.0696,-5.1025,-5.1211,-5.1211,-5.1935,-5.2515,-5.2861,-5.2861,-5.2929,-5.2929,-5.2929,-5.2929,-5.2929,-5.2929,-5.2929,-5.6219,-5.6219,-5.6068,-5.5516,-5.5566,-5.5591,-5.5039,-5.5089,-5.534,-5.5666,0.0,0.0,0.0,0.0,0.0,0.0,-5.5315,0.0,0.0,0.0,0.0,0.0,0.0,0.0,0.0,0.0,0.0,0.0,0.0,-5.6219,-5.6219,-5.6219,-5.6068,-5.5742,-5.5742,-5.5465,-5.4913,-5.4913,-5.4637,-5.4059,-5.3808,-5.3557,-5.3256,-5.303,-5.2929,-5.2929,-5.2929,-5.2929,-5.2929,-5.2929,-5.2929,-5.2929,-5.2929,-5.2929,-5.311,-5.5127,-5.5828,-5.6025,-5.7423,-5.787,-5.7679,-5.6287,-5.5326,-5.4552,-5.3971,-5.3768,-5.3632,-5.3067,-5.2929,-5.2929,-5.2929,-5.2929,-5.2861,-5.2654,-5.2585,-5.2515,-5.2169,-5.203,-5.196,-5.1516,-5.1282,-5.1165,-5.119,-5.1049,-5.0884,-5.0884,-5.0767,-5.0696,-5.0696,-5.0696,-5.0696,-5.0696,-5.0696,-5.0696,-5.0696,-5.0696,-5.0696,-5.0696,-5.0837,-5.1025,-5.1211,-5.1726,-5.2238,-5.2585,-5.2792,-5.2929,-5.2929,-5.2929,-5.2929,-5.2929,-5.2929,-5.2929,-5.6219,-5.6219,-5.6043,-5.534,-5.5265,-5.5239,-5.4687,-5.4687,-5.4938,-5.5491,-5.529,0.0,0.0,0.0,-5.4863,-5.5114,0.0,-5.4461,0.0,0.0,0.0,0.0,0.0,0.0,0.0,0.0,0.0,0.0,-5.5993,-5.5917,-5.5767,-5.5767,-5.5566,-5.5164,-5.5164,-5.4888,-5.4336,-5.4336,-5.4059,-5.3482,-5.3482,-5.3281,-5.2929,-5.2929,-5.2929,-5.2929,-5.2929,-5.2929,-5.2929,-5.2929,-5.2929,-5.2929,-5.2929,-5.2929,-5.3067,-5.4485,-5.502,-5.5127,-5.609,-5.6221,-5.5696,-5.4727,-5.37,-5.2929,-5.2929,-5.2929,-5.2929,-5.2929,-5.2929,-5.2929,-5.2929,-5.2929,-5.2792,-5.2515,-5.2377,-5.2238,-5.1726,-5.1656,-5.1516,-5.1165,-5.1095,-5.0954,-5.0767,-5.0696,-5.0696,-5.0696,-5.0696,-5.0696,-5.0696,-5.0696,-5.0696,-5.0696,-5.0696,-5.0696,-5.0696,-5.0696,-5.0696,-5.0696,-5.0696,-5.0837,-5.1211,-5.1586,-5.203,-5.2377,-5.2723,-5.2929,-5.2929,-5.2929,-5.2929,-5.2929,-5.2929,-5.2929,-5.6219,-5.6219,-5.5942,-5.4863,-5.4988,-5.5239,-5.4687,-5.4988,-5.5516,-5.6068,-5.6168,-5.6168,-5.6194,-5.5742,-5.5189,-5.4687,-5.4587,0.0,0.0,-5.3406,0.0,0.0,0.0,0.0,0.0,0.0,0.0,-5.544,-5.5415,-5.5189,-5.4637,-5.4612,-5.4612,-5.4658,-5.4658,-5.431,-5.3733,-5.3733,-5.3457,-5.2955,-5.2955,-5.2955,-5.2929,-5.2929,-5.2929,-5.2929,-5.2929,-5.2929,-5.2929,-5.2929,-5.2929,-5.2929,-5.2929,-5.2929,-5.3067,-5.4485,-5.502,-5.502,-5.5061,-5.4174,-5.2998,-5.2998,-5.2929,-5.2929,-5.2929,-5.2929,-5.2929,-5.2929,-5.2929,-5.2929,-5.2929,-5.2929,-5.2792,-5.2515,-5.2377,-5.2144,-5.1352,-5.1211,-5.1095,-5.0767,-5.0696,-5.0696,-5.0696,-5.0696,-5.0696,-5.0696,-5.0696,-5.0696,-5.0696,-5.0696,-5.0696,-5.0696,-5.0696,-5.0696,-5.0696,-5.0696,-5.0696,-5.0696,-5.0696,-5.0837,-5.1211,-5.1586,-5.203,-5.2377,-5.2723,-5.2929,-5.2929,-5.2929,-5.2929,-5.2929,-5.2929,-5.2929,0.0,0.0,-5.6043,-5.529,-5.4988,-5.4687,-5.4135,-5.4436,-5.4888,-5.5089,-5.5691,-5.6219,-5.6219,-5.5465,-5.4787,-5.4587,-5.3959,-5.3356,0.0,-5.308,0.0,-5.3934,-5.416,-5.4637,0.0,0.0,0.0,-5.4863,-5.4838,-5.4762,0.0,-5.4561,-5.4386,-5.4009,-5.3984,-5.3733,-5.3206,-5.3181,-5.3105,-5.2929,-5.2929,-5.2929,-5.2929,-5.2929,-5.2929,-5.2929,-5.2929,-5.2929,-5.2929,-5.2929,-5.2929,-5.2929,-5.2929,-5.2929,-5.2929,-5.3452,-5.3632,-5.3632,-5.3632,-5.3316,-5.2929,-5.2929,-5.2929,-5.2929,-5.2929,-5.2929,-5.2929,-5.2929,-5.2929,-5.2929,-5.2929,-5.2723,-5.2446,-5.2099,-5.1796,-5.1446,-5.0978,-5.0908,-5.0837,-5.0696,-5.0696,-5.0696,-5.0696,-5.0696,-5.0696,-5.0696,-5.0696,-5.0696,-5.0696,-5.0696,-5.0696,-5.0696,-5.0696,-5.0696,-5.0696,-5.0696,-5.0696,-5.0696,-5.0696,-5.0978,-5.1586,-5.1751,-5.2099,-5.2723,-5.2861,-5.2929,-5.2929,-5.2929,-5.2929,-5.2929,-5.2929,-5.2929,-5.6219,-5.6219,0.0,-5.5516,-5.5114,0.0,-5.4386,-5.4587,-5.4913,-5.5114,-5.5717,-5.6219,-5.6219,-5.5315,-5.4561,-5.4561,-5.3632,-5.2929,0.0,-5.2929,-5.313,-5.3632,-5.3708,-5.4059,-5.5013,0.0,0.0,-5.4285,-5.426,-5.4185,0.0,0.0,-5.3808,-5.3432,-5.3432,-5.3256,-5.2929,-5.2929,-5.2929,-5.2929,-5.2929,-5.2929,-5.2929,-5.2929,-5.2929,-5.2929,-5.2929,-5.2929,-5.2929,-5.2929,-5.2929,-5.2929,-5.2929,-5.2929,-5.2929,-5.2929,-5.2929,-5.2929,-5.2929,-5.2929,-5.2929,-5.2929,-5.2929,-5.2929,-5.2929,-5.2929,-5.2879,-5.2678,-5.2779,-5.2879,-5.2678,-5.2504,-5.2308,-5.189,-5.1516,-5.1095,-5.0767,-5.0696,-5.0696,-5.0696,-5.0696,-5.0696,-5.0696,-5.0696,-5.0696,-5.0696,-5.0696,-5.0696,-5.0696,-5.0696,-5.0696,-5.0696,-5.0696,-5.0696,-5.0696,-5.0696,-5.0696,-5.0696,-5.0696,-5.0908,-5.1401,-5.1681,-5.203,-5.2515,-5.2792,-5.2929,-5.2929,-5.2929,-5.2929,-5.2929,-5.2929,-5.2929]},{"header":{"parameterUnit":"m.s-1","parameterCategory":1,"la1":30.6,"la2":29.2853,"lo1":-89.7004,"lo2":-87.6739,"dy":0.0162,"dx":0.0183,"nx":112,"ny":82,"refTime":"2023-06-16T06:00:00:Z","depth":0,"parameterNumber":3,"parameterNumberName":"V-component_of_WINDS"},"data":[0.0,0.0,0.0,0.0,0.0,0.0,0.0,0.0,0.0,0.0,0.0,0.0,0.0,0.0,0.0,0.0,0.0,0.0,0.0,0.0,0.0,0.0,0.0,0.0,0.0,0.0,0.0,0.0,0.0,0.0,0.0,0.0,0.0,0.0,0.0,0.0,0.0,0.0,0.0,0.0,0.0,0.0,0.0,0.0,0.0,0.0,0.0,0.0,0.0,0.0,0.0,0.0,0.0,0.0,0.0,0.0,0.0,0.0,0.0,0.0,0.0,0.0,0.0,0.0,0.0,0.0,0.0,0.0,0.0,0.0,0.0,0.0,0.0,0.0,0.0,0.0,0.0,0.0,0.0,0.0,0.0,0.0,0.0,0.0,0.0,0.0,0.0,0.0,0.0,0.0,-5.0931,-5.0715,-5.0295,-5.0001,-4.9719,-4.9654,-4.959,-4.959,0.0,0.0,0.0,0.0,0.0,0.0,0.0,0.0,0.0,0.0,0.0,0.0,0.0,0.0,0.0,0.0,0.0,0.0,0.0,0.0,0.0,0.0,0.0,0.0,0.0,0.0,0.0,0.0,0.0,0.0,0.0,0.0,0.0,0.0,0.0,0.0,0.0,0.0,0.0,0.0,0.0,0.0,0.0,0.0,0.0,0.0,0.0,0.0,0.0,0.0,0.0,0.0,0.0,0.0,0.0,0.0,0.0,0.0,0.0,0.0,0.0,0.0,0.0,0.0,0.0,0.0,0.0,0.0,0.0,0.0,0.0,0.0,0.0,0.0,0.0,0.0,0.0,0.0,0.0,0.0,0.0,0.0,0.0,0.0,0.0,0.0,0.0,0.0,0.0,0.0,0.0,0.0,0.0,0.0,0.0,0.0,0.0,0.0,0.0,0.0,0.0,0.0,0.0,0.0,-5.0804,-5.0994,-5.0487,-5.0065,-5.0065,-4.9783,-4.959,-4.959,0.0,0.0,0.0,0.0,0.0,0.0,0.0,0.0,0.0,0.0,0.0,0.0,0.0,0.0,0.0,0.0,0.0,0.0,0.0,0.0,0.0,0.0,0.0,0.0,0.0,0.0,0.0,0.0,0.0,0.0,0.0,0.0,0.0,0.0,0.0,0.0,0.0,0.0,0.0,0.0,0.0,0.0,0.0,0.0,0.0,0.0,0.0,0.0,0.0,0.0,0.0,0.0,0.0,0.0,0.0,0.0,0.0,0.0,0.0,0.0,0.0,0.0,0.0,0.0,0.0,0.0,0.0,0.0,0.0,0.0,0.0,0.0,0.0,0.0,0.0,0.0,0.0,0.0,0.0,0.0,0.0,0.0,0.0,0.0,0.0,0.0,0.0,0.0,0.0,0.0,0.0,0.0,0.0,0.0,0.0,0.0,0.0,0.0,0.0,0.0,0.0,0.0,0.0,-5.0804,-5.0931,-5.1057,-5.0804,-5.055,-5.0359,-5.004,-4.9847,-4.9847,-4.9719,0.0,0.0,0.0,0.0,0.0,0.0,0.0,0.0,0.0,0.0,0.0,0.0,0.0,0.0,0.0,0.0,0.0,0.0,0.0,0.0,0.0,0.0,0.0,0.0,0.0,0.0,0.0,0.0,0.0,0.0,0.0,0.0,0.0,0.0,0.0,0.0,0.0,0.0,0.0,0.0,0.0,0.0,0.0,0.0,0.0,0.0,0.0,0.0,0.0,0.0,0.0,0.0,0.0,0.0,0.0,0.0,0.0,0.0,0.0,0.0,0.0,0.0,0.0,0.0,0.0,0.0,0.0,0.0,0.0,0.0,0.0,0.0,0.0,0.0,0.0,0.0,0.0,0.0,0.0,0.0,0.0,0.0,0.0,0.0,0.0,0.0,0.0,0.0,0.0,0.0,0.0,0.0,0.0,0.0,0.0,0.0,0.0,0.0,0.0,0.0,0.0,0.0,-5.112,-5.1246,-5.1246,-5.1183,-5.0994,-5.0741,-5.0359,-5.018,-5.0307,-4.9985,0.0,0.0,0.0,0.0,0.0,0.0,0.0,0.0,0.0,0.0,0.0,0.0,0.0,0.0,0.0,0.0,0.0,0.0,0.0,0.0,0.0,0.0,0.0,0.0,0.0,0.0,0.0,0.0,0.0,0.0,0.0,0.0,0.0,0.0,0.0,0.0,0.0,0.0,0.0,0.0,0.0,0.0,0.0,0.0,0.0,0.0,0.0,0.0,0.0,0.0,0.0,0.0,0.0,0.0,0.0,0.0,0.0,0.0,0.0,0.0,0.0,0.0,0.0,0.0,0.0,0.0,0.0,0.0,0.0,0.0,0.0,0.0,0.0,0.0,0.0,0.0,0.0,0.0,0.0,0.0,0.0,0.0,0.0,0.0,0.0,0.0,0.0,0.0,0.0,0.0,0.0,0.0,0.0,0.0,0.0,0.0,0.0,0.0,0.0,0.0,0.0,0.0,-5.1157,-5.1534,-5.1534,-5.1309,-5.112,-5.1057,-5.0487,-5.0332,-5.08,-5.0564,0.0,0.0,0.0,0.0,0.0,0.0,0.0,0.0,0.0,0.0,0.0,0.0,0.0,0.0,0.0,0.0,0.0,0.0,0.0,0.0,0.0,0.0,0.0,0.0,0.0,0.0,0.0,0.0,0.0,0.0,0.0,0.0,0.0,0.0,0.0,0.0,0.0,0.0,0.0,0.0,0.0,0.0,0.0,0.0,0.0,0.0,0.0,0.0,0.0,0.0,0.0,0.0,0.0,0.0,0.0,0.0,0.0,0.0,0.0,0.0,0.0,0.0,0.0,0.0,0.0,0.0,0.0,0.0,0.0,0.0,0.0,0.0,0.0,0.0,0.0,0.0,0.0,0.0,0.0,0.0,0.0,0.0,0.0,0.0,0.0,0.0,0.0,0.0,0.0,0.0,0.0,0.0,0.0,0.0,0.0,0.0,0.0,0.0,0.0,0.0,0.0,0.0,-5.0968,-5.1502,-5.2119,-5.2045,-5.2138,-5.2502,-5.2052,-5.1767,-5.1776,0.0,0.0,0.0,0.0,0.0,0.0,0.0,0.0,0.0,0.0,0.0,0.0,0.0,0.0,0.0,0.0,0.0,0.0,0.0,0.0,0.0,0.0,0.0,0.0,0.0,0.0,0.0,0.0,0.0,0.0,0.0,0.0,0.0,0.0,0.0,0.0,0.0,0.0,0.0,0.0,0.0,0.0,0.0,0.0,0.0,0.0,0.0,0.0,0.0,0.0,0.0,0.0,0.0,0.0,0.0,0.0,0.0,0.0,0.0,0.0,0.0,0.0,0.0,0.0,0.0,0.0,0.0,0.0,0.0,0.0,0.0,0.0,0.0,0.0,0.0,0.0,0.0,0.0,0.0,0.0,0.0,0.0,0.0,0.0,0.0,0.0,0.0,0.0,0.0,0.0,0.0,0.0,0.0,0.0,0.0,0.0,0.0,0.0,0.0,0.0,0.0,0.0,-5.1062,-5.1536,-5.2074,-5.2746,-5.2772,-5.2955,-5.3347,-5.3023,-5.271,-5.2561,0.0,0.0,0.0,0.0,0.0,0.0,0.0,0.0,0.0,0.0,0.0,0.0,0.0,0.0,0.0,0.0,0.0,0.0,0.0,0.0,0.0,0.0,0.0,0.0,0.0,0.0,0.0,0.0,0.0,0.0,0.0,0.0,0.0,0.0,0.0,0.0,0.0,0.0,0.0,0.0,0.0,0.0,0.0,0.0,0.0,0.0,0.0,0.0,0.0,0.0,0.0,0.0,0.0,0.0,0.0,0.0,0.0,0.0,0.0,0.0,0.0,0.0,0.0,0.0,0.0,0.0,0.0,0.0,0.0,0.0,0.0,0.0,0.0,0.0,0.0,0.0,0.0,0.0,0.0,0.0,0.0,0.0,0.0,0.0,0.0,0.0,0.0,0.0,0.0,0.0,0.0,0.0,0.0,0.0,0.0,0.0,0.0,0.0,0.0,0.0,0.0,0.0,-5.2254,-5.2919,-5.34,-5.34,-5.34,-5.34,-5.3426,-5.3049,-5.289,0.0,0.0,0.0,0.0,0.0,0.0,0.0,0.0,0.0,0.0,0.0,0.0,0.0,0.0,0.0,0.0,0.0,0.0,0.0,0.0,0.0,0.0,0.0,0.0,0.0,0.0,0.0,0.0,0.0,0.0,0.0,0.0,0.0,0.0,0.0,0.0,0.0,0.0,0.0,0.0,0.0,0.0,0.0,0.0,0.0,0.0,0.0,0.0,0.0,0.0,0.0,0.0,0.0,0.0,0.0,0.0,0.0,0.0,0.0,0.0,0.0,0.0,0.0,0.0,0.0,0.0,0.0,0.0,0.0,0.0,0.0,0.0,0.0,0.0,0.0,0.0,0.0,0.0,0.0,0.0,0.0,0.0,0.0,0.0,0.0,0.0,0.0,0.0,0.0,0.0,0.0,0.0,0.0,0.0,0.0,0.0,0.0,0.0,0.0,0.0,0.0,0.0,0.0,-5.2305,-5.2919,-5.353,-5.3922,-5.3949,-5.4131,-5.455,-5.451,-5.4256,-5.374,0.0,0.0,0.0,0.0,0.0,0.0,0.0,0.0,0.0,0.0,0.0,0.0,0.0,0.0,0.0,0.0,0.0,0.0,0.0,0.0,0.0,0.0,0.0,0.0,0.0,0.0,0.0,0.0,0.0,0.0,0.0,0.0,0.0,0.0,0.0,0.0,0.0,0.0,0.0,0.0,0.0,0.0,0.0,0.0,0.0,0.0,0.0,0.0,0.0,0.0,0.0,0.0,0.0,0.0,0.0,0.0,0.0,0.0,0.0,0.0,0.0,0.0,0.0,0.0,0.0,0.0,0.0,0.0,0.0,0.0,0.0,0.0,0.0,0.0,0.0,0.0,0.0,0.0,0.0,0.0,0.0,0.0,0.0,0.0,0.0,0.0,0.0,0.0,0.0,0.0,0.0,0.0,0.0,0.0,0.0,0.0,0.0,0.0,0.0,0.0,0.0,0.0,-5.2946,-5.3593,-5.438,-5.5258,-5.4879,-5.4879,-5.5815,-5.5405,-5.4831,-5.4241,0.0,0.0,0.0,0.0,0.0,0.0,0.0,0.0,0.0,0.0,0.0,0.0,0.0,0.0,0.0,0.0,0.0,0.0,0.0,0.0,0.0,0.0,0.0,0.0,0.0,0.0,0.0,0.0,0.0,0.0,0.0,0.0,0.0,0.0,0.0,0.0,0.0,0.0,0.0,0.0,0.0,0.0,0.0,0.0,0.0,0.0,0.0,0.0,0.0,0.0,0.0,0.0,0.0,0.0,0.0,0.0,0.0,0.0,0.0,0.0,0.0,0.0,0.0,0.0,0.0,0.0,0.0,0.0,0.0,0.0,0.0,0.0,0.0,0.0,0.0,0.0,0.0,0.0,0.0,0.0,0.0,0.0,0.0,0.0,0.0,0.0,0.0,0.0,0.0,0.0,0.0,0.0,0.0,0.0,0.0,0.0,0.0,0.0,0.0,0.0,0.0,0.0,-5.392,-5.4604,-5.5604,-5.6963,-5.6039,-5.5842,-5.7157,-5.6039,-5.5139,-5.4686,0.0,0.0,0.0,0.0,0.0,0.0,0.0,0.0,0.0,0.0,0.0,0.0,0.0,0.0,0.0,0.0,0.0,0.0,0.0,0.0,0.0,0.0,0.0,0.0,0.0,0.0,0.0,0.0,0.0,0.0,0.0,0.0,0.0,0.0,0.0,0.0,0.0,0.0,0.0,0.0,0.0,0.0,0.0,0.0,0.0,0.0,0.0,0.0,0.0,0.0,0.0,0.0,0.0,0.0,0.0,0.0,0.0,0.0,0.0,0.0,-4.6954,-4.7255,0.0,0.0,0.0,0.0,0.0,0.0,0.0,0.0,0.0,0.0,0.0,0.0,0.0,0.0,0.0,0.0,0.0,0.0,0.0,0.0,0.0,0.0,0.0,0.0,0.0,0.0,0.0,0.0,0.0,0.0,0.0,0.0,0.0,0.0,0.0,0.0,0.0,0.0,0.0,0.0,-5.3971,-5.4604,-5.5604,-5.6963,-5.6834,-5.7221,-5.8564,-5.7451,-5.6509,-5.609,-5.4994,0.0,0.0,0.0,0.0,0.0,0.0,0.0,0.0,0.0,0.0,0.0,0.0,0.0,0.0,0.0,0.0,0.0,0.0,0.0,0.0,0.0,0.0,0.0,0.0,0.0,0.0,0.0,0.0,0.0,0.0,0.0,0.0,0.0,0.0,0.0,0.0,0.0,0.0,0.0,0.0,0.0,0.0,0.0,0.0,0.0,0.0,0.0,0.0,0.0,0.0,0.0,0.0,0.0,0.0,0.0,0.0,0.0,0.0,0.0,-4.7631,-4.7807,0.0,0.0,0.0,0.0,0.0,0.0,0.0,0.0,0.0,0.0,0.0,0.0,0.0,0.0,0.0,0.0,0.0,0.0,0.0,0.0,0.0,0.0,0.0,0.0,0.0,0.0,0.0,0.0,0.0,0.0,0.0,0.0,0.0,0.0,0.0,0.0,0.0,0.0,0.0,0.0,-5.4861,-5.5046,-5.5842,-5.7834,-5.7451,-5.7386,-5.8088,-5.7515,-5.6769,-5.5881,-5.4953,0.0,0.0,0.0,0.0,0.0,0.0,0.0,0.0,0.0,0.0,0.0,0.0,0.0,0.0,0.0,0.0,0.0,0.0,0.0,0.0,0.0,0.0,0.0,0.0,0.0,0.0,0.0,0.0,0.0,0.0,0.0,0.0,0.0,0.0,0.0,0.0,0.0,0.0,0.0,0.0,0.0,0.0,0.0,0.0,0.0,0.0,0.0,0.0,0.0,0.0,0.0,0.0,0.0,-4.6175,-4.6702,-4.7093,-4.733,-4.7908,-4.8761,-4.836,-4.846,-4.8912,-4.8912,0.0,0.0,0.0,0.0,0.0,0.0,0.0,0.0,0.0,0.0,0.0,0.0,0.0,0.0,0.0,0.0,0.0,0.0,0.0,0.0,0.0,0.0,0.0,0.0,-5.2929,-5.2929,-5.2929,0.0,0.0,0.0,0.0,0.0,0.0,0.0,0.0,0.0,0.0,0.0,-5.5604,-5.5551,-5.6405,-5.8815,-5.8151,-5.7515,-5.777,-5.7578,-5.6963,-5.5842,-5.5313,-5.502,0.0,0.0,0.0,0.0,0.0,0.0,0.0,0.0,0.0,0.0,0.0,0.0,0.0,0.0,0.0,0.0,0.0,0.0,0.0,0.0,0.0,0.0,0.0,0.0,0.0,0.0,0.0,0.0,0.0,0.0,0.0,0.0,-5.3298,-5.1802,0.0,0.0,0.0,0.0,0.0,0.0,0.0,0.0,0.0,0.0,0.0,0.0,0.0,-4.4911,-4.5372,-4.5447,-4.5723,-4.62,-4.6753,-4.7054,-4.7093,-4.8134,-4.8636,-4.8786,-4.9188,0.0,-4.949,-4.949,0.0,0.0,0.0,0.0,0.0,0.0,0.0,0.0,0.0,0.0,0.0,0.0,0.0,0.0,0.0,0.0,0.0,0.0,0.0,0.0,0.0,0.0,-5.2929,-5.2929,-5.2929,-5.2929,0.0,-5.2929,-5.2929,-5.2929,-5.3204,0.0,0.0,0.0,0.0,0.0,0.0,0.0,-5.4619,-5.592,-5.7386,-5.894,-5.894,-5.9313,-6.0474,-5.9527,-5.8752,-5.8564,-5.7451,-5.7102,-5.7941,-5.5696,0.0,0.0,0.0,0.0,0.0,0.0,0.0,0.0,0.0,0.0,0.0,0.0,0.0,0.0,0.0,0.0,0.0,0.0,0.0,0.0,0.0,0.0,0.0,0.0,0.0,0.0,0.0,0.0,0.0,-5.4037,-5.3376,-5.2774,-5.2995,-5.2713,0.0,0.0,0.0,0.0,0.0,0.0,0.0,0.0,0.0,-4.5885,-4.5388,-4.5372,-4.5949,-4.5949,-4.6225,-4.6778,-4.7029,-4.7456,-4.8083,-4.856,-4.8937,-4.9238,-4.949,-4.9766,-5.0042,-4.9715,-4.9766,-5.0067,0.0,0.0,0.0,0.0,-5.2302,-5.2603,-5.2854,-5.2929,-5.2929,-5.2929,0.0,0.0,0.0,0.0,0.0,0.0,0.0,0.0,0.0,0.0,-5.2929,-5.2929,-5.2929,-5.2929,-5.2929,-5.2929,-5.2998,0.0,-5.3546,-5.3682,-5.3273,0.0,0.0,0.0,0.0,-5.4619,-5.5525,-5.5815,-5.6471,-5.7834,-5.8627,-5.869,-5.7797,-5.8564,-5.8439,-5.6963,-5.6275,-5.6144,-5.6574,-5.5986,-5.5828,0.0,0.0,0.0,0.0,0.0,0.0,0.0,0.0,0.0,0.0,0.0,0.0,0.0,0.0,0.0,0.0,0.0,0.0,0.0,0.0,0.0,0.0,0.0,0.0,0.0,0.0,0.0,0.0,-5.33,-5.2812,-5.3288,-5.305,-5.2664,0.0,0.0,0.0,0.0,0.0,0.0,-4.6604,-4.6363,-4.6097,-4.5732,-4.5698,-4.5899,-4.6301,-4.6451,-4.6728,-4.7068,-4.7431,-4.7983,-4.8786,-4.8912,-4.9213,-4.9615,-4.9741,-5.0042,-5.0393,-4.9967,-5.0142,-5.0645,-5.0795,-5.1373,-5.2126,-5.2251,-5.2578,-5.2929,-5.2929,-5.2929,-5.2929,-5.2929,-5.2929,-5.2929,-5.2929,0.0,0.0,0.0,0.0,-5.2929,-5.2929,-5.2929,-5.2929,-5.2929,-5.2929,-5.2929,-5.2929,-5.2929,-5.2998,0.0,-5.3725,-5.3861,-5.3546,0.0,0.0,-5.3793,-5.4174,-5.4887,-5.5986,-5.5815,-5.5973,-5.6963,-5.8024,-5.7897,-5.6275,-5.7961,-5.8376,-5.6731,-5.6275,-5.6405,-5.7092,-5.6807,-5.6973,-5.7679,0.0,0.0,0.0,0.0,0.0,0.0,0.0,0.0,0.0,0.0,0.0,0.0,0.0,0.0,0.0,0.0,0.0,0.0,0.0,0.0,0.0,0.0,0.0,0.0,0.0,0.0,0.0,0.0,0.0,-5.1548,-5.1693,0.0,0.0,0.0,0.0,-4.9957,-4.9308,-4.8478,-4.7148,-4.6552,-4.6285,-4.6276,-4.6276,-4.6276,-4.6301,-4.6828,-4.7043,-4.7093,-4.8184,-4.8711,-4.8786,-4.9314,-4.9565,-4.9615,-5.0142,-5.0393,-5.0419,-5.0393,-5.072,-5.1297,-5.1825,-5.2051,-5.2176,-5.2678,-5.2904,-5.2929,-5.2929,-5.2929,-5.2929,-5.2929,-5.2929,-5.2929,-5.2929,-5.2929,0.0,0.0,-5.2929,-5.2929,-5.2929,-5.2929,-5.2929,-5.2929,-5.2929,-5.2929,-5.2929,-5.2929,-5.2929,0.0,-5.3521,-5.3861,-5.3546,0.0,-5.4511,-5.4443,-5.4511,-5.4645,-5.5099,-5.6209,-5.7028,-5.7092,-5.7157,-5.7642,-5.8815,-5.9002,-5.9588,-6.0716,-5.9588,-6.0079,-6.2585,-5.9064,-5.8277,-6.0837,-5.9683,0.0,0.0,0.0,0.0,0.0,0.0,0.0,0.0,0.0,0.0,0.0,0.0,0.0,0.0,0.0,0.0,0.0,0.0,0.0,0.0,0.0,0.0,0.0,0.0,0.0,0.0,0.0,0.0,-5.202,-5.1875,0.0,-5.2746,-5.3036,-5.2248,-5.0023,-4.969,-4.8699,-4.6688,-4.6415,-4.6301,-4.6301,-4.6301,-4.6476,-4.6828,-4.6968,-4.7481,-4.8184,-4.8586,-4.8962,-4.9314,-4.9515,-4.9791,-5.0142,-5.0343,-5.082,-5.1498,-5.1498,-5.1624,-5.1825,-5.2026,-5.2327,-5.2653,-5.2854,-5.2929,-5.2929,-5.2929,-5.2929,-5.2929,-5.2929,-5.2929,-5.2929,-5.2929,-5.2929,-5.2929,-5.2929,-5.2929,-5.2929,-5.2929,-5.2929,-5.2929,-5.2929,-5.2929,-5.2929,-5.2929,-5.3136,-5.3273,-5.3273,-5.3657,-5.3997,-5.3861,-5.4402,-5.4805,-5.4578,-5.4712,-5.4965,-5.5099,-5.5538,-5.6144,-5.7028,-5.7092,-5.7258,-5.777,-5.7834,-5.7642,-5.7285,-5.7578,-5.8277,-5.9217,-5.9527,-6.0141,-6.1077,-6.1465,-6.1703,0.0,0.0,0.0,0.0,0.0,0.0,0.0,0.0,0.0,0.0,0.0,0.0,0.0,0.0,0.0,0.0,0.0,0.0,0.0,0.0,0.0,0.0,0.0,0.0,0.0,-5.0892,-5.0394,-5.2391,-5.202,-5.2107,-5.3384,-5.35,-5.2487,-5.007,-4.9901,-4.8846,-4.6421,-4.6301,-4.6301,-4.6301,-4.6502,-4.6753,-4.7068,-4.7506,-4.8058,-4.8761,-4.8962,-4.9238,-4.9615,-4.9791,-5.0067,-5.0444,-5.082,-5.1423,-5.2126,-5.2302,-5.2377,-5.2377,-5.2377,-5.2603,-5.2929,-5.2929,-5.2929,-5.2929,-5.2929,-5.2929,-5.2929,-5.2929,-5.2929,-5.2929,-5.2929,-5.2929,-5.2929,-5.2929,-5.2929,-5.2929,-5.2929,-5.2929,-5.2929,-5.2929,-5.2929,-5.2929,-5.3067,-5.3341,-5.3546,-5.3682,-5.3929,-5.4174,-5.4174,-5.4671,-5.5032,-5.4738,-5.4939,-5.5099,-5.5099,-5.5099,-5.5405,-5.634,-5.6405,-5.6601,-5.7092,-5.7092,-5.7092,-5.7092,-5.7515,-5.8214,-5.9093,-6.0413,-6.1106,-6.1106,-6.1969,-6.2643,-6.3079,0.0,0.0,0.0,0.0,0.0,0.0,0.0,0.0,0.0,0.0,0.0,0.0,0.0,0.0,0.0,0.0,0.0,0.0,0.0,0.0,0.0,0.0,0.0,-5.0589,-5.0153,-5.0473,-5.2362,-5.202,-5.2136,-5.3384,-5.35,-5.2487,-5.007,-4.9901,-4.8846,-4.6421,-4.6301,-4.6326,-4.6326,-4.6853,-4.7093,-4.7118,-4.8234,-4.8786,-4.8812,-4.9339,-4.9615,-4.964,-5.0167,-5.0444,-5.0519,-5.1624,-5.2126,-5.2176,-5.2703,-5.2929,-5.2929,-5.2929,-5.2929,-5.2929,-5.2929,-5.2929,-5.2929,-5.2929,-5.2929,-5.2929,-5.2929,-5.2929,-5.2929,-5.2929,-5.2929,-5.2929,-5.2929,-5.2929,-5.2929,-5.2929,-5.2929,-5.2929,-5.2929,-5.2929,-5.2998,-5.341,-5.3478,-5.3614,-5.3929,-5.4309,-5.4511,-5.4511,-5.4805,-5.5099,-5.5099,-5.5099,0.0,-5.5099,-5.5099,-5.5099,-5.5165,-5.5099,-5.567,-5.6963,-5.7092,-5.8151,-6.0776,-5.9773,-6.0202,-6.2875,-6.1762,-6.1106,-6.1166,-6.1137,-6.1762,-6.3079,0.0,0.0,0.0,0.0,0.0,0.0,0.0,0.0,0.0,0.0,0.0,0.0,0.0,0.0,0.0,0.0,0.0,0.0,0.0,0.0,0.0,-4.9863,-5.0019,-5.0858,-5.0652,-5.0772,-5.1759,-5.2136,-5.263,-5.3442,-5.35,-5.2487,-5.007,-4.9901,-4.8846,-4.6421,-4.6301,-4.6502,-4.6903,-4.6993,-4.7506,-4.8309,-4.8611,-4.8962,-4.9364,-4.9515,-4.9791,-5.0193,-5.0343,-5.087,-5.1649,-5.1975,-5.2327,-5.2703,-5.2854,-5.2929,-5.2929,-5.2929,-5.2929,-5.2929,-5.2929,-5.2929,-5.2929,-5.2929,-5.2929,-5.2929,-5.2929,-5.2929,-5.2929,-5.2929,-5.2929,-5.2929,-5.2929,-5.2929,-5.2929,-5.2929,-5.2929,-5.2929,-5.2929,-5.2929,-5.2998,-5.341,-5.3682,-5.3997,-5.4309,-5.4671,-5.4872,-5.4578,-5.4805,-5.5099,-5.5099,-5.5099,0.0,-5.5099,-5.5099,-5.5472,-5.6471,-5.567,-5.567,-5.6963,-5.6209,-5.5973,-5.6731,-5.735,-5.8404,-6.0141,-6.0776,-6.1584,-6.2526,-6.2585,-6.2701,0.0,0.0,0.0,0.0,0.0,0.0,0.0,0.0,0.0,0.0,0.0,0.0,0.0,0.0,0.0,0.0,0.0,0.0,0.0,0.0,0.0,0.0,-4.9717,-4.9912,-5.043,-5.0613,-5.0917,-5.1556,-5.2165,-5.2833,-5.3442,-5.35,-5.2487,-5.007,-4.9901,-4.8846,-4.6421,-4.6527,-4.6803,-4.7068,-4.7581,-4.8134,-4.8761,-4.9012,-4.9264,-4.959,-4.9816,-5.0117,-5.0444,-5.0896,-5.1473,-5.2126,-5.2352,-5.2628,-5.2929,-5.2929,-5.2929,0.0,0.0,0.0,0.0,0.0,-5.2929,-5.2929,-5.2929,-5.2929,-5.2929,-5.2929,-5.2929,-5.2929,-5.2929,-5.2929,-5.2929,-5.2929,-5.2929,-5.2929,-5.2929,-5.2929,-5.2929,-5.2929,-5.2998,-5.3273,-5.3614,-5.3997,-5.4309,-5.4671,-5.4965,0.0,-5.4805,-5.4939,-5.5099,-5.5099,-5.5099,-5.5099,-5.5099,-5.5099,-5.5405,-5.617,-5.5538,-5.5405,-5.6236,-5.5538,0.0,0.0,0.0,-5.8752,-6.0687,-6.0957,0.0,0.0,0.0,-6.2526,-6.3079,0.0,0.0,0.0,-6.2899,-6.2869,0.0,0.0,0.0,0.0,0.0,0.0,0.0,0.0,0.0,0.0,0.0,0.0,0.0,0.0,0.0,0.0,-4.9717,-4.9717,-4.9717,-5.0307,-5.1004,-5.1556,-5.2252,-5.2891,-5.3471,-5.35,-5.2487,-5.007,-4.9983,-4.8952,-4.6522,0.0,0.0,0.0,0.0,-4.8812,-4.8862,-4.9464,-4.9766,-4.969,-5.0318,-5.0619,-5.0645,-5.1649,-5.2126,-5.2226,-5.2703,-5.2929,-5.2929,-5.2929,-5.2929,-5.2929,-5.2929,-5.2929,-5.2929,-5.2929,-5.2929,-5.2929,-5.2929,0.0,0.0,-5.2929,-5.2929,-5.2929,-5.2929,-5.2929,-5.2929,-5.2929,-5.2929,-5.2929,-5.2929,-5.2929,-5.2929,-5.2929,-5.3204,-5.3614,-5.3929,-5.4241,-5.4645,-5.5032,-5.5099,-5.5099,-5.5099,-5.5099,-5.5099,-5.5099,-5.5099,-5.5099,-5.5099,-5.5099,-5.5099,-5.5099,0.0,0.0,-5.5099,-5.5099,-5.5604,-5.6769,-5.8151,-5.999,-6.2555,-6.1643,-6.1703,-6.3079,-6.1969,-6.191,-6.3079,-6.3079,-6.3079,-6.3079,-6.3079,-6.3079,0.0,0.0,0.0,0.0,0.0,0.0,0.0,0.0,0.0,0.0,0.0,0.0,0.0,0.0,0.0,-4.9717,-4.9717,-4.9717,-4.9717,-5.0685,-5.1468,-5.1614,-5.263,-5.3384,-5.35,-5.35,-5.2487,-5.007,-5.0306,-4.9478,-4.7075,-4.7481,-4.7983,-4.8435,-4.8661,-4.8987,-4.9439,-5.0444,-5.072,-5.0268,0.0,0.0,-5.1774,-5.2,-5.2352,-5.2779,-5.2879,-5.2929,-5.2929,-5.2929,-5.2929,-5.2929,-5.2929,-5.2929,-5.2929,-5.2929,-5.2929,-5.2929,-5.2929,-5.2929,-5.2929,-5.2929,-5.2929,-5.2929,-5.2929,-5.2929,0.0,-5.2929,-5.2929,-5.2929,-5.2929,-5.2929,-5.2929,-5.2929,-5.3204,-5.3614,-5.3929,-5.4241,-5.4645,-5.5032,-5.5099,-5.5099,-5.5099,-5.5099,-5.5099,-5.5099,-5.5099,-5.5099,-5.5099,-5.5099,-5.5099,-5.5099,-5.5099,-5.5099,-5.5099,-5.5099,-5.5232,-5.5472,-5.6769,-5.8214,-5.9806,-6.0655,-6.1703,-6.3079,-6.2817,-6.2817,-6.3079,-6.3079,-6.3079,-6.3079,-6.3079,-6.3079,0.0,0.0,0.0,0.0,0.0,0.0,0.0,0.0,0.0,0.0,0.0,-5.0357,-4.9766,0.0,-4.9717,-4.9717,-4.9717,-4.9785,-5.0133,-5.1004,-5.1614,-5.1614,-5.2746,-5.35,-5.35,-5.35,-5.263,-5.0449,-5.0577,-4.977,-4.7629,-4.8033,-4.846,-4.8761,-4.9314,-4.9866,-5.0444,-5.1272,-5.1548,-5.1272,-5.2126,-5.2377,-5.2126,-5.2402,-5.2678,-5.2929,-5.2929,-5.2929,-5.2929,-5.2929,-5.2929,-5.2929,-5.2929,-5.2929,-5.2929,-5.2929,-5.2929,-5.2929,-5.2929,-5.2929,-5.2929,-5.2929,-5.2929,-5.2929,-5.2929,-5.2929,-5.298,-5.3231,-5.3306,-5.3381,-5.3658,-5.3758,-5.3803,-5.3942,-5.429,-5.473,-5.5074,-5.5391,-5.5731,-5.5893,-5.5961,-5.5961,-5.5961,-5.5961,-5.5752,-5.5203,-5.5099,-5.5099,-5.5099,-5.5099,-5.5099,-5.5099,-5.5099,-5.5099,-5.5099,-5.5099,-5.5405,-5.6039,-5.7322,-5.869,-6.0018,-6.1405,-6.241,-6.3079,-6.3079,-6.3079,-6.3079,-6.3079,-6.3079,-6.3079,-6.3079,-6.3079,0.0,0.0,0.0,0.0,0.0,0.0,0.0,-5.3108,-5.2154,-5.0757,-5.0453,-5.0279,-4.9766,-4.9717,-4.9717,-4.9717,-4.9785,-5.0095,-5.0598,-5.1323,-5.1817,-5.1817,-5.2804,-5.35,-5.35,-5.3646,-5.2832,-5.0884,-5.0898,-5.0194,-4.8158,-4.8611,-4.9038,-4.9238,-5.0117,-5.0921,-5.1599,-5.2151,-5.2377,-5.2277,-5.2829,-5.2779,-5.2277,-5.2729,-5.2929,-5.2929,-5.2929,-5.298,-5.308,-5.308,-5.313,-5.3256,-5.3256,-5.3256,-5.3231,-5.313,-5.3155,-5.3256,-5.3256,-5.3256,-5.3256,-5.3256,-5.3256,-5.3256,-5.3256,-5.3256,-5.3356,-5.3884,-5.4034,-5.416,-5.4737,-5.4959,-5.5102,-5.536,-5.5708,-5.6077,-5.6357,-5.6626,-5.6798,-5.6798,-5.6798,-5.6798,-5.6798,-5.6798,-5.6484,-5.5569,-5.5438,-5.5438,-5.5438,-5.5438,-5.5438,-5.5438,-5.5438,-5.5438,-5.5438,-5.5438,-5.5987,-5.7353,-5.8309,-5.9572,-6.1191,-6.2204,-6.2817,-6.3079,-6.3079,-6.3079,-6.3079,-6.3079,-6.3079,-6.3079,-6.3079,-6.3079,-5.6719,-5.668,-5.6525,-5.5636,-5.5393,-5.4828,0.0,-5.2485,-5.1896,-5.0757,-5.0309,-5.0038,-4.9717,-4.9717,-4.9717,-4.9717,-5.0211,-5.0598,-5.0705,-5.1701,-5.2507,-5.2507,-5.3094,-5.35,-5.35,-5.4052,-5.34,-5.0911,-5.1715,-5.1289,-4.885,-4.9213,-4.9967,-5.0971,-5.1122,-5.1699,-5.2729,-5.3256,-5.3281,-5.2854,-5.3356,-5.3331,-5.2829,-5.2904,-5.2929,-5.2929,-5.2929,-5.3181,-5.3607,-5.3607,-5.3909,-5.4386,-5.4386,-5.4386,-5.431,-5.3808,-5.3934,-5.4386,-5.4386,-5.4386,-5.4386,-5.4386,-5.4386,-5.4386,-5.4386,-5.4386,-5.4486,-5.5039,-5.5189,-5.534,-5.5892,-5.6334,-5.6526,-5.6598,-5.679,-5.6996,-5.6996,-5.6886,-5.6798,-5.6798,-5.6798,-5.6798,-5.6798,-5.6798,-5.6771,-5.6641,-5.6615,-5.6615,-5.6615,-5.6615,-5.6615,-5.6615,-5.6615,-5.6615,-5.6615,-5.6615,-5.7203,-5.86,-5.8282,-5.9181,-6.1768,-6.1488,-6.191,-6.3079,-6.3079,-6.3079,-6.3079,-6.3079,-6.3079,-6.3079,-6.3079,-6.3079,-5.668,-5.6297,-5.5789,-5.5393,-5.4495,-5.3471,-5.2575,-5.185,-5.1139,-5.0423,-5.0183,-5.0038,-4.9717,-4.9717,-4.9863,-5.0191,-5.0481,-5.0996,-5.1672,-5.2274,-5.2717,-5.3065,-5.3704,-5.4081,-5.4081,-5.4342,-5.4073,-5.3016,-5.2642,-5.1883,-5.043,-5.0521,-5.0795,-5.1272,-5.19,-5.2603,-5.3356,-5.3582,-5.3582,-5.3381,-5.3607,-5.3432,-5.2929,-5.2929,-5.308,-5.3381,-5.3381,-5.3683,-5.421,-5.421,-5.4336,-5.4561,-5.4561,-5.4762,-5.4988,-5.4411,-5.4361,-5.4561,-5.4561,-5.4561,-5.4561,-5.4561,-5.4787,-5.5039,-5.5039,-5.5265,-5.5641,-5.6194,-5.6344,-5.6468,-5.694,-5.7137,-5.728,-5.7431,-5.7532,-5.7636,-5.7874,-5.7833,-5.7791,-5.7791,-5.7791,-5.7791,-5.7791,-5.7791,-5.7791,-5.7791,-5.7242,-5.6798,-5.6798,-5.6798,-5.6798,-5.6798,-5.6798,-5.6798,-5.6798,-5.6798,-5.7072,-5.7633,-5.8942,-6.0142,-6.1348,-6.263,-6.3446,-6.3617,-6.3617,-6.3438,-6.3079,-6.3079,-6.3079,-6.3079,-6.3079,-6.3079,-5.668,-5.5988,-5.5239,-5.5026,-5.3762,-5.2471,-5.1942,-5.1263,-5.0585,-5.0183,-5.0038,-4.9999,-4.9979,-5.0008,-5.0162,-5.083,-5.1091,-5.1577,-5.2478,-5.2717,-5.3007,-5.3471,-5.411,-5.4575,-5.4749,-5.4923,-5.4895,-5.4543,-5.3433,-5.2554,-5.1999,-5.1583,-5.1498,-5.1925,-5.2729,-5.3406,-5.3934,-5.3783,-5.3708,-5.3708,-5.3557,-5.3281,-5.2929,-5.308,-5.3432,-5.3934,-5.3934,-5.426,-5.4787,-5.4787,-5.4888,-5.5013,-5.5013,-5.5265,-5.5566,-5.5164,-5.5013,-5.5013,-5.5013,-5.5013,-5.5039,-5.5189,-5.5516,-5.5867,-5.6043,-5.6369,-5.6771,-5.7173,-5.7348,-5.7471,-5.7793,-5.7989,-5.8181,-5.8352,-5.8336,-5.8375,-5.8687,-5.8627,-5.8523,-5.8523,-5.8523,-5.8523,-5.8523,-5.8523,-5.8523,-5.8523,-5.7817,-5.7268,-5.7268,-5.7268,-5.7268,-5.7268,-5.7268,-5.7268,-5.7268,-5.7268,-5.7614,-5.8384,-6.0176,-6.1493,-6.2257,-6.403,-6.4784,-6.4306,-6.4276,-6.4066,-6.3617,-6.3617,-6.3528,-6.3318,-6.3318,-6.3228,-5.668,-5.5988,-5.5108,-5.4274,-5.3284,-5.229,-5.1122,-5.0662,-5.0453,-5.0135,-4.9892,-4.9921,-5.056,-5.0705,-5.0859,-5.1468,-5.2107,-5.2565,-5.2623,-5.3094,-5.35,-5.35,-5.411,-5.4749,-5.5329,-5.5968,-5.5816,-5.4599,-5.3846,-5.3359,-5.3138,-5.1951,-5.2,-5.3582,-5.3658,-5.3959,-5.4607,-5.3984,-5.3708,-5.3683,-5.3181,-5.2955,-5.2955,-5.3457,-5.3984,-5.4536,-5.4536,-5.4863,-5.5365,-5.5365,-5.5666,-5.6168,-5.6168,-5.6168,-5.6194,-5.6168,-5.6168,-5.6168,-5.6168,-5.6168,-5.6244,-5.6796,-5.6972,-5.7097,-5.765,-5.7826,-5.7851,-5.7876,-5.8076,-5.835,-5.835,-5.8945,-5.951,-5.9558,-5.9435,-5.9333,-5.9333,-5.8915,-5.8523,-5.8523,-5.8523,-5.8523,-5.8523,-5.8523,-5.8523,-5.8523,-5.8497,-5.847,-5.847,-5.847,-5.847,-5.847,-5.847,-5.847,-5.847,-5.847,-5.9654,-6.2452,-6.209,-6.3007,-6.5709,-6.5293,-6.5024,-6.4994,-6.4994,-6.4994,-6.4964,-6.4964,-6.4635,-6.3977,-6.3977,-6.3647,-5.5948,-5.5108,-5.4232,-5.3284,-5.2245,-5.1263,-5.071,-5.0423,-5.0281,-5.0446,-5.0435,-5.054,-5.1178,-5.1294,-5.1497,-5.2136,-5.2426,-5.2717,-5.3123,-5.3384,-5.3675,-5.411,-5.472,-5.5358,-5.5997,-5.6287,-5.6382,-5.6363,-5.4568,-5.3592,-5.3878,-5.263,-5.2251,-5.3155,-5.3507,-5.3808,-5.3984,-5.3457,-5.3181,-5.3181,-5.3356,-5.3632,-5.4009,-5.4185,-5.4587,-5.5114,-5.5114,-5.5415,-5.5942,-5.5942,-5.6043,-5.6219,-5.6219,-5.6445,-5.6746,-5.6746,-5.6997,-5.7273,-5.6897,-5.6746,-5.6846,-5.7424,-5.76,-5.765,-5.7851,-5.7901,-5.7976,-5.8176,-5.8326,-5.8449,-5.861,-5.8873,-5.9061,-5.8889,-5.8869,-5.881,-5.881,-5.8653,-5.8523,-5.8523,-5.8523,-5.8523,-5.8523,-5.8523,-5.8523,-5.8523,-5.8523,-5.8523,-5.8523,-5.8523,-5.8523,-5.8523,-5.8523,-5.8523,-5.8523,-5.8523,-5.9315,-6.1233,-6.2047,-6.3313,-6.522,-6.5941,-6.6131,-6.5682,-6.5682,-6.5473,-6.5024,-6.5024,-6.4904,-6.4695,-6.4695,-6.4575,-5.6341,-5.5448,-5.4573,-5.3957,-5.2671,-5.1439,-5.1227,-5.0984,-5.0856,-5.0967,-5.1004,-5.1207,-5.1846,-5.1962,-5.2165,-5.2804,-5.2891,-5.3065,-5.3471,-5.3733,-5.4023,-5.4458,-5.5242,-5.5939,-5.6374,-5.681,-5.7158,-5.7303,-5.5137,-5.41,-5.4851,-5.3292,-5.2653,-5.3181,-5.3532,-5.3607,-5.3432,-5.308,-5.303,-5.3206,-5.3758,-5.431,-5.4863,-5.4863,-5.5164,-5.5691,-5.5691,-5.5993,-5.652,-5.652,-5.662,-5.6821,-5.6821,-5.7022,-5.7349,-5.7349,-5.7575,-5.7851,-5.7474,-5.7349,-5.7449,-5.8001,-5.8202,-5.8202,-5.8202,-5.8202,-5.8177,-5.8124,-5.8245,-5.834,-5.8435,-5.8569,-5.8635,-5.853,-5.8523,-5.8523,-5.8523,-5.8523,-5.8523,-5.8523,-5.8523,-5.8523,-5.8523,-5.8523,-5.8523,-5.8523,-5.8523,-5.8523,-5.8523,-5.8523,-5.8523,-5.8523,-5.8523,-5.8523,-5.8523,-5.8523,-5.9105,-6.0483,-6.1975,-6.3431,-6.4816,-6.626,-6.6789,-6.637,-6.637,-6.6161,-6.5712,-6.5712,-6.5592,-6.5383,-6.5383,-6.5263,-5.7721,-5.689,-5.5955,-5.5866,-5.4326,-5.2714,-5.2466,-5.2168,-5.1917,-5.1722,-5.1672,-5.1875,-5.2514,-5.2681,-5.2804,-5.3413,-5.3559,-5.3559,-5.3559,-5.4139,-5.4575,-5.4604,-5.5678,-5.6432,-5.649,-5.7594,-5.8001,-5.7335,0.0,-5.4797,-5.5834,-5.3948,-5.313,-5.3632,-5.3658,-5.3432,-5.2929,-5.2955,-5.3256,-5.3783,-5.4336,-5.4888,-5.544,-5.544,-5.5717,-5.6219,-5.6244,-5.6545,-5.7022,-5.7072,-5.7399,-5.7901,-5.7901,-5.7926,-5.7951,-5.7951,-5.7951,-5.7976,-5.7976,-5.7951,-5.8027,-5.8579,-5.8755,-5.873,-5.873,-5.8704,-5.8529,-5.7894,-5.7983,-5.8195,-5.8063,-5.8265,-5.8549,-5.8523,-5.8523,-5.8523,-5.8523,-5.8523,-5.8523,-5.8523,-5.8523,-5.8523,-5.8523,-5.8523,-5.8523,-5.8523,-5.8523,-5.8523,-5.8523,-5.8523,-5.8523,-5.8523,-5.8523,-5.8523,-5.8523,-5.8523,-5.9105,-6.062,-6.2042,-6.3431,-6.4944,-6.626,-6.6999,-6.6999,-6.6999,-6.6999,-6.6999,-6.6999,-6.667,-6.6071,-6.6071,-6.5712,-5.6862,-5.6225,-5.5642,-5.4232,-5.3193,-5.2466,-5.2417,-5.2017,-5.181,-5.2274,-5.2339,-5.2514,-5.3152,-5.3268,-5.3326,-5.3471,-5.3936,-5.4255,-5.4255,-5.4807,-5.5358,-5.5881,-5.62,-5.6781,-5.771,-5.8116,-5.8003,-5.7296,-5.5872,-5.4853,-5.451,-5.312,-5.2553,-5.3105,-5.313,-5.3055,-5.2929,-5.3306,-5.3984,-5.4963,-5.5114,-5.5465,-5.6018,-5.6018,-5.6068,-5.6244,-5.6646,-5.6897,-5.7072,-5.7499,-5.7775,-5.7901,-5.7901,-5.8152,-5.8504,-5.8478,-5.873,-5.9081,-5.9081,-5.883,-5.8604,-5.9131,-5.9031,-5.873,-5.873,-5.8656,-5.8553,-5.8695,-5.8988,-5.9226,-5.9091,-5.9078,-5.9045,-5.8627,-5.8523,-5.8523,-5.8523,-5.8523,-5.8523,-5.8523,-5.8523,-5.8523,-5.8523,-5.8523,-5.8523,-5.8523,-5.8523,-5.8523,-5.8523,-5.8523,-5.8523,-5.8523,-5.8523,-5.8523,-5.8523,-5.8523,-5.9568,-6.2109,-6.2575,-6.3887,-6.6322,-6.6785,-6.6999,-6.6999,-6.6999,-6.6999,-6.6999,-6.6999,-6.6909,-6.6759,-6.6759,-6.664,-5.7517,-5.7007,-5.6552,-5.5101,-5.3963,-5.3242,-5.3242,-5.2785,-5.2543,-5.292,-5.2978,-5.3094,-5.3442,-5.35,-5.3617,-5.3907,-5.4255,-5.4604,-5.4865,-5.5445,-5.5997,-5.6374,-5.6897,-5.7507,-5.8232,-5.8813,-5.8457,-5.687,-5.6092,-5.5156,-5.404,-5.302,-5.2603,-5.2929,-5.2929,-5.303,-5.3256,-5.4059,-5.4762,-5.539,-5.5641,-5.5917,-5.6219,-5.647,-5.657,-5.6595,0.0,-5.7549,-5.7801,-5.8127,-5.8403,-5.8604,-5.8604,-5.878,-5.9056,-5.9031,-5.9232,-5.9483,-5.9483,-5.9307,-5.9106,-5.9408,-5.9307,-5.9006,-5.878,-5.8782,-5.893,-5.9048,-5.9367,-5.9731,-5.9757,-5.9751,-5.9594,-5.9019,-5.9072,-5.9202,-5.8941,-5.8889,-5.881,-5.8549,-5.8523,-5.8523,-5.8523,-5.8523,-5.8523,-5.8523,-5.8523,-5.8523,-5.8523,-5.8523,-5.8523,-5.8523,-5.8523,-5.8523,-5.8523,-5.9035,-6.0096,-6.1706,-6.3037,-6.4432,-6.6011,-6.6661,-6.6999,-6.6999,-6.6999,-6.6999,-6.6999,-6.6999,-6.6999,-6.6999,-6.6999,-6.6999,-5.8561,-5.8096,-5.7668,-5.6638,-5.5341,-5.4304,-5.4304,-5.3919,-5.35,-5.35,-5.35,-5.353,-5.3617,-5.3646,-5.3849,-5.4517,-5.4691,-5.4952,-5.5474,-5.6113,-5.6549,-5.6665,-5.7623,-5.8377,-5.8552,-5.9363,-5.8892,-5.6405,-5.6087,-5.5317,-5.3907,-5.3241,-5.2955,-5.303,-5.303,-5.3331,-5.3909,-5.4888,-5.5415,-5.5491,-5.5993,-5.6244,-5.6344,-5.6821,-5.7072,-5.7173,-5.775,0.0,-5.873,-5.8805,-5.9081,-5.9483,-5.9483,-5.9483,-5.9483,-5.9483,-5.9483,-5.9483,-5.9483,-5.9483,-5.9483,-5.9483,-5.9483,-5.9408,-5.9007,-5.9161,-5.9439,-5.943,-5.9647,-6.0116,-6.0384,-6.0457,-6.0326,-5.983,-6.0091,-6.03,-5.9725,-5.9542,-5.9333,-5.8836,-5.8679,-5.8627,-5.8627,-5.8549,-5.8523,-5.8523,-5.8523,-5.8523,-5.8523,-5.8523,-5.8523,-5.8523,-5.8523,-5.8523,-5.8523,-5.9777,-6.0688,-6.0893,-6.3403,-6.5007,-6.5134,-6.6322,-6.6999,-6.6999,-6.6999,-6.6999,-6.6999,-6.6999,-6.6999,-6.6999,-6.6999,-6.6999,-5.7418,-5.6929,-5.6638,-5.57,-5.4896,-5.4304,-5.4304,-5.3919,-5.35,-5.35,-5.35,-5.3675,-5.4226,-5.4342,-5.4546,-5.5155,-5.5707,-5.6113,-5.6229,-5.6781,-5.7361,-5.7913,-5.8174,-5.8726,-5.9771,-5.9051,-5.7992,-5.6912,-5.58,-5.4597,-5.3164,-5.2948,-5.313,-5.3557,-5.3557,-5.4059,-5.5089,-5.529,-5.5616,-5.6068,-5.6168,-5.6445,-5.6897,-5.6997,-5.7298,-5.7775,-5.8328,0.0,-5.8755,-5.9182,-5.9408,-5.9483,-5.9483,-5.9483,-5.9483,-5.9483,-5.9483,-5.9483,-5.9483,-5.9483,-5.9483,-5.9483,-5.9483,-5.956,-5.9767,-6.0125,-6.0481,-6.0934,-6.1285,-6.1584,-6.1659,-6.1659,-6.1633,-6.1529,-6.1607,-6.1502,-6.0927,-6.0431,-6.0039,-5.9934,-5.9542,-5.9202,-5.9202,-5.8836,-5.8523,-5.8523,-5.8523,-5.8523,-5.8523,-5.8523,-5.8523,-5.8523,-5.8523,-5.8523,-5.8523,-5.9777,-6.1097,-6.2375,-6.3952,-6.5416,-6.66,-6.6846,-6.6999,-6.6999,-6.6999,-6.6999,-6.6999,-6.6999,-6.6999,-6.6999,-6.6999,-6.6999,-5.6991,-5.659,-5.6347,-5.5431,-5.4875,-5.4576,-5.4798,-5.4521,-5.4269,-5.4429,-5.4487,-5.4604,-5.4923,-5.4981,-5.5184,-5.5823,-5.62,-5.6636,-5.7303,-5.7652,-5.8058,-5.8755,-5.9103,-5.9216,-5.9108,-5.8843,-5.7882,-5.6064,-5.5393,-5.435,-5.2998,-5.3181,-5.3432,-5.3683,-5.4285,-5.4838,-5.539,-5.5666,-5.5942,-5.6219,-5.6219,-5.6495,-5.7047,-5.7349,-5.7801,-5.8353,-5.888,0.0,-5.9156,-5.9382,-5.9483,-5.9483,-5.9483,-5.9483,-5.9483,-5.9483,-5.9483,-5.9483,-5.9483,-5.9483,-5.9483,-5.9483,-5.9483,-5.9585,-5.9971,-6.0355,-6.0864,-6.163,-6.2114,-6.2496,-6.2783,-6.2862,-6.2783,-6.2496,-6.2417,-6.226,-6.1685,-6.1346,-6.0953,-6.0326,-5.9986,-5.9725,-5.9411,-5.915,-5.8862,-5.8549,-5.8523,-5.8523,-5.8523,-5.8523,-5.8523,-5.8523,-5.8523,-5.8523,-5.8523,-5.9777,-6.1233,-6.2707,-6.4081,-6.5543,-6.6937,-6.6999,-6.6999,-6.6999,-6.6999,-6.6999,-6.6999,-6.6999,-6.6999,-6.6999,-6.6999,-6.6999,-5.6726,-5.6494,-5.6279,-5.5741,-5.5343,-5.5182,-5.5476,-5.5331,-5.5158,-5.5355,-5.5416,-5.5445,-5.5591,-5.562,-5.5881,-5.6694,-5.681,-5.7216,-5.8348,-5.8523,-5.8755,-5.9422,-5.9651,-5.9343,-5.8395,-5.8251,-5.7322,-5.5127,-5.4857,-5.426,-5.3149,-5.3482,-5.3808,-5.4059,-5.4913,-5.544,-5.5566,-5.5993,-5.6219,-5.6219,-5.6344,-5.6671,-5.7248,-5.7801,-5.8378,-5.8905,-5.9307,0.0,0.0,-5.9483,-5.9483,-5.9483,-5.9483,-5.9483,-5.9483,-5.9483,-5.9483,-5.9483,-5.9483,-5.9483,-5.9483,-5.9483,-5.9585,-5.9714,-6.0125,-6.0508,-6.1094,-6.2043,-6.2581,-6.2992,-6.3672,-6.3855,-6.3776,-6.3463,-6.328,-6.3045,-6.2469,-6.2234,-6.1842,-6.0797,-6.0483,-6.0274,-5.983,-5.9542,-5.9202,-5.8758,-5.8601,-5.8523,-5.8523,-5.8523,-5.8523,-5.8523,-5.8523,-5.8523,-5.8523,-6.0096,-6.1571,-6.2707,-6.4432,-6.5856,-6.6937,-6.6999,-6.6999,-6.6999,-6.6999,-6.6999,-6.6999,-6.6999,-6.6999,-6.6999,-6.6999,-6.6999,-5.6325,-5.5995,-5.596,-5.6713,-5.6548,-5.6185,-5.619,-5.5977,-5.5737,-5.5471,-5.5416,-5.5591,-5.62,-5.6316,-5.6723,-5.7942,-5.8116,-5.8377,-5.9103,-5.9219,-5.9422,-6.0032,-5.9016,-5.8513,-5.898,-5.6844,-5.526,-5.4994,-5.4296,-5.3772,-5.3632,-5.3683,-5.416,-5.5189,-5.534,-5.5616,-5.6118,-5.6194,-5.6219,-5.6219,-5.6721,-5.7273,-5.7851,-5.8403,-5.893,-5.9433,-5.9483,-5.9483,0.0,-5.9483,-5.9483,-5.9483,-5.9483,-5.9483,-5.9483,-5.9483,-5.9483,-5.9483,-5.9483,-5.9483,-5.9483,-5.9483,-5.974,-6.0125,-6.0508,-6.0965,-6.1549,-6.25,-6.2759,-6.3071,-6.4168,-6.4456,-6.456,-6.5031,-6.4743,-6.4221,-6.3646,-6.3097,-6.2548,-6.1947,-6.1398,-6.1032,-6.098,-6.0065,-5.9333,-5.9307,-5.8836,-5.8523,-5.8523,-5.8523,-5.8523,-5.8523,-5.8523,-5.8523,-5.8523,-6.1057,-6.2641,-6.2773,-6.5353,-6.6846,-6.6999,-6.6999,-6.6999,-6.6999,-6.6999,-6.6999,-6.6999,-6.6999,-6.6999,-6.6999,-6.6999,-6.6999,-5.6749,-5.6653,-5.6609,-5.7034,-5.6809,-5.661,-5.6834,-5.6652,-5.6443,-5.6517,-5.6549,-5.6752,-5.7419,-5.7536,-5.7855,-5.8755,-5.89,-5.8812,-5.8617,-5.8583,-5.8479,-5.8271,-5.7764,-5.7241,-5.665,-5.5657,-5.4749,-5.4296,-5.4233,-5.4361,-5.4712,-5.4712,-5.4913,-5.5365,-5.5717,-5.5993,-5.6219,-5.6219,-5.6369,-5.6721,-5.6922,-5.7524,-5.8403,-5.8604,-5.8981,-5.9483,-5.9483,-5.9483,0.0,-5.9483,-5.9483,-5.9483,-5.9483,-5.9483,-5.9483,-5.9483,-5.9483,-5.9483,-5.9483,-5.9483,-5.9585,-5.9792,-6.0125,-6.0508,-6.066,-6.1041,-6.1703,-6.2994,-6.3332,-6.3593,-6.4743,-6.5031,-6.5109,-6.5318,-6.4953,-6.4378,-6.3803,-6.3227,-6.2652,-6.2077,-6.179,-6.1529,-6.1189,-6.0431,-5.9751,-5.9411,-5.8889,-5.8523,-5.8523,-5.8523,-5.8523,-5.8523,-5.9245,-5.9777,-5.9777,-6.1639,-6.3169,-6.4016,-6.5134,-6.6136,-6.6999,-6.6999,-6.6999,-6.6999,-6.6999,-6.6999,-6.6999,-6.6999,-6.6999,-6.6999,-6.6999,-6.6999,-5.7258,-5.7288,-5.7348,-5.7527,-5.7351,-5.7202,-5.7429,-5.7273,-5.7114,-5.7272,-5.7448,-5.7739,-5.8203,-5.8464,-5.8813,-5.9451,-5.9186,-5.8825,-5.8423,-5.8048,-5.7563,-5.7048,-5.665,-5.6078,-5.5296,-5.5008,-5.4689,-5.423,-5.4587,-5.5039,-5.5591,-5.5641,-5.5641,-5.5641,-5.6018,-5.6219,-5.6219,-5.6369,-5.6646,-5.7022,-5.7374,-5.7951,-5.8704,-5.8855,-5.9131,-5.9483,-5.9483,-5.9483,0.0,-5.9483,-5.9483,-5.9483,-5.9483,-5.9483,-5.9483,-5.9483,-5.9483,-5.9483,-5.9483,-5.9483,-5.956,-5.9971,-6.0355,-6.0737,-6.0889,-6.1193,-6.1906,-6.3281,-6.3907,-6.4378,-6.5162,-6.5371,-6.5345,-6.5188,-6.4822,-6.4325,-6.3593,-6.3123,-6.2652,-6.2077,-6.1973,-6.1842,-6.145,-6.0744,-6.0091,-5.9673,-5.8993,-5.8523,-5.8523,-5.8523,-5.8523,-5.8523,-6.0165,-6.1097,-6.062,-6.2375,-6.3822,-6.4816,-6.529,-6.6011,-6.6999,-6.6999,-6.6999,-6.6999,-6.6999,-6.6999,-6.6999,-6.6999,-6.6999,-6.6999,-6.6999,-6.6999,-5.7559,-5.7713,-5.7862,-5.8486,-5.8415,-5.8195,-5.8195,-5.7974,-5.7725,-5.736,-5.7826,-5.829,-5.829,-5.8842,-5.948,-6.009,-5.9045,-5.8362,-5.9008,-5.787,-5.7038,-5.6973,-5.5828,-5.5203,-5.5752,-5.507,-5.4834,-5.534,-5.539,0.0,-5.6168,-5.6194,-5.6194,-5.6194,-5.6219,-5.6219,-5.6219,-5.6746,-5.7022,-5.6973,-5.8177,-5.8704,-5.8679,-5.9232,-5.9483,-5.9483,-5.9483,-5.9483,0.0,-5.9483,-5.9483,-5.9483,-5.9483,-5.9483,-5.9483,-5.9483,-5.9483,-5.9483,-5.9483,-5.9483,-5.956,-5.9971,-6.0355,-6.0813,-6.1268,-6.1646,-6.2208,-6.3358,-6.4482,-6.5371,-6.5371,-6.5371,-6.524,-6.4665,-6.4534,-6.4221,-6.3071,-6.2835,-6.2652,-6.2077,-6.1973,-6.1973,-6.1973,-6.1006,-6.0222,-6.0222,-5.9255,-5.8523,-5.8523,-5.8523,-5.8523,-5.8523,-6.1057,-6.2175,-6.0688,-6.3206,-6.488,-6.488,-6.6198,-6.6999,-6.6999,-6.6999,-6.6999,-6.6999,-6.6999,-6.6999,-6.6999,-6.6999,-6.6999,-6.6999,-6.6999,-6.6999,-5.8362,-5.8204,-5.8069,-5.8331,-5.8169,-5.7948,-5.7948,-5.8019,-5.8114,-5.8,-5.8523,-5.8812,-5.8241,-5.8377,-5.8386,-5.805,-5.7658,-5.7077,-5.639,-5.5894,-5.526,-5.435,-5.4142,-5.4326,-5.4911,-5.5072,-5.5189,-5.5365,-5.5742,-5.6018,-5.6194,-5.6219,-5.6219,-5.6219,-5.6219,-5.6394,-5.6771,-5.6947,-5.7424,-5.8202,-5.8554,-5.8905,-5.9232,-5.9408,-5.9483,-5.9483,-5.9483,0.0,0.0,-5.9483,-5.9483,-5.9483,-5.9483,-5.9483,-5.9483,-5.9483,-5.9483,-5.9483,-5.9483,-5.9663,-5.9971,-6.0355,-6.1519,-6.2656,-6.2652,-6.3031,-6.3961,-6.623,-6.7082,-6.7392,-6.7879,-6.6861,-6.5704,-6.5516,-6.436,-6.328,-6.2914,-6.2522,-6.2182,-6.1999,-6.1973,-6.1973,-6.1973,-6.1006,-6.0222,-6.0222,-5.9255,-5.8523,-5.8523,-5.9385,-5.9958,-5.9958,-6.248,-6.3627,-6.2242,-6.4688,-6.6322,-6.6322,-6.6723,-6.6999,-6.6999,-6.6999,-6.6999,-6.6999,-6.6999,-6.6999,-6.6999,-6.6999,-6.6999,-6.6999,-6.6999,-6.6999,-5.85,-5.839,-5.8195,-5.8029,-5.8068,-5.8132,-5.8132,-5.8431,-5.8552,-5.7972,-5.843,-5.8557,-5.7527,-5.7529,-5.7555,-5.7112,-5.6585,-5.5959,-5.5127,-5.4552,-5.398,-5.325,-5.3884,-5.4486,-5.4838,-5.5365,-5.5691,-5.5691,-5.6018,-5.6294,-5.652,-5.652,-5.662,-5.6846,-5.6646,-5.6796,-5.7349,-5.7575,-5.8027,-5.873,-5.893,-5.9182,-5.9483,-5.9483,-5.9483,-5.9483,-5.9483,0.0,0.0,-5.9483,-5.9483,-5.9483,-5.9483,-5.9483,-5.9483,-5.9483,-5.9483,-5.956,-6.015,-6.0456,-6.073,-6.1752,-6.289,-6.3985,-6.4402,-6.4566,-6.5016,-6.669,-6.7464,-6.7913,-6.8377,-6.7184,-6.5864,-6.562,-6.4155,-6.2757,-6.2548,-6.2234,-6.1973,-6.1973,-6.1973,-6.1894,-6.1685,-6.0849,-6.0143,-5.9934,-5.9571,-5.9315,-5.9315,-6.0578,-6.1436,-6.1436,-6.3496,-6.456,-6.3692,-6.5668,-6.6999,-6.6999,-6.6999,-6.6999,-6.6999,-6.6999,-6.6999,-6.6999,-6.6999,-6.6999,-6.6999,-6.6999,-6.6999,-6.6999,-6.6999,-6.6999,0.0,-5.8228,-5.8173,-5.7895,-5.828,-5.8748,-5.8634,-5.8929,0.0,-5.7443,-5.7589,-5.7577,-5.6287,-5.6466,-5.6844,-5.6715,-5.5631,-5.4887,-5.4939,-5.3802,-5.3231,-5.3758,-5.4762,-5.539,-5.544,-5.5942,-5.6269,-5.6269,-5.6319,-5.6545,-5.7072,-5.7097,-5.7374,-5.7951,-5.7424,-5.7424,-5.7951,-5.8453,-5.873,-5.878,-5.9257,-5.9483,-5.9483,-5.9483,-5.9483,0.0,0.0,0.0,0.0,-5.9483,-5.9483,-5.9483,-5.9483,-5.9483,-5.9483,-5.9587,-5.9587,-5.9793,-6.1288,-6.1716,-6.1828,-6.3837,-6.454,-6.4883,-6.6351,-6.6117,-6.5402,-6.543,-6.6412,-6.7284,-6.7127,-6.6467,-6.5714,-6.5097,-6.3783,-6.2626,-6.2077,-6.1973,-6.1973,-6.1973,-6.1947,-6.1738,-6.1215,-6.0588,-5.9986,-5.9581,-6.0151,-6.062,-6.0756,-6.2042,-6.2972,-6.2972,-6.421,-6.5071,-6.5071,-6.626,-6.6999,-6.6999,-6.6999,-6.6999,-6.6999,-6.6999,-6.6999,-6.6999,-6.6999,-6.6999,-6.6999,-6.6999,-6.6999,-6.6999,-6.6999,-6.6999,-5.9017,0.0,-5.8229,-5.8201,-5.8696,-5.8871,0.0,-5.8001,-5.803,-5.6644,-5.6858,-5.6821,-5.5511,-5.5353,-5.5127,-5.4013,-5.3563,-5.3511,-5.3916,-5.4093,-5.4386,-5.4938,-5.5239,-5.5541,-5.5968,-5.652,-5.6846,-5.6846,-5.7248,-5.7549,-5.77,-5.77,-5.7951,-5.8504,-5.8403,-5.8403,-5.8529,-5.8654,-5.893,-5.9307,-5.9433,-5.9483,-5.9483,-5.9483,-5.9483,-5.9483,0.0,0.0,-5.9483,-5.9483,-5.9483,-5.9483,-5.9483,-5.9483,-5.9587,-6.0324,-6.0593,-6.0765,-6.1833,-6.2496,-6.3276,-6.5408,-6.5811,-6.5716,-6.7255,-6.709,-6.649,-6.7046,-6.7874,-6.8203,-6.6457,-6.5782,-6.5304,-6.4028,-6.2951,-6.213,-6.1999,-6.1973,-6.1973,-6.1973,-6.1633,-6.1293,-6.1136,-6.0248,-5.9947,-6.0897,-6.075,-6.1029,-6.2175,-6.3496,-6.4432,-6.4432,-6.5668,-6.6538,-6.6538,-6.6785,-6.6999,-6.6999,-6.6999,-6.6999,-6.6999,-6.6999,-6.6999,-6.6999,-6.6999,-6.6999,-6.6999,-6.6999,-6.6999,-6.6999,-6.6999,-6.6999,-5.9726,-5.9299,-5.8898,-5.8812,-5.8752,-5.856,-5.7781,-5.7617,-5.7185,-5.5869,-5.5877,-5.5631,-5.4283,-5.4039,-5.3768,-5.2998,-5.313,-5.3482,-5.4009,-5.4587,-5.5039,-5.5365,-5.5842,-5.6269,-5.657,-5.7097,-5.7424,-5.7424,-5.7725,-5.8001,-5.8252,-5.8278,-5.8529,-5.9056,-5.9081,-5.9081,-5.9081,-5.9081,-5.9207,-5.9483,-5.9483,-5.9483,-5.9483,-5.9483,-5.9483,-5.9483,0.0,0.0,-5.9483,-5.9232,-5.9131,-5.9183,-5.9642,-5.9766,-5.994,-6.1132,-6.1509,-6.1745,-6.3124,-6.4267,-6.5449,-6.6879,-6.7059,-6.6951,-6.8127,-6.7931,-6.7295,-6.7417,-6.7957,-6.827,-6.7058,-6.5926,-6.49,-6.4068,-6.2525,-6.1163,-6.1163,-6.1163,-6.1163,-6.1163,-6.1489,-6.1608,-6.1342,-6.1299,-6.1503,-6.2054,-6.237,-6.2877,-6.3627,-6.5007,-6.5856,-6.5856,-6.6538,-6.6999,-6.6999,-6.6999,-6.6999,-6.6999,-6.6999,-6.6999,-6.6999,-6.6999,-6.6999,-6.6999,-6.6999,-6.6999,-6.6999,-6.6999,-6.6999,-6.6999,-6.6999,-6.6999,-6.0489,-6.0262,-6.0033,-5.9626,-5.9119,-5.8584,-5.8032,-5.7484,-5.665,-5.4994,-5.4686,-5.4283,-5.311,-5.3005,-5.3055,-5.3055,-5.3557,-5.4135,-5.4612,-5.5164,-5.5541,-5.5616,-5.647,0.0,-5.7148,-5.7675,-5.8027,-5.8027,-5.8102,-5.8353,-5.8805,-5.883,-5.9031,-5.9483,-5.9483,-5.9483,-5.9483,-5.9483,-5.9483,-5.9483,-5.9483,-5.9483,-5.9483,-5.9483,-5.9458,-5.9382,0.0,0.0,-5.9207,-5.878,-5.8731,-5.8959,-5.9765,-6.0263,-6.0599,-6.1993,-6.2458,-6.2738,-6.4578,-6.6215,-6.7456,-6.7832,-6.8046,-6.8226,-6.8824,-6.8585,-6.8016,-6.7448,-6.7537,-6.7745,-6.7341,-6.6027,-6.473,-6.4459,-6.2637,-6.0849,-6.0849,-6.0849,-6.0849,-6.0849,-6.179,-6.2419,-6.1902,-6.2739,-6.3364,-6.3188,-6.4146,-6.4944,-6.5198,-6.626,-6.6999,-6.6999,-6.6999,-6.6999,-6.6999,-6.6999,-6.6999,-6.6999,-6.6999,-6.6999,-6.6999,-6.6999,-6.6999,-6.6999,-6.6999,-6.6999,-6.6999,-6.6999,-6.6999,-6.6999,-6.6999,-6.6999,-6.1456,-6.1757,-6.1878,-6.0735,-6.0999,-6.0752,-5.7859,-5.7341,-5.6623,-5.3835,-5.3247,-5.3204,-5.2929,-5.3281,-5.3582,-5.3582,-5.4461,-5.5164,-5.5239,-5.5742,-5.6269,-5.6721,0.0,-5.7223,-5.7725,-5.8278,-5.8604,-5.8604,-5.9006,-5.9282,-5.9382,-5.9382,-5.9408,-5.9483,-5.9483,-5.9483,-5.9483,-5.9483,-5.9483,-5.9483,-5.9483,-5.9483,-5.9483,-5.9483,-5.9257,-5.883,0.0,-5.8579,-5.8127,-5.8052,-5.8801,-5.9908,-6.0023,-6.0842,-6.2047,-6.3058,-6.3436,-6.3622,-6.5274,-6.6568,-6.7549,-6.7894,-6.8375,-6.8854,-6.8974,-6.8944,-6.8824,-6.8704,-6.7956,-6.6595,-6.4224,-6.4553,-6.5237,-6.4043,-6.3827,-6.3847,-6.3847,-6.3847,-6.3847,-6.3847,-6.3567,-6.3408,-6.3297,-6.3051,-6.3282,-6.4432,-6.4752,-6.5353,-6.6538,-6.6846,-6.6999,-6.6999,-6.6999,-6.6999,-6.6999,-6.6999,-6.6999,-6.6999,-6.6999,-6.6999,-6.6999,-6.6999,-6.6999,-6.6999,-6.6999,-6.6999,-6.6999,-6.6999,-6.6999,-6.6999,-6.6999,-6.6999,-6.2428,-6.2667,-6.273,-6.1938,-6.132,-6.0566,-5.8974,-5.8194,-5.7112,-5.4742,-5.4231,-5.4064,0.0,0.0,-5.3909,-5.4511,-5.5039,-5.5591,-5.6194,-5.6495,-5.6872,-5.7424,0.0,-5.8052,-5.8328,-5.883,-5.9131,-5.9131,-5.9357,-5.9483,-5.9483,-5.9483,-5.9483,-5.9483,-5.9483,-5.9483,-5.9483,-5.9483,-5.9483,-5.9483,-5.9207,-5.9081,-5.9056,-5.878,-5.8504,-5.8278,0.0,-5.8127,-5.7951,-5.8417,-5.8972,-5.9765,-6.1054,-6.1959,-6.2779,-6.4102,-6.4764,-6.5116,-6.6353,-6.7219,-6.7889,-6.8824,-6.9273,-6.9602,-6.9931,-6.9782,-6.9542,-6.9542,-6.8555,-6.726,-6.5914,-6.5438,-6.5123,-6.4446,-6.3325,-6.2398,-6.2398,-6.2398,-6.2398,-6.2398,-6.3458,-6.4316,-6.4316,-6.4734,-6.529,-6.5948,-6.6011,-6.626,-6.6937,-6.6999,-6.6999,-6.6999,-6.6999,-6.6999,-6.6999,-6.6999,-6.6999,-6.6999,-6.6999,-6.6999,-6.6999,-6.6999,-6.6999,-6.6999,-6.6999,-6.6999,-6.6999,-6.6999,-6.6999,-6.6969,-6.664,-6.6582,-6.3079,-6.3079,-6.3021,-6.2789,-6.1703,-6.0598,-6.0083,-5.9256,-5.8159,-5.6563,-5.6263,-5.5882,0.0,-5.4264,0.0,-5.5415,-5.5691,-5.6068,-5.6922,-5.7148,-5.7449,-5.8027,-5.8453,-5.878,-5.8905,-5.9257,-5.9483,-5.9483,0.0,0.0,-5.9483,-5.9483,-5.9483,-5.9483,-5.9483,-5.9483,-5.9483,-5.9483,-5.9433,-5.9307,-5.8905,-5.8654,-5.8504,-5.8102,-5.7826,-5.77,-5.77,-5.7625,-5.7598,-5.8559,-5.9215,-5.9731,-6.1939,-6.3037,-6.359,-6.5002,-6.5845,-6.6428,-6.7245,-6.7945,-6.8615,-6.9662,-7.0081,-7.029,-7.0769,-7.056,-7.0201,-7.0201,-6.9142,-6.7939,-6.7984,-6.6601,-6.5054,-6.4909,-6.2943,-6.1097,-6.1097,-6.1097,-6.1097,-6.1097,-6.3141,-6.488,-6.488,-6.6073,-6.6999,-6.6999,-6.6999,-6.6999,-6.6999,-6.6999,-6.6999,-6.6999,-6.6999,-6.6999,-6.6999,-6.6999,-6.6999,-6.6999,-6.6999,-6.6999,-6.6999,-6.6999,-6.6999,-6.6999,-6.6999,-6.6999,-6.6999,-6.6819,-6.6759,-6.6759,-6.6071,-6.5952,-6.3079,-6.3079,-6.3079,-6.3079,-6.2963,-6.238,-6.0477,-6.0205,-6.0014,-5.8979,-5.8769,-5.8379,-5.7274,-5.604,-5.5465,-5.6068,-5.657,-5.6947,-5.7022,0.0,-5.8052,-5.8604,-5.8704,-5.8905,-5.9382,0.0,0.0,0.0,0.0,0.0,-5.9483,-5.9483,-5.9483,-5.9483,-5.9483,-5.9483,-5.9483,-5.9483,-5.9257,-5.878,-5.873,-5.8453,-5.7951,-5.7926,-5.76,-5.7097,-5.7097,-5.6796,-5.6392,-5.7882,-5.9245,-6.0674,-6.2175,-6.385,-6.5348,-6.5475,-6.6298,-6.7426,-6.7456,-6.8542,-6.9842,-6.9961,-7.038,-7.0829,-7.0889,-7.0859,-7.0829,-7.0829,-6.9352,-6.7779,-6.7942,-6.6926,-6.567,-6.5025,-6.3757,-6.2641,-6.2641,-6.2641,-6.2641,-6.2641,-6.3887,-6.488,-6.488,-6.6073,-6.6999,-6.6999,-6.6999,-6.6999,-6.6999,-6.6999,-6.6999,-6.6999,-6.6999,-6.6999,-6.6999,-6.6999,-6.6999,-6.6999,-6.6999,-6.6999,-6.6999,-6.6999,-6.6999,-6.6999,-6.6999,-6.6999,-6.6999,-6.637,-6.6071,-6.6071,-6.5413,-6.5262,-6.3079,-6.3079,-6.3079,-6.3079,-6.3378,-6.3353,-6.2204,-6.2352,-6.2049,-5.9718,-6.0146,-6.0208,-5.791,-5.6892,-5.647,-5.6696,-5.7198,-5.77,-5.8027,-5.8278,-5.8604,-5.9131,-5.9207,-5.9282,0.0,0.0,0.0,0.0,0.0,0.0,-5.9483,-5.9483,-5.9483,-5.9483,-5.9483,-5.9483,-5.9483,-5.9483,-5.9232,-5.8704,-5.8378,-5.8102,-5.7876,-5.7173,-5.6721,-5.652,-5.7491,-5.7796,-5.7733,-6.0112,-6.1476,-6.2175,-6.3785,-6.4938,-6.5538,-6.5978,-6.6734,-6.7608,-6.8214,-6.915,-7.0051,-7.044,-7.0709,-7.0889,-7.0889,-7.0889,-7.0694,-6.9781,-6.8978,-6.8148,-6.7419,-6.5868,-6.433,-6.3704,-6.2508,-6.1436,-6.1436,-6.1436,-6.1706,-6.2641,-6.3952,-6.5198,-6.6073,-6.6661,-6.6999,-6.6999,-6.6999,-6.6999,-6.6999,-6.6999,-6.6999,-6.6999,-6.6999,-6.6999,-6.6999,-6.6999,-6.6999,-6.6999,-6.6999,-6.6999,-6.6999,-6.6999,-6.6999,-6.6999,-6.658,-6.637,-6.637,-6.5712,-6.5413,-6.5383,-6.4695,-6.4631,-6.3079,-6.3079,-6.3139,-6.3318,-6.3677,-6.3947,-6.3737,-6.4006,-6.3743,-6.1848,-6.1671,-6.1454,-6.0131,-5.8304,-5.7221,0.0,-5.805,-5.8303,0.0,0.0,0.0,0.0,0.0,0.0,0.0,0.0,0.0,0.0,0.0,0.0,0.0,-5.9483,-5.9483,-5.9483,-5.9483,-5.9483,-5.9483,-5.9483,-5.9307,-5.8956,-5.873,-5.8326,-5.7876,-5.7387,-5.7175,-5.7222,-5.8497,-5.9096,-5.9306,-6.1773,-6.3103,-6.3785,-6.5129,-6.5727,-6.5853,-6.6319,-6.6984,-6.7734,-6.8462,-6.9243,-7.0051,-7.047,-7.0385,-7.0206,-7.0206,-6.9847,-6.9286,-6.8248,-6.7633,-6.7033,-6.598,-6.4499,-6.3097,-6.2553,-6.1125,-5.9958,-5.9958,-6.0303,-6.0893,-6.1908,-6.3627,-6.5227,-6.6198,-6.6723,-6.6999,-6.6999,-6.6999,-6.6999,-6.6999,-6.6999,-6.6999,-6.6999,-6.6999,-6.6999,-6.6999,-6.6999,-6.6909,-6.67,-6.667,-6.6759,-6.6969,-6.6789,-6.667,-6.667,-6.6041,-6.5712,-6.5712,-6.5024,-6.4695,-6.4695,-6.4006,-6.4056,-6.3079,-6.3079,-6.3228,-6.3857,-6.4006,-6.4186,-6.4874,-6.5054,-6.5233,-6.5892,-6.3657,-6.2259,-6.4424,-6.0552,-5.7717,-5.982,-5.9357,-5.873,0.0,0.0,0.0,0.0,0.0,0.0,0.0,0.0,0.0,0.0,0.0,0.0,0.0,-5.9483,-5.9483,-5.9483,-5.9483,-5.9483,-5.9483,-5.9483,-5.9483,-5.956,-5.9953,-5.9363,-5.7951,-5.8843,-5.9183,-5.93,-6.02,-6.062,-6.0756,-6.2242,-6.385,-6.5538,-6.5882,-6.6195,-6.6506,-6.6506,-6.717,-6.7956,-6.7956,-6.8854,-6.9961,-6.9961,-6.9411,-6.8654,-6.8721,-6.7633,-6.6356,-6.6356,-6.5324,-6.4066,-6.3442,-6.2872,-6.2302,-6.1635,-5.9951,-5.8523,-5.8523,-5.9638,-6.062,-6.062,-6.2943,-6.488,-6.4944,-6.6073,-6.6999,-6.6999,-6.6999,-6.6999,-6.6999,-6.6999,-6.6999,-6.6999,-6.6999,-6.6999,-6.6969,-6.6969,-6.67,-6.6041,-6.6011,-6.6281,-6.6939,-6.634,-6.6011,-6.6011,-6.5353,-6.5024,-6.5024,-6.4336,-6.3977,-6.3977,-6.3378,-6.3424,-6.3079,-6.3408,-6.3767,-6.3947,-6.4725,-6.5473,-6.5682,-6.5712,-6.5801,-6.5967,-6.4022,-6.268,-6.3874,-6.1744,-6.002,-6.0619,-5.9919,-5.9257,0.0,0.0,0.0,0.0,0.0,0.0,0.0,0.0,0.0,0.0,0.0,0.0,0.0,-5.9483,-5.9483,-5.9483,-5.9483,-5.9997,-6.1089,-6.0702,-6.1018,-6.21,-6.1763,-6.0842,-5.9459,-5.9952,-6.02,-6.0242,-6.1586,-6.2175,-6.2309,-6.398,-6.5129,-6.5882,-6.6195,-6.6382,-6.6506,-6.6753,-6.7356,-6.7956,-6.7956,-6.8555,-6.9303,-6.9303,-6.8667,-6.8215,-6.9293,-6.8133,-6.6356,-6.6356,-6.5324,-6.3884,-6.2724,-6.1979,-6.1219,-6.0286,-5.9271,-5.8523,-5.8523,-5.9638,-6.0893,-6.1975,-6.3627,-6.5198,-6.6198,-6.6723,-6.6999,-6.6999,-6.6999,-6.6999,-6.6999,-6.6999,-6.6999,-6.6999,-6.6999,-6.6819,-6.634,-6.6311,-6.6011,-6.5353,-6.5323,-6.5413,-6.5592,-6.5413,-6.5323,-6.5323,-6.4665,-6.4306,-6.4306,-6.3647,-6.3348,-6.3348,-6.3169,-6.3424,-6.3378,-6.3707,0.0,-6.4665,-6.5413,-6.6131,-6.667,-6.6789,-6.6786,-6.6616,-6.5101,-6.4162,-6.5374,-6.3566,-6.2206,-6.3027,-6.1607,-6.0457,-6.0457,0.0,0.0,0.0,0.0,0.0,0.0,0.0,0.0,0.0,0.0,0.0,0.0,-6.0457,-6.0736,-6.1316,-6.1109,-6.1428,-6.2365,-6.1781,-6.1924,-6.2855,-6.282,-6.238,-6.1511,-6.1712,-6.1794,-6.1834,-6.3112,-6.3749,-6.398,-6.5192,-6.5882,-6.6257,-6.6568,-6.6691,-6.6753,-6.6937,-6.7238,-6.7567,-6.7567,-6.8016,-6.8522,-6.7923,-6.7181,-6.6577,-6.7171,-6.5919,-6.4307,-6.4553,-6.4011,-6.3085,-6.2246,-6.1555,-6.0875,-5.9934,-5.9281,-5.8926,-5.9298,-6.0441,-6.1908,-6.3366,-6.4752,-6.6011,-6.6846,-6.6999,-6.6999,-6.6999,-6.6999,-6.6999,-6.6999,-6.6999,-6.6999,-6.6999,-6.6999,-6.6729,-6.6071,-6.6011,-6.5622,-6.4665,-6.4605,-6.4515,-6.4276,-6.4485,-6.4605,-6.4605,-6.3977,-6.3617,-6.3617,-6.3258,-6.3079,-6.3079,-6.3079,-6.3424,0.0,0.0,0.0,-6.5712,-6.6101,-6.649,-6.7687,-6.8076,-6.8073,-6.7575,-6.6708,-6.6499,-6.8056,-6.575,-6.4264,-6.6188,-6.4002,-6.204,-6.204,0.0,0.0,0.0,0.0,0.0,0.0,0.0,0.0,0.0,0.0,0.0,0.0,-6.204,-6.2683,-6.4066,-6.3478,-6.3252,-6.334,-6.2742,-6.2513,0.0,-6.3357,-6.375,-6.375,-6.375,-6.375,-6.3856,-6.4749,-6.5285,-6.5601,-6.5945,-6.6257,-6.6568,-6.6876,-6.6999,-6.6999,-6.6999,-6.6999,-6.6999,-6.6846,-6.7173,-6.7492,-6.6073,-6.5041,-6.4218,-6.352,-6.229,-6.1163,-6.1935,-6.2018,-6.1894,-6.1973,-6.1581,-6.1032,-6.0457,-5.983,-5.9631,-6.0354,-6.1599,-6.3037,-6.4432,-6.5856,-6.6846,-6.6999,-6.6999,-6.6999,-6.6999,-6.6999,-6.6999,-6.6999,-6.6999,-6.6999,-6.6999,-6.6999,-6.67,-6.5981,-6.5922,-6.5353,-6.4006,-6.3917,-6.3647,-6.3109,-6.3617,-6.3917,-6.3917,-6.3378,-6.3079,-6.3079,-6.3079,-6.3079,-6.3079,-6.3079,-6.3394,0.0,-6.5173,0.0,0.0,-6.6789,-6.7627,-6.7897,-6.8794,-6.9202,-6.8028,-6.8024,-6.8196,-6.804,-6.6834,-6.5964,-6.6413,0.0,0.0,0.0,0.0,0.0,0.0,0.0,0.0,0.0,0.0,0.0,0.0,0.0,0.0,-6.3638,-6.3638,-6.3595,-6.3424,-6.3262,-6.3559,-6.4304,-6.3663,-6.3897,0.0,-6.4879,-6.472,-6.472,-6.472,-6.482,-6.5141,-6.5597,-6.6007,-6.6319,-6.6382,-6.6568,-6.6937,-6.6999,-6.6999,-6.6999,-6.6999,-6.6999,-6.6846,-6.5731,-6.5441,-6.5338,-6.3891,-6.2855,-6.2357,-6.3332,-6.208,-6.0729,-6.2542,-6.2173,-6.1398,-6.1868,-6.1868,-6.1633,-6.1058,-6.0117,-5.9477,-5.9605,-6.0419,-6.1504,-6.2972,-6.4368,-6.5668,-6.6785,-6.6999,-6.6999,-6.6999,-6.6999,-6.6999,-6.6999,-6.6999,-6.6999,-6.6999,-6.6999,-6.652,-6.5353,-6.5233,-6.4695,-6.3348,-6.3258,-6.3228,-6.3079,-6.3199,-6.3258,-6.3258,-6.3139,-6.3079,-6.3079,-6.3079,-6.3079,-6.3079,-6.3079,-6.3159,0.0,0.0,0.0,-6.6789,0.0,-6.8136,-6.8794,-6.9482,-6.9769,-6.8998,-6.9132,-6.9171,-6.8468,-6.7957,0.0,0.0,0.0,0.0,0.0,0.0,0.0,0.0,0.0,0.0,0.0,0.0,0.0,0.0,0.0,-6.4509,-6.5253,-6.5324,-6.5331,-6.5445,-6.5137,-6.5029,-6.5203,-6.4613,-6.4756,-6.5717,-6.5396,-6.5285,-6.5504,-6.5285,-6.5412,-6.5756,-6.5945,-6.6195,-6.6506,-6.6506,-6.6691,-6.6999,-6.6999,-6.6999,-6.6937,-6.626,-6.5981,-6.5794,-6.4368,-6.3887,-6.3627,-6.2214,-6.1452,-6.1162,-6.1503,-6.0775,-6.0079,-6.1475,-6.1298,-6.0823,-6.1398,-6.1555,-6.1555,-6.1529,-6.0849,-6.0335,-6.0739,-6.1172,-6.211,-6.4245,-6.5001,-6.5728,-6.7262,-6.7208,-6.6999,-6.6999,-6.6999,-6.6999,-6.6999,-6.6999,-6.6999,-6.6999,-6.6999,-6.646,-6.5144,-6.5024,-6.4485,-6.3169,-6.3079,-6.3079,-6.3079,-6.3079,-6.3079,-6.3079,-6.3079,-6.3079,-6.3079,-6.3079,-6.3079,-6.3079,-6.3079,-6.3102,0.0,0.0,0.0,0.0,0.0,0.0,-6.9722,-7.0051,-7.0097,-7.0015,-6.9936,-6.967,0.0,0.0,0.0,0.0,0.0,0.0,0.0,0.0,0.0,0.0,0.0,0.0,0.0,0.0,0.0,0.0,0.0,0.0,-6.686,-6.6817,-6.7056,-6.7725,-6.7057,-6.6418,-6.5844,-6.5321,-6.5222,-6.5601,-6.5601,-6.5727,-6.607,-6.579,-6.579,-6.607,-6.6132,-6.6319,-6.6568,-6.6568,-6.6753,-6.6999,-6.6999,-6.6999,-6.6846,-6.5416,-6.488,-6.4688,-6.2972,-6.2442,-6.2175,-6.0688,-6.0234,-6.0108,-5.9473,-5.9202,-5.9333,-5.9908,-6.0065,-6.0222,-6.0797,-6.0953,-6.111,-6.1685,-6.1594,-6.1483,-6.2069,-6.2307,-6.3182,-6.5812,-6.6208,-6.6451,-6.762,-6.7358,-6.6999,-6.6999,-6.6999,-6.6999,-6.6999,-6.6999,-6.6999,-6.6999,-6.6999,-6.646,-6.5144,-6.5024,-6.4485,-6.3169,-6.3079,-6.3079,-6.3079,-6.3079,-6.3079,-6.3079,-6.3079,-6.3079,-6.3079,-6.3079,-6.3079,-6.3079,-6.3079,-6.3104,0.0,0.0,0.0,0.0,0.0,0.0,0.0,0.0,-7.0669,0.0,0.0,0.0,0.0,0.0,0.0,0.0,0.0,0.0,0.0,0.0,0.0,0.0,0.0,0.0,0.0,0.0,0.0,0.0,0.0,0.0,-6.846,-6.8007,-6.7496,-6.7028,-6.6389,-6.588,-6.5558,-6.5441,-6.5601,-6.5945,-6.5945,-6.6132,-6.6444,-6.6382,-6.6382,-6.6444,-6.6753,-6.6876,-6.6937,-6.6937,-6.6937,-6.6999,-6.6999,-6.6999,-6.6846,-6.5416,-6.488,-6.456,-6.1813,-6.0893,-6.062,-5.9245,-5.8779,-5.8806,-5.8672,-5.8627,-5.8758,-5.9307,-5.949,-5.962,-6.0195,-6.0326,-6.0483,-6.1084,-6.1768,-6.2069,-6.139,-6.1916,-6.2972,-6.4532,-6.6403,-6.759,-6.7208,-6.7059,-6.6999,-6.6999,-6.6999,-6.6999,-6.6999,-6.6999,-6.6999,-6.6999,-6.6999,-6.646,-6.5144,-6.5024,-6.4485,-6.3169,-6.3079,-6.3079,-6.3079,-6.3079,-6.3079,-6.3079,-6.3079,-6.3079,-6.3079,-6.3079,-6.3079,-6.3079,-6.3079,-6.3104,-6.7358,0.0,0.0,0.0,0.0,0.0,0.0,0.0,0.0,0.0,0.0,0.0,0.0,0.0,0.0,0.0,0.0,0.0,0.0,0.0,0.0,0.0,0.0,0.0,0.0,0.0,0.0,0.0,0.0,-6.8683,-6.8305,-6.8015,-6.7405,-6.6389,-6.6264,-6.5927,-6.5475,-6.5664,-6.5945,-6.6257,-6.6444,-6.6629,-6.6814,-6.6814,-6.6814,-6.6814,-6.6937,-6.6999,-6.6999,-6.6999,-6.6999,-6.6999,-6.6999,-6.6999,-6.6846,-6.5416,-6.4432,-6.3431,-6.1369,-6.0096,-5.9315,-5.8709,-5.8523,-5.8523,-5.8523,-5.8523,-5.8575,-5.881,-5.8653,-5.8549,-5.9124,-5.9019,-5.8941,-5.9516,-6.0527,-6.1237,-6.0873,-6.2279,-6.397,-6.5022,-6.6686,-6.7777,-6.7119,-6.6999,-6.6999,-6.6999,-6.6999,-6.6999,-6.6999,-6.6999,-6.6999,-6.6999,-6.6999,-6.646,-6.5144,-6.5024,-6.4485,-6.3169,-6.3079,-6.3079,-6.3079,-6.3079,-6.3079,-6.3079,-6.3079,-6.3079,-6.3079,-6.3079,-6.3079,-6.3079,-6.3079,-6.3107,0.0,0.0,0.0,0.0,0.0,0.0,0.0,0.0,0.0,0.0,0.0,0.0,0.0,0.0,0.0,0.0,0.0,0.0,0.0,0.0,0.0,0.0,0.0,0.0,0.0,0.0,0.0,0.0,0.0,-6.8567,-6.7899,-6.7791,-6.7247,-6.6083,-6.623,-6.6099,-6.5727,-6.607,-6.6382,-6.6629,-6.6876,-6.6999,-6.6999,-6.6999,-6.6999,-6.6999,-6.6999,-6.6999,-6.6969,-6.6819,-6.6759,-6.6729,-6.655,-6.649,-6.6277,-6.4513,-6.3207,-6.2033,-6.0253,-5.8934,-5.8078,-5.8078,-5.8078,-5.8078,-5.8078,-5.8078,-5.8078,-5.8078,-5.7765,-5.7529,-5.7974,-5.8018,-5.8111,-5.8692,-5.998,-6.1213,-6.1749,-6.3364,-6.5108,-6.6119,-6.7238,-6.7777,-6.7119,-6.6999,-6.6999,-6.6999,-6.6999,-6.6999,-6.6999,-6.6999,-6.6999,-6.6999,-6.6849,-6.6281,-6.5114,-6.4874,-6.4276,-6.3139,-6.3079,-6.3079,-6.3079,-6.3079,-6.3079,-6.3079,-6.3079,-6.3079,-6.3079,-6.3079,-6.3079,-6.3079,-6.3079,-6.3079,-6.7777,0.0,0.0,0.0,0.0,0.0,0.0,0.0,0.0,0.0,0.0,0.0,0.0,0.0,0.0,0.0,0.0,0.0,0.0,0.0,0.0,0.0,0.0,0.0,0.0,0.0,0.0,0.0,0.0,-6.8567,-6.7899,-6.7619,-6.7078,-6.6376,-6.6109,-6.6162,-6.6444,-6.6814,-6.6937,-6.6999,-6.6999,-6.6999,-6.6999,-6.6999,-6.6999,-6.6999,-6.6999,-6.6999,-6.6939,-6.6311,-6.6071,-6.6011,-6.5383,-6.5114,-6.4815,-6.2085,-6.1067,-6.0616,-5.7916,-5.6971,-5.6902,-5.6902,-5.6902,-5.6902,-5.6902,-5.6902,-5.6902,-5.6902,-5.6876,-5.685,-5.6876,-5.7822,-5.8872,-5.9494,-6.1258,-6.326,-6.5051,-6.555,-6.6061,-6.7582,-6.7956,-6.7777,-6.7119,-6.6999,-6.6999,-6.6999,-6.6999,-6.6999,-6.6999,-6.6999,-6.6999,-6.6999,-6.643,-6.5772,-6.5084,-6.4425,-6.3767,-6.3109,-6.3079,-6.3079,-6.3079,-6.3079,-6.3079,-6.3079,-6.3079,-6.3079,-6.3079,-6.3079,-6.3079,-6.3079,-6.3079,-6.3079,-6.7777,0.0,0.0,0.0,0.0,0.0,0.0,0.0,0.0,0.0,0.0,0.0,0.0,0.0,0.0,0.0,0.0,0.0,0.0,0.0,0.0,0.0,0.0,0.0,0.0,0.0,0.0,0.0,0.0,0.0,-6.7619,-6.7078,-6.6563,-6.6172,-6.6251,-6.6506,-6.6814,-6.6937,-6.6999,-6.6999,-6.6999,-6.6999,-6.6999,-6.6999,-6.6759,-6.637,-6.637,-6.637,-6.6311,-6.5652,-6.5383,-6.5353,-6.5054,-6.4455,-6.3608,-6.2625,-6.1147,-5.949,-5.8483,-5.7592,-5.6798,-5.6798,-5.6798,-5.6798,-5.6798,-5.6798,-5.6798,-5.6798,-5.7123,-5.7344,-5.6427,-5.762,-5.9289,-6.0335,-6.1184,-6.2247,-6.4211,-6.4924,-6.5551,-6.6518,-6.67,-6.6759,-6.6969,-6.6999,-6.6999,-6.6999,-6.6999,-6.6999,-6.6999,-6.6999,-6.6819,-6.64,-6.6131,-6.5562,-6.4455,-6.4126,-6.3737,-6.3109,-6.3079,-6.3079,-6.3079,-6.3079,-6.3079,-6.3079,-6.3079,-6.3079,-6.3079,-6.3079,-6.3079,-6.3079,-6.3079,-6.3079,-6.7208,-6.7956,0.0,0.0,0.0,0.0,0.0,0.0,0.0,0.0,0.0,0.0,0.0,0.0,0.0,0.0,0.0,0.0,0.0,0.0,0.0,0.0,0.0,0.0,0.0,0.0,0.0,0.0,0.0,0.0,-6.7243,-6.6931,-6.6593,-6.6349,-6.6568,-6.6753,-6.6999,-6.6999,-6.6999,-6.6999,-6.6999,-6.6999,-6.6969,-6.6759,-6.643,-6.5981,-6.5533,-6.5473,-6.5622,-6.4964,-6.4695,-6.4665,-6.4455,-6.3534,-6.2325,-6.1866,-6.0209,-5.8259,-5.7757,-5.6982,-5.6223,-5.6223,-5.6223,-5.6223,-5.6223,-5.6223,-5.6223,-5.6223,-5.6583,-5.6863,-5.6399,-5.8045,-6.0141,-6.1465,-6.1762,-6.2145,-6.3413,-6.4216,-6.4874,-6.5533,-6.5682,-6.5832,-6.6251,-6.634,-6.634,-6.634,-6.634,-6.634,-6.634,-6.634,-6.6161,-6.5712,-6.5473,-6.4964,-6.4066,-6.3797,-6.3528,-6.3109,-6.3079,-6.3079,-6.3079,-6.3079,-6.3079,-6.3079,-6.3079,-6.3079,-6.3079,-6.3079,-6.3079,-6.3079,-6.3079,-6.3079,0.0,0.0,0.0,-6.8734,0.0,0.0,0.0,0.0,0.0,0.0,0.0,0.0,0.0,0.0,0.0,0.0,0.0,0.0,0.0,0.0,0.0,0.0,0.0,0.0,0.0,0.0,0.0,0.0,0.0,-6.7243,-6.6951,-6.7238,-6.7284,-6.6999,-6.6999,-6.6999,-6.6999,-6.6999,-6.6999,-6.6999,-6.6999,-6.6999,-6.6969,-6.6311,-6.6011,-6.5892,-6.4575,-6.4366,-6.4904,-6.4246,-6.3977,-6.3917,-6.3318,-6.2263,-6.0897,-5.956,-5.8214,-5.6834,-5.5538,-5.5099,-5.5099,-5.5099,-5.5099,-5.5099,-5.5099,-5.5099,-5.5099,-5.5099,-5.5099,-5.5472,-5.6834,-5.9155,-6.1465,-6.2759,-6.3079,-6.3079,-6.3079,-6.3558,-6.4186,-6.4874,-6.4994,-6.4994,-6.5024,-6.5024,-6.5024,-6.5024,-6.5024,-6.5024,-6.5024,-6.5024,-6.5024,-6.4934,-6.4395,-6.4006,-6.3977,-6.3408,-6.3079,-6.3137,-6.3079,-6.3079,-6.3079,-6.3079,-6.3079,-6.3079,-6.3079,-6.3079,-6.3079,-6.3079,-6.3079,-6.3079,-6.3079,-6.3079,-6.5443,0.0,0.0,0.0,0.0,0.0,0.0,0.0,0.0,0.0,0.0,0.0,0.0,0.0,0.0,0.0,0.0,0.0,0.0,0.0,0.0,0.0,0.0,0.0,0.0,0.0,0.0,0.0,-6.7407,-6.7128,-6.7267,-6.7135,-6.7055,-6.6999,-6.6999,-6.6999,-6.6999,-6.6999,-6.6999,-6.6999,-6.6999,-6.6999,-6.6969,-6.6311,-6.5742,-6.5263,-6.4366,-6.3857,-6.3588,-6.3408,-6.3318,-6.3318,-6.3139,-6.1703,-5.9622,-5.9251,-5.7642,-5.5604,-5.5232,-5.5099,-5.5099,-5.5099,-5.5099,-5.5099,-5.5099,-5.5099,-5.5099,-5.5099,-5.5776,-5.7092,-5.9403,-6.0534,-6.1465,-6.2759,-6.3079,-6.3079,-6.3079,-6.3199,-6.3528,-6.4156,-6.4276,-6.4455,-6.4934,-6.5024,-6.5024,-6.5024,-6.5024,-6.5024,-6.5024,-6.5024,-6.4844,-6.4336,-6.4126,-6.3944,-6.3637,-6.3284,-6.3194,-6.3367,-6.3194,-6.3079,-6.3079,-6.3079,-6.3079,-6.3079,-6.3079,-6.3079,-6.3079,-6.3079,-6.3079,-6.3079,-6.3079,-6.3079,-6.4844,-6.5772,-6.6819,-6.6161,0.0,0.0,-6.8405,-6.9093,0.0,0.0,0.0,0.0,0.0,0.0,0.0,0.0,0.0,0.0,0.0,0.0,0.0,0.0,0.0,0.0,0.0,0.0,0.0,-6.7698,-6.7111,-6.6853,-6.7257,-6.7085,-6.6999,-6.6999,-6.6999,-6.6999,-6.6999,-6.6999,-6.6999,-6.6999,-6.6999,-6.6849,-6.655,-6.5892,-6.5233,-6.4575,-6.3887,-6.3408,-6.3079,-6.3079,-6.3079,-6.3079,-6.3079,-6.1436,-5.9127,-5.9127,-5.7386,-5.5099,-5.5099,-5.5099,-5.5099,-5.5099,-5.5099,-5.5099,-5.5099,-5.5099,-5.5099,-5.5099,-5.6471,-5.8404,-6.0534,-6.1524,-6.2145,-6.2905,-6.3079,-6.3079,-6.3079,-6.3079,-6.3169,-6.3558,-6.3617,-6.3737,-6.4156,-6.4216,-6.4216,-6.4216,-6.4333,-6.4392,-6.4392,-6.4509,-6.4417,-6.4053,-6.4023,-6.393,-6.374,-6.3595,-6.3538,-6.3709,-6.3424,-6.3252,-6.3252,-6.3137,-6.3079,-6.3079,-6.3079,-6.3079,-6.3079,-6.3079,-6.3079,-6.3079,-6.3079,-6.3079,-6.4455,-6.5473,-6.6729,-6.6071,-6.64,0.0,-6.7717,-6.8405,0.0,0.0,0.0,0.0,0.0,0.0,0.0,0.0,0.0,0.0,0.0,0.0,0.0,0.0,0.0,0.0,0.0,-6.7275,-6.7082,-6.7367,-6.6895,-6.6691,-6.6999,-6.6999,-6.6999,-6.6999,-6.6999,-6.6999,-6.6999,-6.6999,-6.6999,-6.6999,-6.6909,-6.658,-6.5981,-6.5263,-6.4575,-6.3977,-6.3348,-6.3079,-6.3079,-6.3079,-6.3079,-6.3079,-6.3079,-6.1555,-5.9313,-5.9127,-5.7515,-5.5299,-5.5165,-5.5099,-5.5099,-5.5099,-5.5099,-5.5099,-5.5099,-5.5232,-5.5339,-5.5472,-5.7386,-5.956,-6.0776,-6.2087,-6.3079,-6.3079,-6.3079,-6.3079,-6.3079,-6.3079,-6.3079,-6.3079,-6.3079,-6.3079,-6.3079,-6.3137,-6.3137,-6.3137,-6.3367,-6.3595,-6.3595,-6.3823,-6.3993,-6.3993,-6.3993,-6.3993,-6.4049,-6.4049,-6.3993,-6.4049,-6.3709,-6.3538,-6.3538,-6.3252,-6.3079,-6.3079,-6.3079,-6.3079,-6.3079,-6.3079,-6.3079,-6.3079,-6.3079,-6.3079,-6.5054,-6.5503,-6.6041,-6.5383,-6.5712,0.0,-6.7029,-6.7687,-6.8375,0.0,0.0,0.0,0.0,0.0,0.0,0.0,0.0,0.0,0.0,0.0,0.0,0.0,0.0,0.0,0.0,-6.7419,-6.7248,-6.7085,-6.6997,-6.6937,-6.6999,-6.6999,-6.6999,-6.6999,-6.6999,-6.6999,-6.6999,-6.6999,-6.6999,-6.6969,-6.646,-6.6131,-6.5981,-6.4755,-6.4126,-6.3977,-6.3348,-6.3079,-6.3079,-6.3079,-6.3079,-6.3079,-6.3079,-6.2145,-6.0595,-5.9498,-5.8088,-5.6536,-5.5472,-5.5099,-5.5099,-5.5099,-5.5099,-5.5099,-5.5099,-5.5842,-5.6963,-5.8024,-5.9465,-6.0776,-6.1017,-6.2087,-6.3079,-6.3079,-6.3079,-6.3079,-6.3079,-6.3079,-6.3079,-6.3079,-6.3079,-6.3079,-6.3079,-6.3309,-6.3424,-6.3424,-6.3709,-6.388,-6.388,-6.3993,-6.3993,-6.3993,-6.3993,-6.4106,-6.427,-6.4132,-6.4075,-6.43,-6.3793,-6.3538,-6.3538,-6.3252,-6.3079,-6.3079,-6.3079,-6.3079,-6.3079,-6.3079,-6.3079,-6.3079,-6.3079,-6.3079,-6.5682,-6.6011,-6.634,-6.5682,-6.5772,0.0,0.0,-6.6759,-6.7268,0.0,0.0,0.0,0.0,0.0,0.0,0.0,0.0,0.0,0.0,0.0,0.0,0.0,0.0,0.0,0.0,-6.723,-6.7143,-6.7029,-6.6999,-6.6999,-6.6999,-6.6999,-6.6999,-6.6999,-6.6999,-6.6999,-6.6999,-6.6999,-6.6819,-6.649,-6.6161,-6.5652,-6.4994,-6.4306,-6.3827,-6.3528,-6.3199,-6.3079,-6.3079,-6.3079,-6.3079,-6.3079,-6.3079,-6.2263,-6.0957,-5.956,-5.825,-5.6898,-5.5604,-5.5099,-5.5232,-5.5908,-5.6105,-5.6209,-5.6898,-5.7578,-5.8404,-5.9711,-6.0595,-6.1286,-6.188,-6.2585,-6.3079,-6.3079,-6.3079,-6.3079,-6.3079,-6.3079,-6.3137,-6.3252,-6.3309,-6.3309,-6.3309,-6.3538,-6.3766,-6.3766,-6.4019,-6.4188,-6.4188,-6.4387,-6.4443,-6.4443,-6.4443,-6.4499,-6.4635,-6.4554,-6.4499,-6.4635,-6.4188,-6.3963,-6.3963,-6.3679,-6.3481,-6.3309,-6.3194,-6.3079,-6.3079,-6.3079,-6.3079,-6.3079,-6.3079,-6.3079,-6.634,-6.658,-6.6819,-6.6161,-6.6101,-6.6161,0.0,0.0,0.0,0.0,0.0,0.0,0.0,0.0,0.0,0.0,0.0,0.0,0.0,0.0,0.0,0.0,0.0,0.0,0.0,-6.6999,-6.6999,-6.6999,-6.6999,-6.6999,-6.6999,-6.6999,-6.6999,-6.6999,-6.6999,-6.6939,-6.6819,-6.6819,-6.646,-6.5832,-6.5682,-6.5054,-6.4006,-6.3887,-6.3558,-6.3079,-6.3079,-6.3079,-6.3079,-6.3079,-6.3079,-6.3079,-6.3079,-6.2438,-6.1286,-5.9683,-5.8376,-5.7258,-5.5973,-5.5472,-5.5736,-5.7028,-5.7451,-5.7706,-5.9064,-5.9498,-5.9745,-6.1077,-6.1465,-6.1703,-6.2817,-6.3079,-6.3079,-6.3079,-6.3079,-6.3137,-6.3194,-6.3194,-6.3252,-6.3538,-6.3622,-6.3622,-6.3595,-6.3849,-6.4075,-6.4075,-6.43,-6.4524,-6.4524,-6.4721,-6.4888,-6.4888,-6.4888,-6.4888,-6.4888,-6.4888,-6.4888,-6.4888,-6.4579,-6.4382,-6.4382,-6.4075,-6.3766,-6.3424,-6.3194,-6.3079,-6.3079,-6.3079,-6.3079,-6.3079,-6.3079,-6.3079,-6.6909,-6.6939,-6.6819,-6.6161,-6.646,-6.6729,-6.6131,0.0,-6.6909,-6.7059,0.0,-6.7029,-6.7178,0.0,0.0,0.0,0.0,0.0,0.0,0.0,0.0,0.0,0.0,0.0,0.0,0.0,-6.6999,-6.6999,-6.6999,-6.6999,-6.6999,-6.6999,-6.6999,-6.6999,-6.6999,-6.67,-6.6131,-6.6131,-6.5802,-6.5144,-6.4515,-6.4156,-6.3977,-6.3438,-6.3139,-6.3079,-6.3079,-6.3079,-6.3079,-6.3079,-6.3079,-6.3079,-6.3079,-6.3021,-6.2585,-6.0018,-5.9002,-5.869,-5.7322,-5.6898,-5.7092,-5.8439,-5.8877,-5.9127,-6.0474,-6.0837,-6.1137,-6.2526,-6.2875,-6.2905,-6.3079,-6.3079,-6.3079,-6.3079,-6.3079,-6.3194,-6.3424,-6.3481,-6.3538,-6.388,-6.4132,-6.4244,-6.3993,-6.4188,-6.4326,-6.4326,-6.4635,-6.4832,-6.4832,-6.4888,-6.4888,-6.4888,-6.4888,-6.4888,-6.4888,-6.4888,-6.4888,-6.4888,-6.4579,-6.4382,-6.4382,-6.3849,-6.3424,-6.3137,-6.3137,-6.3079,-6.3079,-6.3079,-6.3079,-6.3079,-6.3079,-6.3079,-6.6999,-6.6999,-6.6819,-6.6161,-6.6221,-6.6251,-6.5592,-6.5652,-6.5951,-6.634,0.0,0.0,0.0,0.0,0.0,0.0,-6.5922,0.0,0.0,0.0,0.0,0.0,0.0,0.0,0.0,0.0,0.0,0.0,0.0,-6.6999,-6.6999,-6.6999,-6.6819,-6.643,-6.643,-6.6101,-6.5443,-6.5443,-6.5114,-6.4425,-6.4126,-6.3827,-6.3468,-6.3199,-6.3079,-6.3079,-6.3079,-6.3079,-6.3079,-6.3079,-6.3079,-6.3079,-6.3079,-6.3079,-6.2875,-6.0957,-6.0262,-6.0079,-5.869,-5.825,-5.8439,-5.9834,-6.0776,-6.1524,-6.2087,-6.2263,-6.238,-6.2963,-6.3079,-6.3079,-6.3079,-6.3079,-6.3137,-6.3309,-6.3367,-6.3424,-6.3709,-6.3823,-6.388,-6.4188,-6.4326,-6.4468,-6.4499,-6.461,-6.4691,-6.4691,-6.4832,-6.4888,-6.4888,-6.4888,-6.4888,-6.4888,-6.4888,-6.4888,-6.4888,-6.4888,-6.4888,-6.4888,-6.4777,-6.4579,-6.4382,-6.4019,-6.3652,-6.3367,-6.3194,-6.3079,-6.3079,-6.3079,-6.3079,-6.3079,-6.3079,-6.3079,-6.6999,-6.6999,-6.6789,-6.5951,-6.5862,-6.5832,-6.5173,-6.5173,-6.5473,-6.6131,-6.5892,0.0,0.0,0.0,-6.5383,-6.5682,0.0,-6.4904,0.0,0.0,0.0,0.0,0.0,0.0,0.0,0.0,0.0,0.0,-6.6729,-6.664,-6.646,-6.646,-6.6221,-6.5742,-6.5742,-6.5413,-6.4755,-6.4755,-6.4425,-6.3737,-6.3737,-6.3498,-6.3079,-6.3079,-6.3079,-6.3079,-6.3079,-6.3079,-6.3079,-6.3079,-6.3079,-6.3079,-6.3079,-6.3079,-6.2963,-6.1584,-6.1106,-6.0957,-6.0018,-5.9896,-6.0384,-6.1316,-6.2321,-6.3079,-6.3079,-6.3079,-6.3079,-6.3079,-6.3079,-6.3079,-6.3079,-6.3079,-6.3194,-6.3424,-6.3538,-6.3652,-6.4019,-6.4075,-6.4188,-6.4468,-6.4524,-6.4635,-6.4832,-6.4888,-6.4888,-6.4888,-6.4888,-6.4888,-6.4888,-6.4888,-6.4888,-6.4888,-6.4888,-6.4888,-6.4888,-6.4888,-6.4888,-6.4888,-6.4888,-6.4777,-6.4382,-6.4132,-6.3823,-6.3538,-6.3252,-6.3079,-6.3079,-6.3079,-6.3079,-6.3079,-6.3079,-6.3079,-6.6999,-6.6999,-6.667,-6.5383,-6.5533,-6.5832,-6.5173,-6.5533,-6.6161,-6.6819,-6.6939,-6.6939,-6.6969,-6.643,-6.5772,-6.5173,-6.5054,0.0,0.0,-6.3647,0.0,0.0,0.0,0.0,0.0,0.0,0.0,-6.6071,-6.6041,-6.5772,-6.5114,-6.5084,-6.5084,-6.4994,-6.4994,-6.4725,-6.4036,-6.4036,-6.3707,-6.3109,-6.3109,-6.3109,-6.3079,-6.3079,-6.3079,-6.3079,-6.3079,-6.3079,-6.3079,-6.3079,-6.3079,-6.3079,-6.3079,-6.3079,-6.2963,-6.1584,-6.1106,-6.1106,-6.1017,-6.191,-6.3021,-6.3021,-6.3079,-6.3079,-6.3079,-6.3079,-6.3079,-6.3079,-6.3079,-6.3079,-6.3079,-6.3079,-6.3194,-6.3424,-6.3538,-6.3679,-6.427,-6.4382,-6.4524,-6.4832,-6.4888,-6.4888,-6.4888,-6.4888,-6.4888,-6.4888,-6.4888,-6.4888,-6.4888,-6.4888,-6.4888,-6.4888,-6.4888,-6.4888,-6.4888,-6.4888,-6.4888,-6.4888,-6.4888,-6.4777,-6.4382,-6.4132,-6.3823,-6.3538,-6.3252,-6.3079,-6.3079,-6.3079,-6.3079,-6.3079,-6.3079,-6.3079,0.0,0.0,-6.6789,-6.5892,-6.5533,-6.5173,-6.4515,-6.4874,-6.5413,-6.5652,-6.637,-6.6999,-6.6999,-6.6101,-6.5293,-6.5054,-6.4306,-6.3588,0.0,-6.3258,0.0,-6.4276,-6.4545,-6.5114,0.0,0.0,0.0,-6.5383,-6.5353,-6.5263,0.0,-6.5024,-6.4814,-6.4366,-6.4336,-6.4036,-6.3408,-6.3378,-6.3288,-6.3079,-6.3079,-6.3079,-6.3079,-6.3079,-6.3079,-6.3079,-6.3079,-6.3079,-6.3079,-6.3079,-6.3079,-6.3079,-6.3079,-6.3079,-6.3079,-6.2585,-6.238,-6.238,-6.238,-6.2701,-6.3079,-6.3079,-6.3079,-6.3079,-6.3079,-6.3079,-6.3079,-6.3079,-6.3079,-6.3079,-6.3079,-6.3252,-6.3481,-6.3766,-6.3963,-6.4244,-6.4666,-6.4721,-6.4777,-6.4888,-6.4888,-6.4888,-6.4888,-6.4888,-6.4888,-6.4888,-6.4888,-6.4888,-6.4888,-6.4888,-6.4888,-6.4888,-6.4888,-6.4888,-6.4888,-6.4888,-6.4888,-6.4888,-6.4888,-6.4666,-6.4132,-6.4049,-6.3766,-6.3252,-6.3137,-6.3079,-6.3079,-6.3079,-6.3079,-6.3079,-6.3079,-6.3079,-6.6999,-6.6999,0.0,-6.6161,-6.5682,0.0,-6.4814,-6.5054,-6.5443,-6.5682,-6.64,-6.6999,-6.6999,-6.5922,-6.5024,-6.5024,-6.3917,-6.3079,0.0,-6.3079,-6.3318,-6.3917,-6.4006,-6.4425,-6.5562,0.0,0.0,-6.4695,-6.4665,-6.4575,0.0,0.0,-6.4126,-6.3677,-6.3677,-6.3468,-6.3079,-6.3079,-6.3079,-6.3079,-6.3079,-6.3079,-6.3079,-6.3079,-6.3079,-6.3079,-6.3079,-6.3079,-6.3079,-6.3079,-6.3079,-6.3079,-6.3079,-6.3079,-6.3079,-6.3079,-6.3079,-6.3079,-6.3079,-6.3079,-6.3079,-6.3079,-6.3079,-6.3079,-6.3079,-6.3079,-6.3019,-6.278,-6.2899,-6.3019,-6.278,-6.3129,-6.3595,-6.3936,-6.4188,-6.4524,-6.4832,-6.4888,-6.4888,-6.4888,-6.4888,-6.4888,-6.4888,-6.4888,-6.4888,-6.4888,-6.4888,-6.4888,-6.4888,-6.4888,-6.4888,-6.4888,-6.4888,-6.4888,-6.4888,-6.4888,-6.4888,-6.4888,-6.4888,-6.4721,-6.4331,-6.4106,-6.3823,-6.3424,-6.3194,-6.3079,-6.3079,-6.3079,-6.3079,-6.3079,-6.3079,-6.3079]}]]